[[{"header":{"parameterUnit":"m.s-1","parameterCategory":1,"la1":30.6,"la2":28.766,"lo1":-90.7593,"lo2":-88.6598,"dy":0.0162,"dx":0.0183,"nx":116,"ny":114,"refTime":"2023-06-17T12:00:00:Z","depth":0,"parameterNumber":2,"parameterNumberName":"U-component_of_WINDS"},"data":[0.0,0.0,0.0,0.0,0.0,0.0,0.0,0.0,0.0,0.0,0.0,0.0,0.0,0.0,0.0,0.0,0.0,0.0,0.0,0.0,0.0,0.0,0.0,0.0,0.0,0.0,0.0,0.0,0.0,0.0,0.0,0.0,0.0,0.0,0.0,0.0,0.0,0.0,0.0,0.0,0.0,0.0,0.0,0.0,0.0,0.0,0.0,0.0,0.0,0.0,0.0,0.0,0.0,0.0,0.0,0.0,0.0,0.0,0.0,0.0,0.0,0.0,0.0,0.0,0.0,0.0,0.0,0.0,0.0,0.0,0.0,0.0,0.0,0.0,0.0,0.0,0.0,0.0,0.0,0.0,0.0,0.0,0.0,0.0,0.0,0.0,0.0,0.0,0.0,0.0,0.0,0.0,0.0,0.0,0.0,0.0,0.0,0.0,0.0,0.0,0.0,0.0,0.0,0.0,0.0,0.0,0.0,0.0,0.0,0.0,0.0,0.0,0.0,0.0,0.0,0.0,0.0,0.0,0.0,0.0,0.0,0.0,0.0,0.0,0.0,0.0,0.0,0.0,0.0,0.0,0.0,0.0,0.0,0.0,0.0,0.0,0.0,0.0,0.0,0.0,0.0,0.0,0.0,0.0,0.0,0.0,0.0,0.0,0.0,0.0,0.0,0.0,0.0,0.0,0.0,0.0,0.0,0.0,0.0,0.0,0.0,0.0,0.0,0.0,0.0,0.0,0.0,0.0,0.0,0.0,0.0,0.0,0.0,0.0,0.0,0.0,0.0,0.0,0.0,0.0,0.0,0.0,0.0,0.0,0.0,0.0,0.0,0.0,0.0,0.0,0.0,0.0,0.0,0.0,0.0,0.0,0.0,0.0,0.0,0.0,0.0,0.0,0.0,0.0,0.0,0.0,0.0,0.0,0.0,0.0,0.0,0.0,0.0,0.0,0.0,0.0,0.0,0.0,0.0,0.0,0.0,0.0,0.0,0.0,0.0,0.0,0.0,0.0,0.0,0.0,0.0,0.0,0.0,0.0,0.0,0.0,0.0,0.0,0.0,0.0,0.0,0.0,0.0,0.0,0.0,0.0,0.0,0.0,0.0,0.0,0.0,0.0,0.0,0.0,0.0,0.0,0.0,0.0,0.0,0.0,0.0,0.0,0.0,0.0,0.0,0.0,0.0,0.0,0.0,0.0,0.0,0.0,0.0,0.0,0.0,0.0,0.0,0.0,0.0,0.0,0.0,0.0,0.0,0.0,0.0,0.0,0.0,0.0,0.0,0.0,0.0,0.0,0.0,0.0,0.0,0.0,0.0,0.0,0.0,0.0,0.0,0.0,0.0,0.0,0.0,0.0,0.0,0.0,0.0,0.0,0.0,0.0,0.0,0.0,0.0,0.0,0.0,0.0,0.0,0.0,0.0,0.0,0.0,0.0,0.0,0.0,0.0,0.0,0.0,0.0,0.0,0.0,0.0,0.0,0.0,0.0,0.0,0.0,0.0,0.0,0.0,0.0,0.0,0.0,0.0,0.0,0.0,0.0,0.0,0.0,0.0,0.0,0.0,0.0,0.0,0.0,0.0,0.0,0.0,0.0,0.0,0.0,0.0,0.0,0.0,0.0,0.0,0.0,0.0,0.0,0.0,0.0,0.0,0.0,0.0,0.0,0.0,0.0,0.0,0.0,0.0,0.0,0.0,0.0,0.0,0.0,0.0,0.0,0.0,0.0,0.0,0.0,0.0,0.0,0.0,0.0,0.0,0.0,0.0,0.0,0.0,0.0,0.0,0.0,0.0,0.0,0.0,0.0,0.0,0.0,0.0,0.0,0.0,0.0,0.0,0.0,0.0,0.0,0.0,0.0,0.0,0.0,0.0,0.0,0.0,0.0,0.0,0.0,0.0,0.0,0.0,0.0,0.0,0.0,0.0,0.0,0.0,0.0,0.0,0.0,0.0,0.0,0.0,0.0,0.0,0.0,0.0,0.0,0.0,0.0,0.0,0.0,0.0,0.0,0.0,0.0,0.0,0.0,0.0,0.0,0.0,0.0,0.0,0.0,0.0,0.0,0.0,0.0,0.0,0.0,0.0,0.0,0.0,0.0,0.0,0.0,0.0,0.0,0.0,0.0,0.0,0.0,0.0,0.0,0.0,0.0,0.0,0.0,0.0,0.0,0.0,0.0,0.0,0.0,0.0,0.0,0.0,0.0,0.0,0.0,0.0,0.0,0.0,0.0,0.0,0.0,0.0,0.0,0.0,0.0,0.0,0.0,0.0,0.0,0.0,0.0,0.0,0.0,0.0,0.0,0.0,0.0,0.0,0.0,0.0,0.0,0.0,0.0,0.0,0.0,0.0,0.0,0.0,0.0,0.0,0.0,0.0,0.0,0.0,0.0,0.0,0.0,0.0,0.0,0.0,0.0,0.0,0.0,0.0,0.0,0.0,0.0,0.0,0.0,0.0,0.0,0.0,0.0,0.0,0.0,0.0,0.0,0.0,0.0,0.0,0.0,0.0,0.0,0.0,0.0,0.0,0.0,0.0,0.0,0.0,0.0,0.0,0.0,0.0,0.0,0.0,0.0,0.0,0.0,0.0,0.0,0.0,0.0,0.0,0.0,0.0,0.0,0.0,0.0,0.0,0.0,0.0,0.0,0.0,0.0,0.0,0.0,0.0,0.0,0.0,0.0,0.0,0.0,0.0,0.0,0.0,0.0,0.0,0.0,0.0,0.0,0.0,0.0,0.0,0.0,0.0,0.0,0.0,0.0,0.0,0.0,0.0,0.0,0.0,0.0,0.0,0.0,0.0,0.0,0.0,0.0,0.0,0.0,0.0,0.0,0.0,0.0,0.0,0.0,0.0,0.0,0.0,0.0,0.0,0.0,0.0,0.0,0.0,0.0,0.0,0.0,0.0,0.0,0.0,0.0,0.0,0.0,0.0,0.0,0.0,0.0,0.0,0.0,0.0,0.0,0.0,0.0,0.0,0.0,0.0,0.0,0.0,0.0,0.0,0.0,0.0,0.0,0.0,0.0,0.0,0.0,0.0,0.0,0.0,0.0,0.0,0.0,0.0,0.0,0.0,0.0,0.0,0.0,0.0,0.0,0.0,0.0,0.0,0.0,0.0,0.0,0.0,0.0,0.0,0.0,0.0,0.0,0.0,0.0,0.0,0.0,0.0,0.0,0.0,0.0,0.0,0.0,0.0,0.0,0.0,0.0,0.0,0.0,0.0,0.0,0.0,0.0,0.0,0.0,0.0,0.0,0.0,0.0,0.0,0.0,0.0,0.0,0.0,0.0,0.0,0.0,0.0,0.0,0.0,0.0,0.0,0.0,0.0,0.0,0.0,0.0,0.0,0.0,0.0,0.0,0.0,0.0,0.0,0.0,0.0,0.0,0.0,0.0,0.0,0.0,0.0,0.0,0.0,0.0,0.0,0.0,0.0,0.0,0.0,0.0,0.0,0.0,0.0,0.0,0.0,0.0,0.0,0.0,0.0,0.0,0.0,0.0,0.0,0.0,0.0,0.0,0.0,0.0,0.0,0.0,0.0,0.0,0.0,0.0,0.0,0.0,0.0,0.0,0.0,0.0,0.0,0.0,0.0,0.0,0.0,0.0,0.0,0.0,0.0,0.0,0.0,0.0,0.0,0.0,0.0,0.0,0.0,0.0,0.0,0.0,0.0,0.0,0.0,0.0,0.0,0.0,0.0,0.0,0.0,0.0,0.0,0.0,0.0,0.0,0.0,0.0,0.0,0.0,0.0,0.0,0.0,0.0,0.0,0.0,0.0,0.0,0.0,0.0,0.0,0.0,0.0,0.0,0.0,0.0,0.0,0.0,0.0,0.0,0.0,0.0,0.0,0.0,0.0,0.0,0.0,0.0,0.0,0.0,0.0,0.0,0.0,0.0,0.0,0.0,0.0,0.0,0.0,0.0,0.0,0.0,0.0,0.0,0.0,0.0,0.0,0.0,0.0,0.0,0.0,0.0,0.0,0.0,0.0,0.0,0.0,0.0,0.0,0.0,0.0,0.0,0.0,0.0,0.0,0.0,0.0,0.0,0.0,0.0,0.0,0.0,0.0,0.0,0.0,0.0,0.0,0.0,0.0,0.0,0.0,0.0,0.0,0.0,0.0,0.0,0.0,0.0,0.0,0.0,0.0,0.0,0.0,0.0,0.0,0.0,0.0,0.0,0.0,0.0,0.0,0.0,0.0,0.0,0.0,0.0,0.0,0.0,0.0,0.0,0.0,0.0,0.0,0.0,0.0,0.0,0.0,0.0,0.0,0.0,0.0,0.0,0.0,0.0,0.0,0.0,0.0,0.0,0.0,0.0,0.0,0.0,0.0,0.0,0.0,0.0,0.0,0.0,0.0,0.0,0.0,0.0,0.0,0.0,0.0,0.0,0.0,0.0,0.0,0.0,0.0,0.0,0.0,0.0,0.0,0.0,0.0,0.0,0.0,0.0,0.0,0.0,0.0,0.0,0.0,0.0,0.0,0.0,0.0,0.0,0.0,0.0,0.0,0.0,0.0,0.0,0.0,0.0,0.0,0.0,0.0,0.0,0.0,0.0,0.0,0.0,0.0,0.0,0.0,0.0,0.0,0.0,0.0,0.0,0.0,0.0,0.0,0.0,0.0,0.0,0.0,0.0,0.0,0.0,0.0,0.0,0.0,0.0,0.0,0.0,0.0,0.0,0.0,0.0,0.0,0.0,0.0,0.0,0.0,0.0,0.0,0.0,0.0,0.0,0.0,0.0,0.0,0.0,0.0,0.0,0.0,0.0,0.0,0.0,0.0,0.0,0.0,0.0,0.0,0.0,0.0,0.0,0.0,0.0,0.0,0.0,0.0,0.0,0.0,0.0,0.0,0.0,0.0,0.0,0.0,0.0,0.0,0.0,0.0,0.0,0.0,0.0,0.0,0.0,0.0,0.0,0.0,0.0,0.0,0.0,0.0,0.0,0.0,0.0,0.0,0.0,0.0,0.0,0.0,0.0,0.0,0.0,0.0,0.0,0.0,0.0,0.0,0.0,0.0,0.0,0.0,0.0,0.0,0.0,0.0,0.0,0.0,0.0,0.0,0.0,0.0,0.0,0.0,0.0,0.0,0.0,0.0,0.0,0.0,0.0,0.0,0.0,0.0,0.0,0.0,0.0,0.0,0.0,0.0,0.0,0.0,0.0,0.0,0.0,0.0,0.0,0.0,0.0,0.0,0.0,0.0,0.0,0.0,0.0,0.0,0.0,0.0,0.0,0.0,0.0,0.0,0.0,0.0,0.0,0.0,0.0,0.0,0.0,0.0,0.0,0.0,0.0,0.0,0.0,0.0,0.0,0.0,0.0,0.0,0.0,0.0,0.0,0.0,0.0,0.0,0.0,0.0,0.0,0.0,0.0,0.0,0.0,0.0,0.0,0.0,0.0,0.0,0.0,0.0,0.0,0.0,0.0,0.0,0.0,0.0,0.0,0.0,0.0,0.0,0.0,0.0,0.0,0.0,0.0,0.0,0.0,0.0,0.0,0.0,0.0,0.0,0.0,0.0,0.0,0.0,0.0,0.0,0.0,0.0,0.0,0.0,0.0,0.0,0.0,0.0,0.0,0.0,0.0,0.0,0.0,0.0,0.0,0.0,0.0,0.0,0.0,0.0,0.0,0.0,0.0,0.0,0.0,0.0,0.0,0.0,0.0,0.0,0.0,0.0,0.0,0.0,0.0,0.0,0.0,0.0,0.0,0.0,0.0,0.0,0.0,0.0,0.0,0.0,0.0,0.0,0.0,0.0,0.0,0.0,0.0,0.0,0.0,0.0,0.0,0.0,0.0,0.0,0.0,0.0,0.0,0.0,0.0,0.0,0.0,0.0,0.0,0.0,0.0,0.0,0.0,0.0,0.0,0.0,0.0,0.0,0.0,0.0,0.0,0.0,0.0,0.0,0.0,0.0,0.0,0.0,0.0,0.0,0.0,0.0,0.0,0.0,0.0,0.0,0.0,0.0,0.0,0.0,0.0,0.0,0.0,0.0,0.0,0.0,0.0,0.0,0.0,0.0,0.0,0.0,0.0,0.0,0.0,0.0,0.0,0.0,0.0,0.0,0.0,0.0,0.0,0.0,0.0,2.3317,2.3132,0.0,0.0,0.0,0.0,0.0,0.0,0.0,0.0,0.0,0.0,0.0,0.0,0.0,0.0,0.0,0.0,0.0,0.0,0.0,0.0,0.0,0.0,0.0,0.0,0.0,0.0,0.0,0.0,0.0,0.0,0.0,0.0,0.0,0.0,0.0,0.0,0.0,0.0,0.0,0.0,0.0,0.0,0.0,0.0,0.0,0.0,0.0,0.0,0.0,0.0,0.0,0.0,0.0,0.0,0.0,0.0,0.0,0.0,0.0,0.0,0.0,0.0,0.0,0.0,0.0,0.0,0.0,0.0,0.0,0.0,0.0,0.0,0.0,0.0,0.0,0.0,0.0,0.0,0.0,0.0,0.0,0.0,0.0,0.0,0.0,0.0,0.0,0.0,0.0,0.0,0.0,0.0,0.0,0.0,0.0,0.0,0.0,0.0,0.0,0.0,0.0,0.0,0.0,0.0,0.0,0.0,0.0,0.0,0.0,0.0,0.0,0.0,0.0,0.0,2.3731,2.3468,0.0,0.0,0.0,0.0,0.0,0.0,0.0,0.0,0.0,0.0,0.0,0.0,0.0,0.0,0.0,0.0,0.0,0.0,0.0,0.0,0.0,0.0,0.0,0.0,0.0,0.0,0.0,0.0,0.0,0.0,0.0,0.0,0.0,0.0,0.0,0.0,0.0,0.0,0.0,0.0,0.0,0.0,0.0,0.0,0.0,0.0,0.0,0.0,0.0,0.0,0.0,0.0,0.0,0.0,0.0,0.0,0.0,0.0,0.0,0.0,0.0,0.0,0.0,0.0,0.0,0.0,0.0,0.0,0.0,0.0,0.0,0.0,0.0,0.0,0.0,0.0,0.0,0.0,0.0,0.0,0.0,0.0,0.0,0.0,0.0,0.0,0.0,0.0,0.0,0.0,0.0,0.0,0.0,0.0,0.0,0.0,0.0,0.0,0.0,0.0,0.0,0.0,0.0,0.0,0.0,0.0,0.0,0.0,2.3722,2.3945,2.3945,2.4106,2.4266,2.4371,2.4164,2.3868,2.3553,2.3874,0.0,0.0,0.0,0.0,0.0,0.0,0.0,0.0,0.0,0.0,0.0,0.0,0.0,0.0,0.0,0.0,0.0,0.0,0.0,0.0,0.0,0.0,0.0,0.0,0.0,0.0,0.0,0.0,0.0,0.0,0.0,0.0,0.0,0.0,0.0,0.0,0.0,0.0,3.2985,3.3087,3.3111,3.3027,3.3364,0.0,0.0,0.0,0.0,0.0,0.0,0.0,0.0,0.0,0.0,0.0,0.0,0.0,0.0,0.0,0.0,0.0,0.0,0.0,0.0,0.0,0.0,0.0,0.0,0.0,0.0,0.0,0.0,0.0,0.0,0.0,0.0,0.0,0.0,0.0,0.0,0.0,0.0,0.0,0.0,0.0,0.0,0.0,2.232,2.2621,0.0,0.0,0.0,0.0,0.0,0.0,0.0,0.0,0.0,0.0,0.0,0.0,0.0,2.3011,2.3011,2.3456,2.3732,2.3732,2.4211,2.4434,2.4434,2.4445,2.4434,2.4463,2.3816,0.0,2.4194,2.3977,0.0,0.0,0.0,0.0,0.0,0.0,0.0,0.0,0.0,0.0,0.0,0.0,0.0,0.0,0.0,0.0,0.0,0.0,0.0,0.0,0.0,0.0,0.0,0.0,0.0,0.0,0.0,0.0,0.0,0.0,0.0,0.0,0.0,0.0,0.0,0.0,3.3244,3.3135,3.3006,3.2993,3.2912,3.2813,3.3024,3.3244,3.3429,3.3465,0.0,0.0,0.0,0.0,0.0,0.0,0.0,0.0,0.0,0.0,0.0,0.0,0.0,0.0,0.0,0.0,0.0,0.0,0.0,0.0,0.0,0.0,0.0,0.0,0.0,0.0,0.0,0.0,0.0,0.0,0.0,0.0,0.0,0.0,0.0,0.0,0.0,0.0,0.0,2.2572,2.2832,2.3305,2.2842,2.253,0.0,0.0,0.0,0.0,0.0,0.0,0.0,0.0,0.0,2.2327,2.26,2.2715,2.2715,2.3194,2.3474,2.3485,2.3938,2.407,2.407,2.407,2.4,2.3888,2.3475,2.3349,2.3459,2.3508,2.347,2.3352,0.0,0.0,0.0,0.0,2.435,2.436,0.0,0.0,0.0,0.0,0.0,0.0,0.0,0.0,0.0,0.0,0.0,0.0,0.0,0.0,0.0,3.0136,0.0,0.0,0.0,0.0,0.0,0.0,0.0,0.0,0.0,0.0,0.0,0.0,3.3104,3.3011,3.2852,3.282,3.2734,3.261,3.2684,3.2912,3.3184,3.322,3.331,0.0,0.0,0.0,0.0,0.0,0.0,0.0,0.0,0.0,0.0,0.0,0.0,0.0,0.0,0.0,0.0,0.0,0.0,0.0,0.0,0.0,0.0,0.0,0.0,0.0,0.0,0.0,0.0,0.0,0.0,0.0,0.0,0.0,0.0,0.0,0.0,0.0,0.0,2.3243,2.3395,2.3804,2.3306,2.2992,0.0,0.0,0.0,0.0,0.0,0.0,2.2208,2.211,2.2115,2.2241,2.2424,2.2487,2.2408,2.3071,2.3358,2.3368,2.369,2.3841,2.3831,2.372,2.3574,2.3378,2.2992,2.2721,2.2616,2.2897,2.3075,2.315,2.3446,2.3677,2.3824,2.4116,2.4394,2.4457,0.0,0.0,0.0,0.0,0.0,0.0,0.0,0.0,0.0,0.0,0.0,0.0,0.0,0.0,2.9305,3.0136,3.0246,3.0925,0.0,0.0,0.0,0.0,0.0,0.0,0.0,0.0,0.0,3.3117,3.2979,3.2852,3.2805,3.2659,3.261,3.2592,3.2614,3.2679,3.2827,3.2965,3.3055,3.314,0.0,0.0,0.0,0.0,0.0,0.0,0.0,0.0,0.0,0.0,0.0,0.0,0.0,0.0,0.0,0.0,0.0,0.0,0.0,0.0,0.0,0.0,0.0,0.0,0.0,0.0,0.0,0.0,0.0,0.0,0.0,0.0,0.0,0.0,0.0,0.0,0.0,0.0,0.0,2.3716,2.3689,0.0,0.0,0.0,0.0,2.2149,2.2209,2.2208,2.198,2.2052,2.2004,2.1807,2.2429,2.2727,2.2493,2.3368,2.38,2.381,2.3831,2.3841,2.3831,2.3408,2.3217,2.3146,2.2362,2.1979,2.1997,2.23,2.2553,2.2703,2.2777,2.3001,2.3372,2.3593,2.374,2.397,0.0,0.0,0.0,0.0,0.0,0.0,0.0,0.0,0.0,0.0,0.0,0.0,0.0,2.9089,2.9241,2.9471,2.9968,3.0496,3.1017,0.0,0.0,0.0,0.0,0.0,0.0,0.0,3.3135,3.3042,3.2902,3.2524,3.1948,3.18,3.167,3.162,3.155,3.1827,3.2382,3.2627,3.2829,3.2916,3.3015,3.2983,0.0,0.0,0.0,0.0,0.0,0.0,0.0,0.0,0.0,0.0,0.0,0.0,0.0,0.0,0.0,0.0,0.0,0.0,0.0,0.0,0.0,0.0,0.0,0.0,0.0,0.0,0.0,0.0,0.0,0.0,0.0,0.0,0.0,0.0,0.0,0.0,0.0,2.4213,2.3887,0.0,2.3524,2.3294,2.2946,2.2596,2.2694,2.2603,2.2306,2.2017,2.1807,2.1578,2.1857,2.1988,2.202,2.2536,2.2785,2.2872,2.2872,2.2737,2.2476,2.2322,2.2039,2.1496,2.1348,2.1214,2.1104,2.1322,2.1711,2.2101,2.2252,2.2478,2.2777,2.2927,2.3075,2.315,0.0,0.0,0.0,0.0,0.0,0.0,0.0,0.0,0.0,0.0,0.0,2.8227,2.906,2.9156,2.9156,2.9108,2.9586,2.9987,3.0191,0.0,0.0,0.0,0.0,0.0,0.0,3.3165,3.2929,3.2554,3.2414,3.1927,3.1038,3.0841,3.0746,3.0698,3.0577,3.0959,3.1708,3.1934,3.2265,3.2687,3.274,3.2873,3.2987,0.0,0.0,0.0,0.0,0.0,0.0,0.0,0.0,0.0,0.0,0.0,0.0,0.0,0.0,0.0,0.0,0.0,0.0,0.0,0.0,0.0,0.0,0.0,0.0,0.0,0.0,0.0,0.0,0.0,0.0,0.0,0.0,0.0,0.0,2.3991,2.4119,2.4478,2.4249,2.4011,2.385,2.3612,2.3327,2.2895,2.2815,2.2628,2.2327,2.1959,2.1578,2.1436,2.1391,2.1428,2.1477,2.1745,2.1921,2.2015,2.2015,2.1873,2.1608,2.1466,2.1106,2.0566,2.0575,2.0514,2.0411,2.0479,2.0867,2.1339,2.1655,2.1959,2.2101,2.2252,2.2402,2.2531,0.0,0.0,0.0,0.0,0.0,0.0,0.0,0.0,0.0,0.0,2.8036,2.835,2.9126,2.92,2.9178,2.9112,2.9089,2.9398,3.0118,3.0191,0.0,0.0,0.0,0.0,3.322,3.3093,3.2576,3.1653,3.1551,3.1034,3.0162,2.9969,2.9854,2.9872,2.9797,3.0179,3.0853,3.0898,3.1477,3.2336,3.2441,3.2613,3.2781,0.0,0.0,0.0,0.0,0.0,0.0,0.0,0.0,0.0,0.0,0.0,0.0,0.0,0.0,0.0,0.0,0.0,0.0,0.0,0.0,0.0,0.0,0.0,0.0,0.0,0.0,0.0,0.0,0.0,0.0,0.0,0.0,0.0,2.3841,2.406,2.4262,2.4458,2.4661,2.4611,2.4154,2.379,2.3423,2.2979,2.2617,2.2327,2.2101,2.1731,2.1436,2.1205,2.1204,2.1102,2.088,2.1047,2.1172,2.1182,2.1182,2.1172,2.1144,2.0756,2.0566,2.0529,2.0042,1.9863,1.9863,1.9863,2.0029,2.0342,2.0974,2.1282,2.1502,2.1502,2.1721,2.2017,0.0,0.0,0.0,0.0,0.0,0.0,0.0,0.0,0.0,0.0,2.8556,2.9021,2.9243,2.9323,2.9304,2.9178,2.9156,2.9222,2.9329,0.0,0.0,0.0,0.0,0.0,3.156,3.1474,3.1231,3.0832,3.0698,3.0172,2.9259,2.9103,2.8975,2.8893,2.8806,2.9192,2.992,3.0499,3.093,3.1301,3.1987,3.2336,3.2371,0.0,0.0,0.0,0.0,0.0,0.0,0.0,0.0,0.0,0.0,0.0,0.0,0.0,0.0,0.0,0.0,0.0,0.0,0.0,0.0,0.0,0.0,0.0,0.0,0.0,0.0,0.0,0.0,0.0,0.0,0.0,2.2608,2.3121,2.3971,2.3969,2.3929,2.4115,2.398,2.357,2.2982,2.2913,2.2767,2.255,2.2434,2.2252,2.1883,2.1502,2.1205,2.0984,2.0693,2.0582,2.0647,2.0517,2.0476,2.0446,2.0446,2.0291,1.9833,1.9725,1.9525,1.9245,1.9207,1.9311,1.946,1.9636,1.9794,2.0029,2.042,2.0722,2.1021,2.1021,2.106,2.0961,0.0,0.0,0.0,0.0,0.0,0.0,0.0,0.0,0.0,0.0,2.9026,2.9344,2.9344,2.9052,2.8936,2.9181,2.8883,2.8784,2.8998,0.0,0.0,0.0,0.0,3.1111,3.0938,3.0854,3.055,3.0047,2.9899,2.9311,2.8403,2.8268,2.8129,2.8016,2.7912,2.8276,2.9055,2.9782,3.0298,3.072,3.1582,3.202,3.2192,3.2631,3.3071,3.3475,3.3808,3.4246,3.4594,3.437,0.0,0.0,0.0,0.0,0.0,0.0,0.0,0.0,0.0,0.0,0.0,0.0,0.0,0.0,0.0,0.0,0.0,0.0,0.0,0.0,0.0,0.0,0.0,0.0,2.2469,2.2786,2.3563,2.3542,2.3418,2.3454,2.3248,2.2926,2.2228,2.2351,2.2341,2.2053,2.2211,2.2101,2.1731,2.1349,2.1051,2.0819,2.0342,2.0144,2.0151,1.9829,1.9706,1.9696,1.9614,1.9415,1.9029,1.9029,1.8913,1.87,1.8851,1.8922,1.9073,1.917,1.932,1.9478,0.0,0.0,0.0,0.0,2.0023,1.9905,0.0,0.0,0.0,0.0,0.0,0.0,0.0,0.0,0.0,0.0,0.0,2.9407,2.9407,2.8719,2.8491,2.9144,2.855,2.8375,0.0,0.0,0.0,2.9984,3.0586,3.0865,3.0749,3.0584,3.0102,2.9262,2.9083,2.8535,2.7701,2.7569,2.7452,2.7376,2.7184,2.7506,2.8216,2.89,2.9608,3.035,3.1219,3.1763,3.213,3.2891,3.3231,3.339,3.4189,3.4536,3.4549,3.43,0.0,0.0,0.0,0.0,0.0,0.0,0.0,0.0,0.0,0.0,0.0,0.0,0.0,0.0,0.0,0.0,0.0,0.0,0.0,0.0,0.0,0.0,0.0,0.0,2.2371,2.2291,2.2759,2.2831,2.2752,2.2671,2.2593,2.2298,2.1774,2.1958,2.2049,2.1615,2.1881,2.1883,2.1512,2.1282,0.0,0.0,0.0,1.9784,1.9557,1.9161,1.9002,1.8922,1.8772,1.862,1.8612,1.8612,1.8612,1.8612,1.862,1.87,1.87,1.87,1.8674,1.8709,1.9404,1.9465,1.9137,1.8915,1.8908,1.8933,0.0,0.0,0.0,0.0,0.0,0.0,0.0,0.0,0.0,2.9407,2.9407,2.9407,2.9407,2.9258,2.9161,2.92,2.9071,2.8986,0.0,0.0,2.919,2.9143,2.9217,2.9234,2.9141,2.8953,2.8748,2.8506,2.8312,2.8052,2.7701,2.7569,2.7452,2.7376,2.7184,2.7206,2.7411,2.8655,2.9299,2.9566,3.0959,3.1589,3.1817,3.2752,3.3464,3.3995,3.4789,3.5404,3.5821,3.5677,3.5531,3.5317,3.4558,3.4216,0.0,0.0,0.0,0.0,0.0,0.0,0.0,0.0,0.0,0.0,0.0,0.0,0.0,0.0,0.0,0.0,0.0,0.0,0.0,2.2224,2.2011,2.1722,2.1551,2.1562,2.1696,2.2073,2.1732,2.1241,2.0501,2.1062,2.136,2.0913,2.148,2.1655,2.1282,2.0886,2.0576,2.0342,1.9872,1.9557,1.9381,1.9161,1.8843,1.8523,1.8442,0.0,1.8121,1.8121,1.8121,1.8121,1.8362,1.8442,1.8442,1.8612,1.8505,1.8282,1.8583,1.8559,1.8304,1.8106,1.8109,1.8214,0.0,0.0,0.0,0.0,0.0,0.0,0.0,0.0,0.0,0.0,3.0064,2.9895,2.9446,2.8998,2.8862,2.9163,2.9134,0.0,0.0,2.8994,2.8994,2.8952,2.8858,2.8785,2.8761,2.851,2.838,2.8353,2.8109,2.7893,2.776,2.7569,2.7452,2.7376,2.7166,2.7242,2.7669,2.866,2.933,2.9761,3.0909,3.1419,3.1542,3.2471,3.3299,3.4003,3.4775,3.5488,3.6079,3.5844,3.5756,3.5616,3.5065,3.4722,3.4343,0.0,0.0,0.0,0.0,0.0,0.0,0.0,0.0,0.0,0.0,0.0,0.0,0.0,0.0,2.2141,2.1968,0.0,2.1738,2.1815,2.1612,2.1371,2.1094,2.0914,2.0876,2.119,2.0885,2.0457,2.0074,2.0593,2.0857,2.0563,2.1205,2.1512,2.1061,2.0731,2.0411,2.0098,1.9706,1.9311,1.9152,1.8834,1.8603,1.8442,1.8282,1.8121,1.804,1.804,1.804,1.804,1.8121,1.8201,1.8184,1.8153,1.7848,1.7482,1.7432,1.7454,1.7524,1.7197,1.7122,1.7174,0.0,0.0,0.0,0.0,0.0,0.0,0.0,0.0,0.0,0.0,3.0702,3.0383,2.9506,2.8776,2.8565,0.0,0.0,0.0,0.0,2.8994,2.8994,2.8994,2.8881,2.881,2.8785,2.8562,2.845,2.8398,2.8154,2.7968,2.7818,2.763,2.7496,2.7407,2.7319,2.7579,2.8159,2.8902,2.957,3.0157,3.0982,3.1269,3.1346,3.2077,3.2883,3.3782,3.4592,3.5318,3.5844,3.5667,3.5577,3.5503,3.5337,3.5088,3.4736,3.3983,3.3517,0.0,0.0,0.0,0.0,0.0,0.0,0.0,0.0,2.4321,2.3326,2.2797,2.2603,2.2343,2.1835,2.1897,2.1862,2.1463,2.1221,2.1031,2.0839,2.0518,2.0335,2.0281,2.0194,2.002,1.9931,2.036,2.0676,2.0483,2.1118,2.1282,2.0829,2.0576,2.0255,1.9863,1.946,1.9152,1.8922,1.8603,1.8353,1.8362,1.8121,1.7959,1.7951,1.7951,1.7951,1.7951,1.7959,1.7997,1.7903,1.7518,1.7141,1.6773,1.6396,1.646,1.6713,1.6395,1.6272,1.6272,0.0,0.0,0.0,0.0,0.0,0.0,0.0,0.0,0.0,0.0,0.0,0.0,0.0,0.0,0.0,0.0,0.0,0.0,2.8994,2.8994,2.8994,2.8994,2.8929,2.8858,2.8785,2.8637,2.851,2.8398,2.8237,2.8099,2.7968,2.776,2.7612,2.7509,2.8021,2.8198,2.8184,2.9501,3.0071,3.0157,3.0892,3.119,3.123,3.1331,3.2286,3.3734,3.4466,3.5101,3.5537,3.5537,3.5429,3.5291,3.5152,3.4994,3.4818,3.4496,3.4186,3.3775,3.2818,3.1045,2.93,2.8665,2.752,2.6477,0.0,2.519,2.4463,2.3793,2.3094,2.2506,2.2224,2.1702,2.1285,2.1221,2.0978,2.0669,2.0475,2.0248,2.0107,1.9998,1.9933,1.9963,1.9997,2.0411,2.074,2.0716,2.1075,2.1051,2.0654,2.0255,1.9863,1.9636,1.924,1.8922,1.878,1.8523,1.8282,1.804,1.8031,1.787,1.77,1.77,1.77,1.77,1.7951,1.7843,1.7509,1.7132,1.6756,1.6452,1.6002,1.5865,1.5928,1.6087,1.6202,1.6272,0.0,0.0,0.0,0.0,0.0,0.0,0.0,0.0,0.0,0.0,0.0,0.0,0.0,0.0,0.0,0.0,0.0,0.0,2.8994,2.8994,2.8994,2.8994,2.8929,2.8881,2.8785,2.8662,2.8536,2.845,2.8291,2.8136,2.8045,2.7818,2.7841,2.817,2.8307,2.8795,2.9519,3.0004,3.0442,3.0825,3.1067,3.119,3.1241,3.1664,3.2517,3.3499,3.3744,3.4553,0.0,0.0,3.5245,3.5152,3.4947,3.4804,3.4643,3.4448,3.4151,3.3556,3.2035,3.0756,2.9577,2.8327,2.7343,2.6525,2.5934,2.5286,2.4607,2.3839,2.3125,2.2469,2.1975,2.1537,2.1106,2.0786,2.0593,2.041,2.014,2.0064,1.9965,1.9988,1.9952,1.997,2.0033,2.0481,2.0687,2.067,2.0877,2.0819,2.042,2.0337,2.0038,1.9478,1.9227,1.8994,1.8531,1.8282,1.8031,1.787,1.787,1.7708,1.7546,1.7546,1.7546,1.7546,1.7635,1.7426,1.7128,1.669,1.6321,1.6026,1.5576,1.5426,1.5497,1.5788,1.5938,1.5965,0.0,0.0,0.0,0.0,0.0,0.0,0.0,0.0,0.0,0.0,0.0,0.0,0.0,0.0,0.0,0.0,0.0,0.0,0.0,2.904,2.904,2.9021,2.8998,2.8929,2.8815,2.8712,2.8612,2.8528,2.8335,2.8327,2.8451,2.818,2.8423,2.9012,2.9062,2.9653,3.0555,3.0551,3.096,3.1602,3.1546,3.1647,3.1867,3.2391,3.3051,3.3711,3.3566,3.432,0.0,0.0,3.5105,3.4994,3.4787,3.4594,3.4448,3.4349,3.3855,3.2981,3.1271,3.0346,2.9565,2.8237,2.7284,2.6472,2.5825,2.516,2.4421,2.3603,2.2944,2.2285,2.1651,2.1285,2.096,2.0642,2.0423,2.0303,2.0301,2.0148,2.0044,2.017,2.0278,2.0281,2.0222,2.0596,2.0805,2.0712,2.0837,2.085,2.0359,2.059,2.0351,1.9569,1.9416,1.9044,1.8519,1.8172,1.787,1.77,1.77,1.7538,1.731,1.731,1.731,1.731,1.7392,1.7128,1.6682,1.6426,1.6038,1.5584,1.5312,1.5204,1.5204,1.5505,1.5655,1.5596,0.0,0.0,0.0,0.0,0.0,0.0,0.0,0.0,0.0,0.0,0.0,0.0,0.0,0.0,0.0,0.0,0.0,0.0,0.0,2.9108,2.9089,2.9093,2.9093,2.903,2.8902,2.8839,2.8737,2.8587,2.8453,2.8719,2.9358,2.9147,2.9412,3.0089,3.0576,3.0783,3.0737,3.1244,3.1845,3.2439,3.2334,3.2681,3.3339,3.3372,3.3829,3.4455,3.4307,0.0,0.0,3.5152,3.4994,3.4899,3.4739,3.4594,3.4448,3.4349,3.3466,3.2276,3.1146,3.0006,2.9093,2.8688,2.7556,2.6351,2.5825,2.4978,2.4105,2.3267,2.2641,2.1999,2.1348,2.0914,2.0815,2.1075,2.0501,2.0412,2.114,2.0722,2.0398,2.0631,2.0948,2.0999,2.0788,2.0808,2.0937,2.1155,2.1204,2.105,2.0638,2.0688,2.0568,2.0165,1.963,1.9177,1.892,1.8301,1.787,1.77,1.77,1.7456,1.7139,1.7139,1.7139,1.7139,1.731,1.6995,1.6335,1.6319,1.5881,1.5213,1.5204,1.5204,1.5204,1.5204,1.5204,1.5155,0.0,0.0,0.0,0.0,0.0,0.0,0.0,0.0,0.0,0.0,0.0,0.0,0.0,0.0,0.0,0.0,2.9218,0.0,0.0,2.968,2.9714,2.9189,2.965,2.9849,2.9747,2.9682,2.9868,3.025,3.0177,3.0158,3.0269,3.0149,3.037,3.0878,3.1474,3.1974,3.2329,3.2878,3.3165,3.3287,3.3202,3.3262,3.3457,3.3947,3.4269,3.4556,0.0,0.0,0.0,3.5041,3.4947,3.4769,3.4067,3.3824,3.3582,3.2773,3.2028,3.1297,3.0258,2.9449,2.8716,2.7869,2.6986,2.619,2.5495,2.4765,2.3943,2.3125,2.2396,2.1663,2.1094,2.098,2.0986,2.0951,2.1059,2.1083,2.1118,2.0892,2.0815,2.098,2.1021,2.1277,2.1655,2.1561,2.1477,2.1391,2.1406,2.124,2.0974,2.1128,2.0805,1.9947,2.0072,1.9621,1.868,1.8394,1.796,1.7465,1.7221,1.6976,1.6812,1.6812,1.6812,1.6812,1.6902,1.6573,1.5912,1.5912,1.5493,1.4776,1.4776,1.4776,1.4776,1.4776,1.4776,1.4767,0.0,0.0,0.0,0.0,0.0,0.0,0.0,0.0,0.0,0.0,0.0,0.0,0.0,0.0,0.0,0.0,0.0,2.9351,0.0,0.0,3.0324,3.0105,3.0568,3.0742,3.0674,3.0607,3.0759,3.1151,3.1046,3.1066,3.12,3.1053,3.1417,3.2144,3.2488,3.3003,3.3579,3.3853,3.4038,3.4117,3.4032,3.405,3.4252,3.4709,3.4895,0.0,0.0,0.0,3.5245,3.4994,3.4717,3.4372,3.3641,3.3141,3.2593,3.1565,3.0974,3.0425,2.9508,2.8828,2.8216,2.7388,2.6683,2.6042,2.5272,2.4523,2.3767,2.2896,2.2161,2.1584,2.1141,2.1096,2.1162,2.1388,2.1494,2.1572,2.1549,2.1371,2.1354,2.1538,2.1535,2.1671,2.2169,2.2231,2.2018,2.1788,2.169,2.1512,2.1419,2.1386,2.1053,2.027,2.0298,1.9869,1.8802,1.8506,1.7921,1.731,1.6902,1.673,1.673,1.673,1.673,1.673,1.673,1.6333,1.5674,1.5674,1.5268,1.4569,1.4569,1.4569,1.4569,1.4569,1.449,1.4371,0.0,0.0,0.0,0.0,0.0,0.0,0.0,0.0,0.0,0.0,0.0,0.0,0.0,0.0,0.0,0.0,0.0,0.0,0.0,0.0,0.0,3.1663,3.1738,3.1688,3.1557,3.151,3.1447,3.1428,3.1232,3.1482,3.2147,3.1941,3.2537,3.3794,3.3701,3.3932,3.4449,3.4272,3.4511,3.4933,3.4832,3.5128,3.5622,3.5622,0.0,0.0,0.0,0.0,3.5245,3.4994,3.4386,3.3677,3.3365,3.2528,3.1549,3.0765,3.0275,2.972,2.8839,2.8186,2.769,2.7284,2.6645,2.5893,2.5174,2.435,2.3518,2.2592,2.2037,2.1637,2.1451,2.1275,2.1393,2.216,2.1953,2.1832,2.236,2.2041,2.1956,2.2465,2.2265,2.222,2.2513,2.2685,2.2681,2.2304,2.1976,2.1864,2.1778,2.1539,2.1293,2.0997,2.0385,1.9852,1.9204,1.8642,1.7913,1.7057,1.6812,1.673,1.673,1.673,1.673,1.673,1.673,1.6333,1.5674,1.5674,1.5268,1.4569,1.4569,1.4569,1.4569,1.4569,1.4418,1.4061,0.0,0.0,0.0,0.0,0.0,0.0,0.0,0.0,0.0,0.0,0.0,0.0,0.0,0.0,0.0,0.0,0.0,0.0,0.0,0.0,0.0,0.0,0.0,0.0,0.0,0.0,0.0,0.0,0.0,3.2977,3.3082,3.3473,3.377,3.4072,3.4969,3.5335,3.5384,3.574,3.5803,3.5702,0.0,3.563,3.5622,0.0,0.0,0.0,0.0,0.0,3.5152,3.4947,3.3961,3.2594,3.1792,3.0868,3.0014,2.9593,2.9312,2.8997,2.8427,2.7974,2.7524,2.6945,2.6312,2.5619,2.5005,2.4144,2.3318,2.2543,2.1851,2.1319,2.1385,2.1439,2.1662,2.2215,2.2499,2.2655,2.2596,2.268,2.2762,2.2705,2.2621,2.2768,2.2975,2.2864,2.2758,2.263,2.2398,2.2193,2.2026,2.1606,2.1293,2.0997,2.0738,2.0243,1.9598,1.8591,1.7664,1.6812,1.673,1.673,1.673,1.673,1.673,1.673,1.673,1.6333,1.5674,1.5674,1.5268,1.4569,1.4569,1.4569,1.4569,1.4569,1.4418,1.4061,0.0,0.0,0.0,0.0,0.0,0.0,0.0,0.0,0.0,0.0,0.0,0.0,0.0,0.0,0.0,0.0,0.0,0.0,0.0,0.0,0.0,0.0,0.0,0.0,0.0,0.0,0.0,0.0,0.0,0.0,0.0,3.4028,3.4401,3.4634,3.5611,3.6145,3.6295,3.6493,0.0,0.0,0.0,0.0,0.0,0.0,0.0,0.0,0.0,3.5152,3.48,3.4077,3.3179,3.2187,3.0839,2.9987,2.9428,2.9183,2.8905,2.8636,2.8284,2.789,2.7372,2.6774,2.615,2.5495,2.4765,2.3969,2.3223,2.2494,2.1851,2.1521,2.17,2.179,2.2062,2.2542,2.2826,2.3003,2.2994,2.3099,2.3197,2.337,2.3155,2.315,2.371,2.3424,2.3242,2.3223,2.2729,2.2264,2.1919,2.1463,2.1105,2.0916,2.0645,2.0124,1.9138,1.8379,1.7572,1.673,1.673,1.673,1.673,1.673,1.673,1.6722,1.6571,1.619,1.5666,1.5523,1.5133,1.4569,1.4569,1.4569,1.4569,1.4569,1.4315,1.3854,0.0,0.0,0.0,0.0,0.0,0.0,0.0,0.0,0.0,0.0,0.0,0.0,0.0,0.0,0.0,0.0,0.0,0.0,0.0,0.0,0.0,0.0,0.0,0.0,0.0,0.0,0.0,0.0,0.0,0.0,0.0,0.0,0.0,0.0,0.0,0.0,0.0,0.0,0.0,0.0,0.0,0.0,0.0,0.0,0.0,0.0,3.5291,3.4994,3.4477,3.2905,3.2338,3.2014,3.0324,2.9621,2.9382,2.9137,2.8811,2.8525,2.8235,2.779,2.7233,2.6616,2.6042,2.5384,2.4465,2.3793,2.3103,2.2309,2.1958,2.1877,2.2024,2.2187,2.2466,2.2925,2.3056,2.3166,2.336,2.33,2.3525,2.4105,2.3719,2.367,2.4444,2.4108,2.3751,2.3746,2.3009,2.2316,2.1724,2.1302,2.0907,2.0654,2.0382,1.9771,1.8634,1.8261,1.7646,1.6802,1.6754,1.673,1.673,1.673,1.673,1.6714,1.6357,1.5999,1.565,1.5316,1.4975,1.4569,1.4569,1.4569,1.4561,1.4514,1.4148,1.3576,0.0,0.0,0.0,0.0,0.0,0.0,0.0,0.0,0.0,0.0,2.9902,2.9734,0.0,0.0,0.0,0.0,0.0,0.0,0.0,0.0,0.0,0.0,0.0,0.0,0.0,3.4067,3.3983,3.3991,3.378,0.0,0.0,0.0,0.0,0.0,0.0,0.0,0.0,0.0,0.0,0.0,0.0,0.0,0.0,0.0,0.0,0.0,3.4947,3.4739,3.4429,3.2639,3.2057,3.1767,3.0087,2.9366,2.9137,2.892,2.8636,2.8348,2.7989,2.7539,2.7063,2.651,2.5811,2.5104,2.4292,2.3556,2.2787,2.1975,2.1689,2.1665,2.1818,2.2116,2.2466,2.2925,2.334,2.3558,2.3414,2.3876,2.4267,2.4178,2.4272,2.4344,2.4504,2.4193,2.3865,2.3672,2.3373,2.2778,2.198,2.1364,2.0817,2.0382,2.0292,1.9988,1.928,1.8729,1.8107,1.7411,1.6956,1.673,1.673,1.673,1.673,1.6714,1.6357,1.5999,1.565,1.5316,1.4975,1.4569,1.4569,1.4569,1.4609,1.4307,1.3942,1.3545,0.0,0.0,0.0,0.0,0.0,0.0,0.0,2.9511,2.985,3.0677,3.0471,3.0527,3.1349,3.1383,0.0,0.0,0.0,0.0,0.0,0.0,0.0,0.0,0.0,0.0,0.0,3.4067,3.3991,3.3998,0.0,3.3671,3.3623,3.454,3.5159,3.5529,3.631,3.687,3.7164,0.0,0.0,3.6233,3.6062,3.5844,0.0,0.0,0.0,0.0,0.0,3.4594,3.4235,3.2544,3.1853,3.1422,2.9796,2.9183,2.9045,2.8684,2.8444,2.8201,2.779,2.7386,2.6922,2.6379,2.566,2.4878,2.4105,2.3292,2.2604,2.2131,2.2004,2.2049,2.2218,2.249,2.275,2.2968,2.3405,2.3743,2.3759,2.4175,2.4628,2.485,2.4692,2.4696,2.5148,2.4639,2.4382,2.4316,2.3654,2.2861,2.1812,2.1037,2.0555,2.0292,2.0292,2.0022,1.9381,1.9109,1.8481,1.7592,1.7338,1.6996,1.673,1.673,1.673,1.6706,1.6166,1.5833,1.5634,1.5118,1.48,1.4569,1.4569,1.4569,1.4522,1.4244,1.3886,1.3537,0.0,0.0,0.0,0.0,0.0,0.0,0.0,2.9719,3.019,3.1035,3.1318,3.175,3.2555,3.242,3.2651,0.0,0.0,0.0,0.0,0.0,0.0,0.0,0.0,0.0,0.0,0.0,0.0,3.3998,3.3807,0.0,0.0,0.0,0.0,0.0,3.5847,3.6427,3.6991,3.6776,3.6561,0.0,0.0,3.5844,0.0,0.0,0.0,0.0,0.0,3.4448,3.4039,3.2449,3.1662,3.1069,2.9517,2.8998,2.8858,2.8493,2.825,2.7989,2.7625,2.7233,2.6765,2.6165,2.5508,2.4708,2.3872,2.3113,2.2492,2.2333,2.2306,2.2329,2.2512,2.2769,2.3001,2.3001,2.3504,2.3939,2.4014,2.4399,2.4903,2.5469,2.503,2.4957,2.5752,2.5166,2.4784,2.4913,2.3765,2.2619,2.1494,2.0728,2.0292,2.0292,2.0292,2.0056,1.958,1.9495,1.8862,1.7875,1.7709,1.7406,1.682,1.682,1.682,1.678,1.6148,1.5835,1.5779,1.5008,1.4641,1.4641,1.4641,1.4569,1.4514,1.4156,1.3823,1.3521,0.0,0.0,0.0,0.0,0.0,0.0,0.0,3.0264,3.1073,3.1883,3.2732,3.3539,3.4282,3.3712,3.36,0.0,0.0,0.0,0.0,0.0,0.0,0.0,0.0,0.0,0.0,0.0,0.0,3.3998,3.3807,0.0,0.0,0.0,0.0,0.0,0.0,3.6107,3.6156,3.6509,0.0,0.0,0.0,0.0,0.0,0.0,0.0,0.0,0.0,3.425,3.3874,3.2208,3.1421,3.0939,2.9359,2.8652,2.846,2.8396,2.8039,2.7625,2.7437,2.7011,2.6418,2.5879,2.5286,2.4549,2.3628,2.2909,2.2318,2.202,2.2049,2.2132,2.2298,2.2695,2.3001,2.3001,2.3798,2.4274,2.3897,2.4583,2.5157,2.5259,2.5127,2.5197,2.5782,2.5228,2.4894,2.4932,2.3286,2.1933,2.1095,2.0572,2.0292,2.0292,2.0292,2.0275,2.024,1.963,1.9171,1.869,1.817,1.7738,1.731,1.731,1.731,1.7269,1.6546,1.6234,1.6177,1.5235,1.4864,1.4864,1.4641,1.4569,1.4482,1.3878,1.3608,1.3489,0.0,0.0,0.0,0.0,0.0,0.0,2.9586,3.034,3.1205,3.1995,3.292,3.377,3.4519,3.435,3.4292,0.0,0.0,0.0,0.0,0.0,0.0,0.0,0.0,0.0,0.0,0.0,3.3972,3.3947,3.378,0.0,0.0,0.0,0.0,0.0,0.0,3.4924,3.5291,3.5776,0.0,0.0,0.0,0.0,0.0,0.0,0.0,0.0,0.0,0.0,3.3127,3.1358,3.0608,3.024,2.8979,2.8363,2.8152,2.8152,2.789,2.7524,2.7248,2.6803,2.6244,2.5632,2.5034,2.4292,2.3412,2.2887,2.2455,2.2182,2.2295,2.2446,2.2714,2.2881,2.3099,2.3394,2.3861,2.4255,2.4211,2.4956,2.5459,2.5564,2.5564,2.5742,2.6184,2.5421,2.4538,2.3753,2.2519,2.1582,2.1024,2.0555,2.0292,2.0292,2.0292,2.0292,2.0292,2.0056,1.9592,1.8835,1.859,1.8121,1.7392,1.7392,1.7392,1.735,1.6632,1.6319,1.6261,1.5445,1.507,1.507,1.4991,1.4856,1.4704,1.4058,1.3725,1.3481,0.0,0.0,0.0,0.0,0.0,2.9532,2.9625,3.0546,3.1468,3.2027,3.3106,3.4054,3.4562,3.4873,3.5033,3.4996,3.4752,0.0,0.0,0.0,0.0,0.0,0.0,0.0,0.0,0.0,3.3972,3.3895,3.3753,3.3661,0.0,0.0,3.3471,3.393,0.0,0.0,0.0,0.0,0.0,0.0,0.0,0.0,0.0,0.0,0.0,0.0,0.0,0.0,0.0,0.0,0.0,2.9637,2.8645,2.8152,2.7905,2.7905,2.769,2.7423,2.7041,2.6606,2.6082,2.5412,2.4738,2.3989,2.316,2.2722,2.2503,2.2332,2.2447,2.2672,2.2914,2.2927,2.3079,2.3492,2.3824,2.4068,2.4384,2.5072,2.5643,2.5743,2.5828,2.5909,2.635,2.5412,2.4265,2.3006,2.2101,2.1423,2.1015,2.0555,2.0292,2.0292,2.0292,2.0292,2.0292,2.0292,1.9826,1.8921,1.8921,1.844,1.7554,1.7554,1.7554,1.7521,1.6896,1.6563,1.6421,1.578,1.5383,1.5275,1.5204,1.5133,1.4917,1.4193,1.3858,1.3621,0.0,0.0,0.0,0.0,0.0,0.0,2.9683,3.1053,3.2083,3.2107,3.3618,3.4685,3.4598,3.5359,3.5893,3.5893,3.5108,0.0,0.0,0.0,0.0,0.0,0.0,0.0,0.0,0.0,3.3972,3.3895,3.3698,3.3605,3.3605,3.3268,3.3104,3.3122,0.0,0.0,0.0,0.0,0.0,0.0,0.0,0.0,0.0,0.0,0.0,0.0,0.0,0.0,0.0,0.0,0.0,0.0,0.0,2.7925,2.7625,2.7625,2.7423,2.713,2.6884,2.6447,2.5948,2.5174,2.4536,2.3826,2.2823,2.2495,2.2372,2.2332,2.2447,2.2672,2.2914,2.2852,2.2864,2.3349,2.3588,2.3907,2.4147,2.4986,2.5565,2.5482,2.5653,2.5909,2.6051,2.5044,2.3965,2.2988,2.2101,2.1423,2.1015,2.0555,2.0292,2.0292,2.0292,2.0292,2.0292,2.0292,1.9915,1.917,1.917,1.8776,1.7951,1.7951,1.7951,1.7934,1.7629,1.7261,1.6817,1.6294,1.585,1.5505,1.5275,1.5204,1.5114,1.4387,1.3991,1.3761,0.0,0.0,0.0,0.0,0.0,0.0,0.0,3.1034,3.2103,3.2096,3.3625,3.4687,3.4609,3.5378,3.5901,3.5916,3.5653,0.0,0.0,0.0,0.0,0.0,0.0,0.0,0.0,0.0,0.0,3.378,3.3643,3.3549,3.3452,3.3208,3.3055,3.2948,3.2971,3.2842,0.0,0.0,0.0,0.0,0.0,0.0,3.3089,0.0,0.0,0.0,0.0,0.0,0.0,0.0,0.0,0.0,0.0,0.0,0.0,2.713,2.6974,2.687,2.6525,2.6028,2.5481,2.4808,2.4118,2.3412,2.2653,2.2526,2.2467,2.2207,2.2562,2.29,2.2968,2.3123,2.3349,2.3835,2.3998,2.4219,2.4588,2.5361,2.573,2.5523,2.5822,2.5737,2.491,2.4316,2.3523,2.2557,2.1889,2.1329,2.1006,2.0736,2.0473,2.0292,2.0292,2.0292,2.0292,2.0292,2.0043,1.9555,1.9299,1.8905,1.84,1.8151,1.804,1.8014,1.7638,1.7261,1.6893,1.6442,1.6067,1.5726,1.5655,1.5505,1.5367,1.4882,1.4405,1.3991,0.0,0.0,0.0,0.0,0.0,0.0,0.0,3.1221,3.2214,3.2552,3.3797,3.4779,3.5052,3.5844,3.6464,3.6756,3.6752,0.0,0.0,0.0,0.0,0.0,0.0,0.0,0.0,0.0,0.0,0.0,0.0,3.352,3.3411,3.3196,3.3024,3.2884,3.2705,3.2438,0.0,0.0,0.0,0.0,0.0,0.0,3.2149,0.0,0.0,0.0,0.0,0.0,0.0,0.0,0.0,0.0,0.0,0.0,0.0,0.0,2.65,2.634,2.615,2.5701,2.5077,2.4394,2.3695,2.3005,2.2285,2.232,2.2366,2.2045,2.2551,2.3056,2.3166,2.322,2.3484,2.4057,2.4093,2.4347,2.4964,2.542,2.5736,2.5724,2.5615,2.5265,2.4345,2.3702,2.3055,2.2346,2.1699,2.1293,2.0997,2.0826,2.0564,2.0292,2.0292,2.0292,2.0292,2.0292,2.0103,1.9735,1.9358,1.8965,1.8571,1.8203,1.804,1.8023,1.7783,1.7389,0.0,1.6661,1.6268,1.5805,1.5805,1.5726,1.5604,1.5223,1.479,1.4413,0.0,0.0,0.0,0.0,0.0,0.0,0.0,3.1536,3.2418,3.3285,3.4095,3.4902,3.5728,3.6573,3.7376,3.8034,0.0,0.0,0.0,0.0,0.0,0.0,0.0,0.0,0.0,0.0,0.0,3.3698,3.3633,3.352,3.3364,0.0,3.306,3.2973,3.276,3.2508,0.0,0.0,0.0,0.0,0.0,0.0,0.0,0.0,0.0,0.0,0.0,0.0,0.0,0.0,0.0,0.0,0.0,0.0,0.0,0.0,0.0,0.0,0.0,2.5286,2.4765,2.3917,2.3292,2.2653,2.1839,2.1981,0.0,2.1838,2.2396,2.3079,2.3328,2.3214,2.3387,2.4063,2.4075,2.4229,2.5109,2.5347,2.5583,2.6048,2.5178,2.4536,2.4231,2.3335,2.2592,2.2291,2.1771,2.1293,2.0997,2.0826,2.0564,2.0292,2.0292,2.0292,2.0292,2.0292,2.0121,1.9778,1.9367,1.8982,1.8614,1.822,1.804,1.804,1.804,1.7612,1.6918,1.6918,1.6482,1.5805,1.5805,1.5805,1.5754,1.5394,1.5172,1.4959,0.0,0.0,0.0,0.0,0.0,0.0,0.0,0.0,0.0,0.0,3.4073,3.4677,3.4883,3.6171,3.7079,0.0,0.0,0.0,0.0,0.0,0.0,0.0,0.0,0.0,0.0,0.0,0.0,3.3615,3.3549,3.3404,3.3165,3.3073,0.0,0.0,3.344,0.0,0.0,0.0,0.0,0.0,0.0,0.0,0.0,0.0,0.0,0.0,2.7953,2.7391,0.0,0.0,0.0,0.0,0.0,0.0,0.0,0.0,2.5135,2.5216,2.4751,0.0,2.4118,2.3424,2.2689,2.2013,0.0,2.1718,2.1907,2.1838,2.2324,2.2929,2.3328,2.3413,2.3608,2.4115,2.4336,2.4581,2.515,2.5268,2.538,2.564,2.4844,2.399,2.3398,2.2997,2.2472,2.1896,2.1706,2.1463,2.0997,2.0997,2.0736,2.0292,2.0292,2.0292,2.0292,2.0292,2.0249,2.0155,1.9487,1.9127,1.9007,1.834,1.804,1.804,1.804,1.7612,1.6918,1.6918,1.6482,1.5805,1.5805,1.5805,1.5788,1.5694,1.5471,1.5138,0.0,0.0,0.0,0.0,0.0,0.0,0.0,0.0,0.0,0.0,0.0,0.0,0.0,0.0,0.0,0.0,0.0,0.0,0.0,0.0,0.0,0.0,0.0,0.0,0.0,0.0,0.0,0.0,0.0,3.3316,0.0,0.0,0.0,0.0,0.0,0.0,0.0,0.0,0.0,0.0,3.0485,0.0,0.0,0.0,0.0,0.0,2.7026,2.6423,0.0,2.5435,2.5029,2.4687,0.0,0.0,0.0,0.0,2.4082,2.4262,2.3668,2.3703,2.3721,2.3065,2.2334,2.1773,2.1574,2.1632,2.1834,2.1914,2.2331,2.2843,2.3385,2.3488,2.3646,2.4242,2.447,2.4619,2.4808,2.4987,2.4983,2.4849,2.4127,2.3496,2.2994,2.2535,2.206,2.175,2.1741,2.1463,2.0997,2.0997,2.0817,2.0292,2.0292,2.0292,2.0292,2.0292,2.0292,2.0283,1.953,1.917,1.9144,1.8382,1.804,1.804,1.804,1.7612,1.6918,1.6918,1.6482,1.5805,1.5805,1.5805,1.5805,1.5805,1.5668,1.5489,0.0,0.0,0.0,0.0,0.0,0.0,0.0,0.0,0.0,0.0,0.0,0.0,0.0,0.0,0.0,0.0,0.0,0.0,0.0,0.0,0.0,0.0,0.0,0.0,0.0,0.0,0.0,0.0,0.0,0.0,0.0,0.0,3.4001,0.0,0.0,0.0,0.0,0.0,0.0,0.0,3.0316,0.0,0.0,0.0,0.0,0.0,0.0,0.0,0.0,2.4732,2.435,2.4042,2.3671,0.0,0.0,0.0,0.0,0.0,2.2572,2.2824,2.3144,2.2628,2.2085,2.1632,2.1561,2.1687,2.1848,2.1977,2.2348,2.2851,2.3429,2.3559,2.3813,2.4405,2.4516,2.4518,2.4454,2.4555,2.451,2.405,2.341,2.2881,2.2609,2.2023,2.1741,2.1741,2.1651,2.1463,2.0997,2.0997,2.0727,2.0292,2.0292,2.0292,2.0292,2.0292,2.0292,2.0283,1.953,1.917,1.9144,1.8382,1.804,1.804,1.804,1.7612,1.6918,1.6918,1.6482,1.5805,1.5805,1.5805,1.5805,1.5805,1.5805,1.5805,0.0,0.0,0.0,0.0,0.0,0.0,0.0,0.0,0.0,0.0,0.0,0.0,0.0,0.0,0.0,0.0,0.0,0.0,0.0,0.0,0.0,0.0,0.0,0.0,0.0,0.0,0.0,0.0,0.0,0.0,3.2965,3.3621,3.4429,3.5329,0.0,0.0,0.0,0.0,0.0,0.0,3.0231,0.0,0.0,0.0,0.0,0.0,0.0,0.0,0.0,2.3213,2.2701,2.2309,2.189,0.0,0.0,0.0,0.0,0.0,2.2035,2.1962,2.1932,2.1992,2.1801,2.1561,2.1452,2.1677,2.1966,2.197,2.2392,2.2934,2.3402,2.3669,2.3939,2.4457,2.4697,2.471,2.4227,2.4018,2.3796,2.3515,2.2792,2.2279,2.219,2.1866,2.1741,2.1741,2.1571,2.1293,2.0997,2.0826,2.0654,2.0292,2.0292,2.0292,2.0292,2.0292,2.0292,2.0283,1.953,1.917,1.9144,1.8382,1.804,1.804,1.804,1.7612,1.6918,1.6918,1.6482,1.5805,1.5805,1.5805,1.5805,1.5805,1.5805,1.5805,0.0,0.0,0.0,0.0,0.0,0.0,0.0,0.0,0.0,0.0,0.0,0.0,0.0,0.0,0.0,0.0,0.0,0.0,0.0,0.0,0.0,0.0,3.6159,3.5708,3.567,0.0,0.0,0.0,0.0,3.306,3.2902,3.3827,3.4971,3.6168,0.0,3.5081,3.3639,0.0,0.0,3.0485,0.0,0.0,0.0,0.0,0.0,0.0,0.0,0.0,0.0,0.0,2.1774,2.1076,2.0636,0.0,0.0,0.0,0.0,0.0,2.1022,2.108,2.1114,2.1409,2.1548,2.1598,2.1461,2.1707,2.2058,2.2349,2.2653,2.3024,2.3585,2.3732,2.376,2.4029,2.4109,2.3977,2.3614,2.3349,2.3092,2.2725,2.2298,2.2008,2.1919,2.1731,2.1741,2.1741,2.1472,2.1293,2.0997,2.0826,2.0564,2.0292,2.0292,2.0292,2.0292,2.0292,2.0292,2.0283,1.953,1.917,1.9144,1.8382,1.804,1.804,1.804,1.7612,1.6918,1.6918,1.6482,1.5805,1.5805,1.5805,1.5805,1.5805,1.5805,1.5805,0.0,0.0,0.0,0.0,0.0,0.0,0.0,0.0,0.0,0.0,0.0,0.0,0.0,0.0,0.0,0.0,0.0,0.0,0.0,0.0,3.627,3.5962,3.5347,3.4971,3.4971,0.0,3.3364,3.3304,3.3073,3.3112,3.3357,3.4181,3.5325,3.6702,0.0,3.5307,3.3598,3.3322,3.2083,3.0333,0.0,0.0,0.0,0.0,0.0,0.0,0.0,0.0,0.0,0.0,0.0,0.0,0.0,0.0,0.0,1.8522,1.8992,1.9685,2.0003,2.0204,2.045,2.1019,2.1393,2.1587,2.1541,2.1804,2.2242,2.2713,2.2809,2.2984,2.3639,2.3698,2.3618,2.3694,2.358,2.3319,2.3057,2.2794,2.2539,2.2097,2.2008,2.1919,2.1741,2.1649,2.1505,2.1505,2.1157,2.0971,2.0775,2.0604,2.0387,2.0292,2.0292,2.0292,2.0292,2.0292,2.0249,2.0155,1.9487,1.9127,1.9016,1.834,1.804,1.804,1.804,1.7612,1.6918,1.6918,1.6482,1.5805,1.5805,1.5805,1.5805,1.5805,1.5805,1.5797,0.0,0.0,0.0,0.0,0.0,0.0,0.0,0.0,0.0,0.0,0.0,0.0,0.0,0.0,0.0,0.0,0.0,0.0,0.0,0.0,3.5776,3.4929,3.4739,3.4631,3.4631,3.3839,3.3274,3.3028,3.2948,3.3501,3.4676,3.4563,3.5304,3.6702,3.6353,3.524,3.3556,3.3134,3.1895,3.0146,2.9694,0.0,0.0,0.0,0.0,0.0,0.0,0.0,0.0,0.0,0.0,0.0,0.0,0.0,1.8006,1.7909,1.7894,1.8166,1.9183,1.9488,1.9742,2.084,2.1417,2.1724,2.1549,2.1919,2.2423,2.2699,2.2822,2.2941,2.3431,2.3689,2.3714,2.358,2.3319,2.3057,2.2891,2.2451,2.2097,2.2097,2.1919,2.1741,2.1741,2.1383,2.1076,2.0902,2.0309,2.0015,2.0202,1.9955,1.9941,2.0283,2.0292,2.0292,2.0292,2.0292,2.0121,1.9778,1.9367,1.8982,1.8614,1.822,1.804,1.804,1.804,1.7612,1.6918,1.6918,1.6482,1.5805,1.5805,1.5805,1.5805,1.5805,1.5805,1.5797,0.0,0.0,0.0,0.0,0.0,0.0,0.0,0.0,0.0,0.0,0.0,0.0,0.0,0.0,0.0,0.0,0.0,0.0,0.0,0.0,3.4273,3.3876,3.3737,3.3628,3.3535,3.3296,3.3073,3.2948,3.2755,3.3104,3.4005,3.4312,3.4662,3.5094,3.5214,3.4329,3.2688,3.2276,3.1308,3.006,2.9665,2.9136,0.0,0.0,0.0,0.0,0.0,0.0,0.0,0.0,1.9146,1.7913,0.0,1.7095,1.692,1.69,1.718,1.7725,1.8951,1.9119,1.9271,2.0599,2.113,2.1377,2.1586,2.2168,2.2667,2.2822,2.3033,2.3317,2.3433,2.3471,2.3319,2.3067,2.2882,2.2618,2.2362,2.2185,2.2008,2.183,2.1502,2.1346,2.1346,2.0816,2.0494,2.0418,1.9933,1.9659,1.9713,1.9694,1.9804,1.9949,2.0172,2.0292,2.0292,2.0069,1.9761,1.9384,1.9247,1.8965,1.8571,1.8203,1.804,1.804,1.804,1.7612,1.6918,1.6918,1.6482,1.5805,1.5805,1.5805,1.5805,1.5805,1.5726,1.5576,0.0,0.0,0.0,0.0,0.0,0.0,0.0,0.0,0.0,0.0,0.0,0.0,0.0,0.0,0.0,0.0,0.0,0.0,0.0,0.0,3.3214,3.3104,3.2993,3.2898,3.2787,3.2787,3.277,3.282,3.2574,3.2792,3.3422,3.3778,3.3986,0.0,3.4226,3.3516,3.2101,3.1672,3.0871,2.9798,2.9425,2.8779,0.0,0.0,0.0,0.0,0.0,0.0,0.0,0.0,1.8211,1.6839,0.0,0.0,1.6042,1.6165,1.6528,1.7189,1.8541,1.8687,1.8946,2.0463,2.0845,2.0965,2.1555,2.2122,2.2527,2.2646,2.2948,2.3098,2.2977,2.2746,2.2476,2.2303,2.2044,2.187,2.1627,2.153,2.1443,2.118,2.0916,2.0743,2.0743,2.0229,1.9928,1.9844,1.9384,1.919,1.9219,1.9436,1.9615,1.9735,2.0103,2.0292,2.0292,1.9924,1.9555,1.917,1.905,1.8785,1.8408,1.8151,1.804,1.804,1.804,1.7612,1.6918,1.6918,1.6482,1.5805,1.5805,1.5805,1.5797,1.5726,1.5647,1.5505,0.0,0.0,0.0,0.0,0.0,0.0,0.0,0.0,0.0,0.0,0.0,0.0,0.0,0.0,0.0,0.0,0.0,0.0,0.0,3.2483,3.2816,3.2684,3.2621,3.2573,3.2489,3.237,3.2386,3.2606,3.2473,3.2669,3.3186,3.298,0.0,0.0,3.3581,3.2866,3.1968,3.15,3.0591,2.9425,2.892,2.7982,2.6849,0.0,0.0,0.0,0.0,0.0,0.0,0.0,1.714,1.5756,0.0,0.0,0.0,1.5745,1.6018,1.6589,1.7867,1.819,1.8647,2.0552,2.0726,2.0669,2.16,2.1807,2.1922,2.2423,2.2522,2.2301,2.1902,2.1466,2.1182,2.1182,2.1024,2.0782,2.0624,2.0371,2.0108,1.992,1.992,1.9911,1.9911,1.9573,1.9185,1.9038,1.858,1.8438,1.8562,1.8956,1.9341,1.9727,2.0095,2.0283,2.0283,1.9924,1.9547,1.9162,1.8768,1.8391,1.804,1.804,1.804,1.804,1.804,1.7612,1.6918,1.691,1.6473,1.5805,1.5805,1.5805,1.5797,1.5576,1.5505,1.5434,0.0,0.0,0.0,0.0,0.0,0.0,0.0,0.0,0.0,0.0,0.0,0.0,0.0,0.0,0.0,0.0,0.0,0.0,0.0,3.0954,3.1392,3.1358,3.176,3.1949,3.1949,3.1821,3.1912,3.2249,3.2091,3.2069,3.2073,3.2492,0.0,3.1947,0.0,3.1674,3.0714,3.0342,2.9797,2.9134,2.8155,2.7362,2.6519,0.0,0.0,0.0,0.0,0.0,0.0,0.0,0.0,0.0,1.5416,0.0,1.5307,1.5879,1.6342,1.6896,1.7903,1.8311,1.8805,2.0198,2.0359,2.0307,2.0831,2.1348,2.1729,2.182,2.1704,2.153,2.1212,2.095,2.0698,2.0503,2.0334,2.0183,2.0099,2.0014,1.9929,1.992,1.968,1.9436,1.9436,1.9,1.8609,1.8617,1.8262,1.8164,1.8194,1.8554,1.8939,1.9333,1.971,1.9906,1.9906,1.953,1.9144,1.8759,1.8382,1.8143,1.804,1.804,1.804,1.804,1.804,1.7612,1.6884,1.6353,1.6002,1.5805,1.5805,1.5726,1.5576,1.5505,1.5292,1.5007,0.0,0.0,0.0,0.0,0.0,0.0,0.0,0.0,0.0,0.0,0.0,0.0,0.0,0.0,0.0,0.0,0.0,0.0,0.0,0.0,3.0307,3.0324,3.0929,3.1244,3.1206,3.1162,3.1218,3.1376,3.1545,3.1562,3.1368,0.0,3.1483,3.0831,0.0,3.0488,2.9507,2.9099,2.8521,2.7859,2.6995,2.6208,2.539,0.0,0.0,0.0,0.0,0.0,0.0,0.0,0.0,0.0,1.5624,0.0,1.5485,1.5892,1.6416,1.7021,1.7756,1.8301,1.8951,1.993,2.0133,2.0004,2.0091,2.0651,2.1118,2.0971,2.0853,2.0605,2.0283,1.9998,1.9806,1.9623,1.9457,1.9383,1.9291,1.9291,1.9291,1.9125,1.8924,1.8784,1.8784,1.8412,1.8282,1.8282,1.8112,1.804,1.804,1.8382,1.8691,1.893,1.9316,1.9513,1.9513,1.9136,1.8819,1.8579,1.8211,1.804,1.804,1.804,1.804,1.7942,1.7723,1.7338,1.6858,1.6114,1.5726,1.5655,1.5655,1.5576,1.5355,1.5292,1.5078,1.4792,0.0,0.0,0.0,0.0,0.0,0.0,0.0,0.0,0.0,0.0,0.0,0.0,0.0,0.0,0.0,0.0,0.0,0.0,0.0,0.0,2.9198,2.933,3.0029,3.0402,3.0335,3.0335,3.026,3.0067,3.0834,3.1067,0.0,0.0,3.0468,3.0186,0.0,2.92,2.8275,2.7758,2.6978,2.6032,2.5525,2.4717,2.3739,2.322,0.0,0.0,0.0,0.0,0.0,0.0,0.0,0.0,1.5931,1.5839,1.5875,1.5959,1.6493,1.7081,1.741,1.8165,1.8965,1.9656,1.9861,1.9764,1.9376,1.9836,2.0276,1.987,1.9779,1.9698,1.9297,1.885,1.8612,1.8612,1.8612,1.8531,1.8362,1.8282,1.8201,1.7951,1.7959,1.7951,1.7951,1.7951,1.7959,1.804,1.804,1.804,1.804,1.8357,1.8554,1.8588,1.893,1.9119,1.9119,1.8768,1.8571,1.8528,1.8194,1.804,1.804,1.804,1.804,1.7997,1.7244,1.6918,1.6858,1.6105,1.5655,1.5505,1.5505,1.5355,1.5133,1.4935,1.4721,1.4569,0.0,0.0,0.0,0.0,0.0,0.0,0.0,0.0,0.0,0.0,0.0,0.0,0.0,0.0,0.0,0.0,0.0,0.0,0.0,0.0,2.6697,2.7243,2.8494,2.9132,2.9088,2.9088,2.8819,2.825,2.9685,3.0054,0.0,0.0,0.0,2.7959,0.0,2.7249,2.6667,2.6352,2.5861,2.5227,2.4287,2.3631,2.309,2.2021,2.1274,0.0,0.0,0.0,0.0,0.0,0.0,0.0,1.6168,1.5977,1.5815,1.6413,1.6839,1.7244,1.7698,1.8203,1.8692,1.9206,1.9392,1.9427,1.9362,1.9056,1.8887,1.8977,1.8807,1.8646,1.8322,1.8091,1.787,1.7716,1.7716,1.7635,1.7635,1.7635,1.7554,1.7554,1.7554,1.7627,1.7781,1.7781,1.787,1.7951,1.804,1.804,1.804,1.8108,1.8288,1.8579,1.8665,1.8716,1.8716,1.8631,1.8442,1.8151,1.8074,1.804,1.804,1.804,1.804,1.7997,1.7244,1.6918,1.6858,1.5952,1.5505,1.5505,1.5355,1.5141,1.4935,1.4713,1.4569,1.4353,0.0,0.0,0.0,0.0,0.0,0.0,0.0,0.0,0.0,0.0,0.0,0.0,0.0,0.0,0.0,0.0,0.0,0.0,0.0,0.0,0.0,2.6181,2.7261,2.7719,2.7397,2.7397,2.7111,2.6473,2.7164,2.7617,0.0,0.0,0.0,2.6551,0.0,2.5864,2.5167,2.4798,2.4247,2.3531,2.2808,2.2284,2.1964,2.1126,2.0623,2.022,1.9695,0.0,0.0,0.0,0.0,0.0,0.0,0.0,1.5956,1.6475,1.6941,1.7269,1.7646,1.8158,1.8576,1.8924,1.9152,1.9222,1.8745,1.8285,1.7925,1.7854,1.7854,1.7715,1.7291,1.7021,1.6872,1.6801,1.6801,1.6858,1.7023,1.7128,1.7194,1.7375,1.7392,1.7473,1.7546,1.7546,1.7627,1.787,1.787,1.787,1.7951,1.804,1.8126,1.8314,1.8323,1.8323,1.8323,1.8323,1.8228,1.804,1.804,1.804,1.804,1.804,1.7937,1.7732,1.7081,1.6665,1.6461,1.566,1.5284,1.5221,1.4999,1.4784,1.4649,1.4425,1.4209,1.3928,0.0,0.0,0.0,0.0,0.0,0.0,0.0,0.0,0.0,0.0,0.0,0.0,0.0,0.0,0.0,0.0,0.0,0.0,0.0,0.0,0.0,0.0,2.5718,2.5871,2.5481,2.5466,2.5162,2.451,2.4316,0.0,0.0,0.0,0.0,2.5136,0.0,0.0,0.0,2.3169,2.249,2.1746,2.1361,2.1068,2.0795,2.0409,2.008,1.9772,1.9291,1.8869,1.8398,1.7822,0.0,0.0,0.0,0.0,1.611,1.6467,1.6755,1.7143,1.7455,1.8037,1.8471,1.8572,1.883,1.8885,1.8098,1.7618,1.7276,1.676,1.6785,1.6821,1.6259,1.6073,1.5936,1.5936,1.5936,1.6033,1.6307,1.6512,1.6705,1.7008,1.7179,1.722,1.722,1.7277,1.7473,1.7619,1.7619,1.7708,1.7951,1.7951,1.7951,1.804,1.804,1.804,1.804,1.804,1.804,1.804,1.804,1.804,1.804,1.7951,1.7746,1.7449,1.6835,1.6405,1.597,1.5433,1.4999,1.4864,1.4641,1.4497,1.4353,1.4065,1.3775,1.3499,0.0,0.0,0.0,0.0,0.0,0.0,0.0,0.0,0.0,0.0,0.0,0.0,0.0,0.0,0.0,0.0,0.0,0.0,1.9813,0.0,0.0,2.2237,2.2881,2.327,2.3307,2.3294,2.2943,2.218,2.2129,0.0,0.0,0.0,0.0,2.2587,0.0,0.0,2.1732,2.1442,2.1122,2.0759,2.0472,2.0258,2.0093,1.9811,1.9552,1.9239,1.8815,1.8452,1.8084,1.7545,1.7099,0.0,0.0,0.0,1.5889,1.6468,1.6607,1.6629,1.7302,1.7726,1.7912,1.8156,1.819,1.8168,1.77,1.7274,1.6657,1.5646,1.5691,1.5891,1.5758,1.5451,1.5227,1.5227,1.5227,1.5242,1.5289,1.5459,1.563,1.5677,1.6103,1.6437,1.6604,1.696,1.7221,1.7392,1.7473,1.7546,1.77,1.77,1.7781,1.7951,1.804,1.804,1.804,1.804,1.804,1.804,1.804,1.804,1.7951,1.7781,1.7586,1.7232,1.6766,1.6321,1.5814,1.5153,1.4792,1.4641,1.4497,1.4281,1.4057,1.371,1.3564,1.3419,0.0,0.0,0.0,0.0,0.0,0.0,0.0,0.0,0.0,0.0,0.0,0.0,0.0,0.0,0.0,1.7895,1.8058,1.8263,1.8507,1.9372,2.0,2.0217,2.1037,2.1365,2.1037,2.1024,2.0693,2.0035,0.0,0.0,0.0,2.004,2.0602,0.0,0.0,0.0,2.0584,2.0346,2.0093,1.9888,1.9695,1.9552,1.9396,1.9251,1.9105,1.8946,1.8452,1.8139,1.781,1.7312,1.6864,1.6545,1.6202,0.0,0.0,0.0,1.6392,1.6446,1.7156,1.7474,1.7622,1.7433,1.7543,1.7456,1.6927,1.6538,1.6078,1.5229,1.4903,1.4797,1.4797,1.4582,1.4373,1.4373,1.4373,1.4434,1.4607,1.479,1.5019,1.5211,1.5522,1.5842,1.6103,1.6421,1.6758,1.7204,1.7221,1.7302,1.7546,1.7546,1.7627,1.787,1.787,1.787,1.804,1.804,1.804,1.804,1.804,1.7951,1.7861,1.7578,1.7204,1.6842,1.6445,1.5905,1.5235,1.4784,1.4577,1.4425,1.4065,1.3855,1.371,1.3339,1.3046,1.2746,0.0,0.0,0.0,0.0,0.0,0.0,0.0,0.0,0.0,0.0,0.0,0.0,0.0,0.0,0.0,0.0,1.6641,1.6845,1.7213,1.7778,1.8216,1.8396,1.9102,1.9295,1.8899,1.8832,1.8646,1.8124,0.0,0.0,1.7605,1.7508,1.7966,0.0,1.9263,1.9515,1.9527,1.9331,1.9226,1.9174,1.9028,1.8987,1.8893,1.8786,1.8691,1.8595,1.8343,1.8002,1.7689,1.7391,1.6958,1.6424,1.6191,1.5751,0.0,0.0,0.0,1.6384,1.6971,1.718,1.7224,1.6964,1.6984,1.6914,1.6321,1.5964,1.5593,1.4832,1.4387,1.4057,1.3992,1.3855,1.3717,1.3717,1.3717,1.3799,1.403,1.429,1.4463,1.4714,1.505,1.5312,1.5637,1.5992,1.6349,1.6862,1.6976,1.7057,1.731,1.731,1.7465,1.7691,1.77,1.7781,1.804,1.804,1.804,1.804,1.7951,1.787,1.7683,1.725,1.6813,1.6446,1.6051,1.5436,1.4721,1.4505,1.4281,1.4145,1.371,1.3419,1.3273,1.29,1.2526,1.2305,0.0,0.0,0.0,0.0,0.0,0.0,0.0,0.0,0.0,0.0,0.0,0.0,1.5001,1.5001,1.5059,1.5284,1.5284,1.5449,1.5718,1.5931,1.6181,1.6457,1.6591,0.0,1.6832,1.6821,1.6765,0.0,0.0,0.0,1.567,1.5779,1.5593,1.5279,1.7154,1.8147,1.8387,1.8267,1.8375,1.8614,1.8518,1.8518,1.8614,1.8614,1.8398,1.8153,1.8453,1.828,1.7893,1.8087,1.7528,1.6757,1.6627,1.594,1.5243,0.0,0.0,0.0,1.6789,1.6769,1.6659,1.6893,1.6791,1.6525,1.5946,1.5782,1.5446,1.4374,1.4145,1.3992,1.3564,1.3492,1.3492,1.3492,1.3492,1.3499,1.3521,1.374,1.3827,1.3842,1.4334,1.4797,1.5142,1.5614,1.602,1.6445,1.6648,1.6812,1.7139,1.7139,1.7294,1.77,1.77,1.7781,1.804,1.804,1.804,1.804,1.7781,1.77,1.7683,1.6932,1.6337,1.5972,1.5632,1.5129,1.4425,1.4433,1.4072,1.3564,1.3492,1.3273,1.29,1.2452,1.2298,1.2157,0.0,0.0,0.0,0.0,0.0,0.0,0.0,0.0,0.0,0.0,0.0,0.0,0.0,1.3932,1.3932,1.4103,1.4103,1.4163,1.4264,1.4501,1.4737,1.4845,1.5099,1.5216,1.5264,1.5264,1.5129,0.0,0.0,1.4532,1.4019,1.4074,1.4051,1.4014,1.5542,1.6337,1.6539,1.6966,1.7272,1.7497,1.7893,1.8127,1.8216,1.8661,1.8621,1.8464,1.8672,1.8555,1.8158,1.7975,1.7492,1.7052,1.6918,1.6191,1.5505,1.561,1.5937,1.6404,1.6798,1.6691,1.6438,1.6519,1.6199,1.5842,1.5474,1.5339,1.5017,1.4232,1.4129,1.3992,1.3564,1.3492,1.3492,1.3492,1.3492,1.3492,1.3492,1.3572,1.3645,1.3645,1.3895,1.4237,1.4554,1.4851,1.5382,1.602,1.6147,1.6403,1.6804,1.6812,1.6976,1.7294,1.7465,1.7708,1.804,1.804,1.784,1.7531,1.7443,1.7079,1.6596,1.6081,1.5627,1.5265,1.4909,1.4615,1.4353,1.4,1.371,1.3492,1.3046,1.2753,1.2452,1.2224,1.1855,1.1484,0.0,0.0,0.0,0.0,0.0,0.0,0.0,0.0,0.0,1.3208,0.0,0.0,0.0,0.0,1.2915,1.2783,1.2707,1.2658,1.2662,1.2932,1.3101,1.3288,1.3602,1.3782,1.3923,1.3983,1.3788,0.0,0.0,0.0,0.0,1.2635,1.2672,1.2653,1.3682,1.4512,1.5195,1.5903,1.6375,1.6729,1.7433,1.7845,1.8137,1.8578,1.8713,1.8753,1.9006,1.8877,1.8518,1.8249,1.7818,1.7379,1.7199,1.6452,1.5754,1.5845,1.6101,1.6404,1.6798,1.663,1.6272,1.6272,1.5921,1.5426,1.5275,1.507,1.4721,1.4201,1.4129,1.3992,1.3564,1.3492,1.3492,1.3492,1.3492,1.3492,1.3492,1.3492,1.3492,1.3492,1.3645,1.3844,1.4156,1.4419,1.479,1.5504,1.5637,1.5897,1.6212,1.63,1.6461,1.6701,1.6941,1.7179,1.7417,1.7417,1.7212,1.6899,1.6829,1.6542,1.5988,1.5474,1.5165,1.486,1.4363,1.4065,1.4072,1.3637,1.3346,1.3127,1.2673,1.2378,1.2157,1.1855,1.1409,1.1037,0.0,0.0,0.0,0.0,0.0,0.0,0.0,0.0,1.2736,1.2482,0.0,0.0,0.0,0.0,0.0,1.1376,1.1152,1.1012,1.0937,1.1084,1.1337,1.1721,1.203,1.2376,1.2724,1.2854,1.2734,0.0,0.0,0.0,0.0,0.0,1.1462,1.1124,1.1628,1.2814,1.4397,1.5127,1.5813,1.6396,1.7071,1.771,1.8417,1.8428,1.8636,1.8967,1.9266,1.9178,1.8924,1.9052,1.8568,1.782,1.7504,1.6691,1.5984,1.6202,1.6321,1.6404,0.0,0.0,0.0,1.6272,1.5921,1.5426,1.5204,1.507,1.4721,1.4201,1.4129,1.3992,1.3564,1.3492,1.3492,1.3492,1.3492,1.3492,1.3492,1.3492,1.3492,1.3492,1.3492,1.3623,1.3938,1.4178,1.4456,1.4787,1.5134,1.5381,1.5397,1.5605,1.5758,1.5996,1.6209,1.6277,1.6277,1.6277,1.6269,1.6261,1.6049,1.598,1.5956,1.5233,1.486,1.4844,1.3925,1.3492,1.3499,1.3499,1.3119,1.2599,1.2378,1.2157,1.1929,1.1335,1.1111,1.0962,0.0,0.0,0.0,0.0,0.0,0.0,1.2428,1.2313,1.2182,0.0,0.0,0.0,1.1553,1.1095,1.0613,1.0221,0.9959,0.9805,0.9782,0.9948,1.0163,1.0356,1.053,1.0806,1.115,1.115,1.1042,1.0814,0.0,0.0,0.0,0.0,0.0,0.0,1.1276,1.2097,1.3223,1.4387,1.512,1.5722,1.683,1.7665,1.83,1.8655,1.8978,1.9277,1.9286,1.9196,1.8965,1.8623,1.8257,1.7841,1.7064,1.6628,1.6421,1.6352,1.6321,1.6404,1.6798,0.0,0.0,0.0,0.0,0.0,1.5204,1.4919,1.4569,1.4201,1.4129,1.3992,1.3564,1.3492,1.3492,1.3492,1.3492,1.3492,1.3492,1.3492,1.3492,1.3492,1.3492,1.3536,1.3623,1.3697,1.3903,1.4373,1.4706,1.4972,1.5381,1.5605,1.5758,1.5996,1.6065,1.6141,1.6277,1.6277,1.6078,1.5749,1.5674,1.5322,1.4862,1.4613,1.4356,1.4064,1.3682,1.3346,1.3046,1.29,1.2673,1.2378,1.2157,1.1781,1.1335,1.1186,1.0738,1.0143,0.0,0.0,0.0,0.0,0.0,1.2428,1.1872,1.1747,1.1498,0.0,0.0,0.0,1.0598,0.9842,0.926,0.8963,0.8534,0.8338,0.8288,0.8458,0.8676,0.8896,0.9188,0.9475,0.984,1.002,0.9981,0.9728,0.0,0.0,0.0,0.0,0.0,0.0,0.0,1.2175,1.3009,1.4165,1.4945,1.552,1.6834,1.773,1.8256,1.8818,1.9184,1.9362,1.9225,1.9054,1.8787,1.8337,1.793,1.755,1.7032,1.6822,1.6696,1.656,1.656,1.6615,1.6697,1.6551,1.6272,1.6202,0.0,0.0,1.5204,1.4919,1.4497,1.4201,1.4129,1.3992,1.3564,1.3492,1.3492,1.3492,1.3492,1.3492,1.3492,1.3492,1.3492,1.3492,1.3492,1.3492,1.3492,1.3492,1.3645,1.397,1.4207,1.4587,1.502,1.5178,1.5319,1.5402,1.5402,1.5468,1.5609,1.5609,1.5438,1.5089,1.5089,1.4839,1.4353,1.4217,1.4,1.3645,1.3346,1.3046,1.2599,1.2452,1.2305,1.215,1.1781,1.1409,1.1037,1.0738,1.0218,0.9695,0.0,0.0,1.2867,1.256,1.2251,1.1809,1.124,1.1059,1.0807,0.0,1.011,0.9913,0.9326,0.8572,0.7955,0.7671,0.7187,0.685,0.6756,0.6918,0.7116,0.7538,0.7946,0.8395,0.8689,0.9099,0.9155,0.8958,0.0,0.0,0.0,0.0,0.0,0.0,0.0,0.0,1.3433,1.4398,1.5093,1.5669,1.6964,1.7765,1.8243,1.888,1.9157,1.9218,1.9075,1.8721,1.8375,1.7998,1.752,1.7097,1.7097,1.6968,1.683,1.683,1.683,1.676,1.6612,1.6403,1.6272,1.6132,1.563,0.0,1.5204,1.4919,1.4497,1.4201,1.4099,1.3947,1.3557,1.347,1.3455,1.3492,1.3492,1.3492,1.3492,1.3492,1.3492,1.3492,1.3492,1.3492,1.3492,1.3492,1.3492,1.3492,1.3848,1.4274,1.4569,1.4569,1.4569,1.4569,1.4569,1.4569,1.4569,1.4569,1.4569,1.4569,1.4425,1.4361,1.4289,1.3935,1.3645,1.3419,1.3046,1.2599,1.2305,1.2003,1.1929,1.1855,1.1335,1.1037,1.0887,1.0143,0.9695,0.9392,1.2858,1.2683,1.2498,1.1872,1.1622,1.1247,1.0618,1.0364,1.004,0.953,0.9139,0.8619,0.7972,0.7432,0.7,0.6713,0.6256,0.6032,0.5991,0.6159,0.6287,0.6484,0.6817,0.7171,0.7439,0.7712,0.7961,0.8117,0.0,0.0,0.0,0.0,0.0,0.0,0.0,1.2896,1.3829,1.4523,1.5216,1.5881,1.6936,1.7656,1.8243,1.8491,1.8692,1.8808,1.8405,1.8056,1.7774,1.7314,1.6968,1.6682,1.6551,1.6482,1.6412,1.6412,1.6412,1.6412,1.6342,1.6272,1.6132,1.6132,1.563,0.0,1.5204,1.4919,1.4497,1.4201,1.3859,1.3689,1.352,1.3279,1.3192,1.3448,1.3492,1.3492,1.3492,1.3492,1.3492,1.3492,1.3492,1.3492,1.3492,1.3492,1.3492,1.3492,1.3848,1.4209,1.4425,1.4569,1.4569,1.4569,1.4569,1.4569,1.4569,1.4569,1.4569,1.4425,1.4425,1.4217,1.3935,1.3645,1.3419,1.32,1.2673,1.2378,1.2231,1.1558,1.126,1.126,1.1186,1.0663,1.0067,0.9771,0.9316,0.878,1.2498,1.2243,1.1934,1.156,1.1185,1.0744,1.0117,0.9743,0.928,0.8708,0.8069,0.7466,0.6981,0.6543,0.6153,0.582,0.5455,0.521,0.5238,0.5395,0.5504,0.5668,0.6046,0.6317,0.6426,0.6864,0.7192,0.7402,0.7961,0.0,0.0,0.0,0.0,0.0,1.2572,1.3397,1.4252,1.4983,1.5615,1.6148,1.7121,1.7624,1.7905,1.8271,1.8338,1.8192,1.7862,1.7442,1.7088,1.676,1.6482,1.6333,1.6202,1.6132,1.6053,1.6053,1.6053,1.6061,1.607,1.6,1.5929,1.5859,1.5497,0.0,0.0,1.4856,1.445,1.393,1.3698,1.3514,1.3086,1.2877,1.287,1.3199,1.325,1.3309,1.347,1.3492,1.3492,1.3492,1.3492,1.3492,1.3492,1.3492,1.3572,1.3645,1.392,1.4201,1.4353,1.4497,1.4569,1.4569,1.4569,1.4569,1.4569,1.4497,1.4497,1.4425,1.4217,1.3935,1.3645,1.3419,1.3119,1.2753,1.2452,1.2077,1.1632,1.1186,1.0738,1.0513,1.0513,1.0218,0.9695,0.9311,0.8775,0.8165,1.2305,1.1872,1.1498,1.131,1.087,1.0371,0.9798,0.9298,0.8663,0.7913,0.7084,0.6506,0.6256,0.5732,0.5335,0.5088,0.4733,0.4525,0.4577,0.4702,0.4846,0.4959,0.5391,0.5664,0.5723,0.6268,0.6652,0.6874,0.765,0.0,0.0,0.0,0.0,1.2206,1.3158,1.3986,1.4676,1.552,1.6069,1.6475,1.7265,1.7521,1.7559,1.8075,1.7978,1.751,1.7235,1.6821,1.6324,1.6202,1.6061,1.5921,1.5921,1.5842,1.5692,1.5692,1.5692,1.57,1.5647,1.5655,1.5655,1.5505,1.5284,1.507,0.0,0.0,0.0,1.3723,1.3531,1.3263,1.2638,1.2467,1.2533,1.2862,1.2965,1.3104,1.3367,1.3455,1.3492,1.3492,1.3492,1.3492,1.3492,1.3492,1.3572,1.3797,1.4,1.4201,1.4353,1.4497,1.4569,1.4569,1.4569,1.4569,1.4569,1.4425,1.4361,1.4289,1.3935,1.3645,1.3419,1.3127,1.2753,1.2298,1.215,1.1706,1.1037,1.0738,1.0293,0.9771,0.9771,0.962,0.9392,0.878,0.8165,0.7557,1.2182,1.1809,1.1498,1.1185,1.0681,1.0174,0.9588,0.9122,0.8404,0.7172,0.651,0.599,0.5554,0.5162,0.4877,0.4668,0.4432,0.4222,0.4265,0.426,0.4356,0.4574,0.4846,0.5124,0.5352,0.5841,0.6273,0.6707,0.7539,0.8399,0.0,0.0,1.1413,1.232,1.3489,1.4408,1.5118,1.5946,1.6452,1.6689,1.696,1.7266,1.7585,1.7533,1.7304,1.6899,1.6184,1.5842,1.5638,1.5568,1.5497,1.5267,1.5267,1.5275,1.5275,1.5275,1.5275,1.5275,1.5275,1.5275,1.5275,1.5204,1.507,1.4935,1.4944,0.0,1.426,1.3723,0.0,1.2841,1.2526,0.0,0.0,1.2526,1.2819,1.3023,1.306,1.3309,1.3492,1.3492,1.3492,1.3492,1.3492,1.3492,1.3572,1.3797,1.4,1.4201,1.4353,1.4497,1.4569,1.4569,1.4569,1.4569,1.4425,1.4433,1.4217,1.387,1.3645,1.3419,1.3193,1.2673,1.2378,1.2224,1.1558,1.1111,1.0812,1.0218,0.9771,0.9397,0.9397,0.9165,0.8699,0.8089,0.7633,0.718,1.2189,1.1809,1.1435,1.0996,1.0555,1.011,0.946,0.851,0.7541,0.6578,0.6,0.552,0.5087,0.4844,0.4582,0.4313,0.4213,0.4183,0.4171,0.41,0.414,0.4311,0.4563,0.4739,0.4853,0.5348,0.5839,0.6342,0.7297,0.8293,0.0,0.0,1.1421,1.2321,1.3413,1.4336,1.5014,1.5836,1.63,1.6599,1.6612,1.6633,1.6711,1.6757,1.6403,1.5842,1.5275,1.5062,1.4999,1.4999,1.4856,1.4713,1.4713,1.4633,1.4561,1.4561,1.4561,1.4561,1.4705,1.4713,1.4713,1.4713,1.4641,1.4577,1.4425,1.4205,1.3761,1.3218,0.0,0.0,0.0,0.0,0.0,0.0,1.2358,1.2444,1.2564,1.2778,1.3067,1.3448,1.3492,1.3492,1.3492,1.3492,1.3572,1.3797,1.4,1.4201,1.4353,1.4497,1.4569,1.4497,1.4497,1.4425,1.4209,1.4145,1.3935,1.3645,1.3419,1.3119,1.2673,1.2452,1.2077,1.1558,1.1111,1.0663,1.0218,0.9609,0.916,0.8708,0.8403,0.8246,0.8089,0.7476,0.6942,0.6328,1.2428,1.1934,1.1498,1.1122,1.0681,1.011,0.9338,0.8164,0.7175,0.6408,0.5837,0.537,0.4951,0.4694,0.4458,0.4175,0.4137,0.4143,0.4182,0.4054,0.4045,0.4166,0.4359,0.4529,0.4585,0.5099,0.5616,0.6155,0.724,0.8221,0.0,0.0,1.1409,1.2336,1.3371,1.4234,1.5023,1.5699,1.6188,1.6342,1.6157,1.5781,1.539,1.5547,1.5267,1.4687,1.4246,1.4073,1.4073,1.4073,1.4002,1.3955,1.3976,1.3927,1.3799,1.389,1.392,1.3992,1.4137,1.4145,1.4145,1.4217,1.4148,1.407,1.3999,1.3676,1.321,1.2736,1.2401,0.0,0.0,0.0,1.1633,1.1867,0.0,1.1992,1.2157,1.2265,1.2557,1.3099,1.3309,1.3397,1.3484,1.3492,1.3645,1.3855,1.3992,1.4201,1.4425,1.4569,1.4569,1.4425,1.4425,1.4281,1.3992,1.3863,1.3645,1.3419,1.32,1.282,1.2298,1.2157,1.1706,1.1111,1.0738,1.0218,0.9695,0.9079,0.8551,0.8021,0.7484,0.7249,0.7165,0.6784,0.6247,0.5628,1.3042,1.2243,1.156,1.156,1.0996,1.0238,0.9145,0.8431,0.7717,0.7003,0.6276,0.5683,0.5153,0.4824,0.4495,0.4295,0.4186,0.4115,0.4113,0.3996,0.3992,0.418,0.4351,0.453,0.4904,0.5321,0.5804,0.6297,0.7348,0.8269,0.8959,1.0227,1.134,1.2367,1.3425,1.4371,1.5206,1.5809,1.6114,1.6044,1.57,1.4787,1.3708,1.3924,1.3847,1.3523,1.2877,1.263,1.263,1.263,1.263,1.2689,1.2928,1.3023,1.3082,1.3404,1.3492,1.3492,1.3499,1.3499,1.3572,1.379,1.3551,1.3382,1.3599,1.3195,1.2721,1.2385,1.2173,1.1941,1.1619,1.1622,1.163,1.1637,1.171,0.0,0.0,1.1921,1.2126,1.2283,1.2764,1.3148,1.3462,1.3492,1.3637,1.4057,1.4129,1.4274,1.4569,1.4569,1.4569,1.4425,1.4425,1.4217,1.379,1.3797,1.3572,1.32,1.3046,1.2673,1.2305,1.1706,1.1335,1.1037,1.0293,0.9695,0.9246,0.8632,0.7944,0.7184,0.6795,0.6247,0.5699,0.586,0.5709,0.5243,1.3398,1.3099,1.2688,1.2034,1.1435,1.0674,0.9524,0.8753,0.8042,0.7204,0.6478,0.5818,0.5359,0.4891,0.4561,0.4495,0.4326,0.4238,0.4238,0.4254,0.425,0.4313,0.4473,0.4668,0.4793,0.5218,0.5697,0.6245,0.7178,0.8043,0.8839,0.9939,1.1035,1.1985,1.2963,1.385,1.4693,1.4985,1.5133,1.5046,1.4266,1.3502,1.2861,1.3134,1.2932,1.2535,1.2025,1.1847,1.1847,1.1847,1.1847,1.1867,1.1964,1.1999,1.202,1.2123,1.2158,1.2158,1.2158,1.2158,1.2228,1.2438,1.236,1.2351,1.2488,1.2236,1.197,1.2,1.1739,1.1558,1.1582,1.1622,1.1622,1.1622,1.1522,1.1467,0.0,1.1375,1.1509,1.1918,1.2611,1.3053,1.3162,1.3367,1.3637,1.4057,1.4129,1.4274,1.4569,1.4569,1.4497,1.4201,1.4209,1.3992,1.3645,1.3572,1.3419,1.2973,1.282,1.2452,1.1855,1.1409,1.0962,1.0443,0.9771,0.9165,0.8632,0.8021,0.7407,0.6795,0.6328,0.5705,0.5007,0.5087,0.4854,0.4389,1.4347,1.4236,1.3835,1.2735,1.2134,1.1439,1.0398,0.9604,0.8843,0.7844,0.7101,0.6348,0.5631,0.516,0.4827,0.4694,0.4564,0.4498,0.4498,0.4489,0.4511,0.4511,0.4807,0.4948,0.4948,0.545,0.5939,0.6369,0.7262,0.8037,0.8835,0.9734,1.0704,1.1829,1.2416,1.3241,1.4112,1.4117,1.4129,1.4042,1.3105,1.2432,1.1927,1.1844,1.173,1.1472,1.0955,1.0782,1.0782,1.0855,1.0929,1.0942,1.1114,1.1141,1.1167,1.1204,1.1237,1.123,1.1093,1.1162,1.123,1.1443,1.1424,1.1485,1.1681,1.1511,1.1288,1.1482,1.139,1.131,1.1435,1.1498,1.1498,1.156,1.1373,1.1185,0.0,1.0933,1.1129,1.1525,1.2304,1.2884,1.2994,1.3301,1.3637,1.4057,1.4129,1.4274,1.4569,1.4569,1.4425,1.4129,1.4065,1.3848,1.3492,1.3419,1.32,1.29,1.2599,1.2224,1.1706,1.1186,1.0691,1.0021,0.9432,0.8817,0.8147,0.7532,0.6865,0.617,0.5709,0.4929,0.4231,0.4309,0.3997,0.345,1.5817,1.5449,1.4915,1.376,1.3072,1.2369,1.1642,1.0942,1.0081,0.8894,0.8122,0.7238,0.6062,0.5649,0.5316,0.4916,0.4849,0.4849,0.4849,0.4849,0.4849,0.4849,0.5249,0.5449,0.5449,0.6113,0.6511,0.6766,0.7625,0.8283,0.8803,0.952,1.0522,1.1737,1.1936,1.255,1.3419,1.3273,1.3119,1.3046,1.2224,1.1526,1.0836,1.0269,1.017,1.0296,0.9685,0.9454,0.9524,0.967,0.974,0.9848,1.0299,1.0454,1.0438,1.0567,1.0642,1.0579,1.0366,1.0435,1.0648,1.0854,1.0779,1.0771,1.1172,1.1012,1.0807,1.1059,1.1059,1.1122,1.124,1.1303,1.1365,1.156,1.131,1.0996,1.0624,1.0744,1.087,1.1059,1.192,1.2628,1.295,1.3294,1.3637,1.4057,1.4129,1.4274,1.4569,1.4497,1.4281,1.4129,1.3928,1.3717,1.3492,1.3273,1.3119,1.29,1.2452,1.2077,1.1632,1.1025,1.0444,0.9807,0.919,0.8487,0.7742,0.7091,0.6391,0.5544,0.4932,0.4153,0.337,0.3606,0.3215,0.2275,1.6275,1.6241,1.633,1.6321,1.4567,1.2983,1.2436,1.1696,1.0779,0.9668,0.8896,0.8041,0.7024,0.653,0.6117,0.5839,0.5691,0.5621,0.5621,0.5765,0.5839,0.5839,0.6043,0.618,0.6386,0.6674,0.7093,0.7581,0.8072,0.8551,0.9091,0.9645,1.0372,1.1185,1.1545,1.2029,1.2599,1.2526,1.2378,1.2003,1.1335,1.0765,1.0248,0.9704,0.9347,0.9097,0.9108,0.9145,0.9145,0.9215,0.9215,0.9227,0.9356,0.9374,0.9385,0.9456,0.9408,0.9408,0.9348,0.9408,0.9473,0.967,0.9746,0.9885,1.0155,1.0296,1.0491,1.0688,1.0807,1.0933,1.1122,1.124,1.1303,1.1373,1.1247,1.0996,1.0624,1.0744,1.087,1.1059,1.1596,1.2159,1.2614,1.3162,1.3637,1.4057,1.4129,1.4274,1.4569,1.4497,1.4281,1.4129,1.3928,1.3717,1.3492,1.3273,1.3119,1.29,1.2305,1.1855,1.1477,1.0692,0.9986,0.941,0.8645,0.7934,0.7298,0.6738,0.5993,0.5318,0.4538,0.3526,0.2434,0.2746,0.2118,0.1178,1.7967,1.7748,1.7641,1.7647,1.6272,1.4852,1.3991,1.3085,1.2016,1.0885,0.9839,0.8882,0.7948,0.73,0.6877,0.6666,0.6523,0.6376,0.6376,0.6452,0.6527,0.6527,0.6738,0.6873,0.6944,0.7233,0.7588,0.8018,0.8377,0.8795,0.9206,0.9637,1.0119,1.0719,1.0935,1.1373,1.1781,1.1706,1.1409,1.1037,1.0588,1.0148,0.0,0.9237,0.8795,0.8503,0.8527,0.8565,0.8565,0.863,0.8624,0.8694,0.8765,0.8765,0.8765,0.8694,0.8624,0.8624,0.8565,0.863,0.8694,0.8894,0.9081,0.9274,0.96,0.9786,1.004,1.0301,1.0491,1.0618,1.0807,1.0996,1.1052,1.1052,1.0996,1.087,1.0624,1.0681,1.0807,1.1059,1.1461,1.1847,1.2225,1.2899,1.3482,1.3912,1.4057,1.4201,1.4346,1.4281,1.4209,1.3992,1.379,1.3645,1.3492,1.32,1.3046,1.29,1.2224,1.1706,1.1397,1.0487,0.9657,0.897,0.8198,0.7455,0.6705,0.6117,0.5472,0.4701,0.3742,0.2586,0.1335,0.1177,0.0706,0.0079,2.0144,1.9438,1.8796,1.8387,1.7881,1.7123,1.5955,1.4698,1.3436,1.2236,1.0954,0.9774,0.8827,0.816,0.7731,0.7516,0.7305,0.7237,0.7237,0.7237,0.7237,0.7237,0.7377,0.752,0.7516,0.7807,0.8093,0.8303,0.8669,0.8953,0.9297,0.9526,0.985,1.0338,1.0411,1.0607,1.0962,1.0738,1.0443,1.0067,0.9922,0.9579,0.916,0.8786,0.8494,0.8137,0.7981,0.7942,0.8052,0.8107,0.8172,0.8172,0.8376,0.8447,0.8382,0.8236,0.8172,0.8172,0.8047,0.8112,0.8236,0.8382,0.8576,0.8899,0.9268,0.939,0.9588,0.9856,1.011,1.0301,1.0498,1.0681,1.0807,1.0807,1.0807,1.0744,1.0624,1.0624,1.0751,1.1066,1.1297,0.0,1.1963,1.2628,1.3197,1.3708,1.397,1.4057,1.4129,1.4065,1.3992,1.3797,1.3572,1.3492,1.3492,1.3119,1.29,1.29,1.2077,1.1558,1.1323,1.03,0.9416,0.8654,0.7812,0.7003,0.6076,0.559,0.4822,0.3875,0.2798,0.1491,0.0236,-0.055,-0.0864,-0.1021,2.1001,2.0252,1.9686,1.958,1.9247,1.8619,1.7675,1.5999,1.4392,1.3086,1.2088,1.1117,1.0038,0.9345,0.89,0.8736,0.8515,0.8369,0.8369,0.8369,0.8369,0.8369,0.844,0.8515,0.8665,0.8736,0.8965,0.935,0.943,0.9574,0.9793,1.0021,1.0112,1.0226,1.0375,1.0473,1.0368,1.0143,0.9916,0.9695,0.9473,0.9145,0.8779,0.8572,0.8145,0.7588,0.7382,0.7607,0.7987,0.8052,0.8047,0.8047,0.8052,0.8117,0.8052,0.8047,0.8047,0.8052,0.7987,0.7987,0.8047,0.8052,0.8317,0.8576,0.8641,0.9017,0.9396,0.9524,0.9728,0.9989,1.0308,1.0618,1.0807,1.0807,1.0807,1.0744,1.0624,1.0624,1.0751,1.1066,1.1171,1.1369,1.1942,1.2628,1.3101,1.3379,1.3705,1.3928,1.4057,1.3928,1.3863,1.3797,1.3572,1.3492,1.3492,1.3119,1.29,1.29,1.2077,1.1484,1.1093,1.0116,0.9244,0.8408,0.745,0.6705,0.6069,0.5409,0.4348,0.2961,0.1878,0.0784,-0.0393,-0.1415,-0.2278,-0.2827,2.2283,2.1703,2.1145,2.0951,2.0325,1.9551,1.8821,1.7443,1.5929,1.4408,1.3294,1.2241,1.1347,1.0636,1.0051,0.9771,0.9539,0.9311,0.9311,0.9236,0.9209,0.9401,0.9251,0.9311,0.9503,0.9503,0.966,0.998,0.998,1.0,1.0116,1.0187,1.0269,1.0269,1.0312,1.0366,1.021,0.998,0.9751,0.9411,0.9261,0.8884,0.8528,0.818,0.7834,0.75,0.7298,0.7306,0.74,0.74,0.74,0.74,0.74,0.74,0.74,0.74,0.74,0.74,0.74,0.74,0.7466,0.7657,0.7852,0.8052,0.8312,0.8635,0.8958,0.9081,0.9402,0.9728,1.011,1.0301,1.0428,1.0491,1.0555,1.0555,1.0561,1.0624,1.0688,1.0933,1.1059,1.1241,1.1581,1.2153,1.2643,1.3127,1.3375,1.3611,1.3768,1.379,1.3725,1.3645,1.3564,1.3419,1.3346,1.3046,1.2826,1.2746,1.2003,1.1409,1.09,0.9871,0.8932,0.8043,0.6927,0.6125,0.5474,0.4356,0.3422,0.247,0.1484,0.0392,-0.0707,-0.1885,-0.2747,-0.3374,2.3395,2.292,2.2359,2.202,2.1173,2.03,1.9641,1.8637,1.7407,1.5679,1.4374,1.3403,1.2634,1.1827,1.12,1.0995,1.0526,1.0302,1.0302,1.0073,1.0081,1.0263,1.0116,1.0126,1.0233,1.0238,1.0319,1.0476,1.0395,1.0386,1.0369,1.0369,1.0369,1.0374,1.0316,1.0319,1.0238,0.9989,0.9616,0.9178,0.9025,0.8663,0.8232,0.7926,0.7651,0.7362,0.7207,0.7005,0.6815,0.6815,0.6815,0.6881,0.6881,0.6881,0.6881,0.6881,0.6881,0.6881,0.6881,0.6881,0.6942,0.7265,0.7461,0.7587,0.7977,0.8242,0.8447,0.8705,0.9145,0.9524,0.9849,0.9919,1.0053,1.0238,1.0238,1.0308,1.0498,1.0561,1.0618,1.0807,1.0996,1.1122,1.131,1.1652,1.2204,1.2855,1.3112,1.3297,1.3477,1.3645,1.3645,1.3499,1.3492,1.3419,1.32,1.2973,1.2746,1.2526,1.187,1.129,1.0647,0.9623,0.862,0.7632,0.6556,0.5568,0.4748,0.3333,0.2651,0.2279,0.1161,-0.0,-0.102,-0.2118,-0.2979,-0.368,2.3737,2.3093,2.2441,2.2195,2.1578,2.0968,2.0559,1.9564,1.8133,1.6213,1.5298,1.4598,1.3817,1.2982,1.2409,1.2384,1.1848,1.1535,1.1535,1.1295,1.1141,1.1163,1.1163,1.1175,1.1203,1.0961,1.0886,1.0961,1.0719,1.0546,1.0606,1.0606,1.0606,1.0525,1.0384,1.0233,0.9994,0.975,0.9299,0.8792,0.8713,0.836,0.7876,0.7783,0.7476,0.7023,0.7003,0.6777,0.642,0.642,0.6618,0.6881,0.6881,0.6881,0.6881,0.6881,0.6881,0.6881,0.6881,0.6881,0.6881,0.6946,0.7199,0.7521,0.7587,0.7787,0.8117,0.8447,0.8958,0.9332,0.9518,0.9728,0.9862,0.9983,1.0047,1.011,1.0301,1.0308,1.0428,1.0744,1.0996,1.1122,1.131,1.1519,1.1875,1.2519,1.284,1.3148,1.3477,1.3492,1.3492,1.3492,1.3492,1.3419,1.32,1.2973,1.2673,1.2298,1.1531,1.0827,1.0208,0.9029,0.8059,0.7287,0.636,0.5164,0.3973,0.3153,0.2608,0.2275,0.0911,-0.0308,-0.1411,-0.2431,-0.3448,-0.446,2.4647,2.3897,2.3233,2.3148,2.2422,2.1655,2.123,2.0295,1.9169,1.7721,1.6561,1.5493,1.4685,1.401,1.3454,1.3035,1.2625,1.2399,1.2252,1.2006,1.1918,1.1904,1.1747,1.174,1.1735,1.1657,1.1573,1.1573,1.1405,1.1155,1.1007,1.0925,1.0842,1.0853,1.0658,1.0468,1.0383,1.0045,0.9503,0.9064,0.8779,0.8449,0.7952,0.7683,0.733,0.6948,0.6849,0.6584,0.6229,0.6125,0.6354,0.6618,0.6618,0.6618,0.6618,0.6618,0.6618,0.6618,0.6618,0.6534,0.6514,0.6583,0.6706,0.6898,0.709,0.744,0.7787,0.7992,0.8441,0.8894,0.9017,0.9215,0.9402,0.9658,0.9716,0.9786,1.011,1.0244,1.0364,1.0491,1.087,1.1122,1.1185,1.1435,1.1831,1.2475,1.2643,1.2943,1.347,1.3492,1.3492,1.3492,1.3492,1.3346,1.3046,1.2973,1.2583,1.1893,1.1357,1.0633,0.976,0.8806,0.7562,0.6116,0.5183,0.4185,0.3145,0.2644,0.2006,0.126,0.0301,-0.0921,-0.2117,-0.2899,-0.3837,-0.4927,2.5115,2.4433,2.3841,2.3841,2.2987,2.2265,2.1823,2.1047,2.0171,1.921,1.8004,1.6775,1.5597,1.4983,1.4402,1.3856,1.3514,1.3279,1.3063,1.2813,1.265,1.2594,1.2506,1.2468,1.24,1.2394,1.2348,1.2348,1.2173,1.1902,1.1632,1.131,1.116,1.1101,1.0833,1.0727,1.0641,1.0212,0.9661,0.9208,0.8844,0.8401,0.7974,0.7631,0.7219,0.6904,0.6787,0.6462,0.6054,0.6004,0.6062,0.6288,0.635,0.635,0.642,0.642,0.642,0.642,0.642,0.6282,0.6211,0.6341,0.63,0.6386,0.6635,0.6926,0.7236,0.749,0.8011,0.8382,0.8571,0.8765,0.8952,0.9268,0.9396,0.9524,0.9786,1.0047,1.0238,1.0301,1.0744,1.1122,1.1122,1.1373,1.1831,1.2475,1.2519,1.2804,1.3455,1.3492,1.3492,1.3492,1.3419,1.3273,1.29,1.2746,1.2303,1.1443,1.1003,1.023,0.912,0.8105,0.6726,0.5093,0.4225,0.3424,0.2693,0.2268,0.1548,0.0578,-0.0297,-0.152,-0.2797,-0.3361,-0.4304,-0.5392,2.4946,2.4348,2.3841,2.3841,2.3232,2.2706,2.2432,2.1733,2.0944,2.0219,1.9549,1.8532,1.6884,1.5891,1.5387,1.5387,1.4803,1.4307,1.4075,1.3815,1.3555,1.3392,1.3479,1.3448,1.3448,1.3279,1.3235,1.3235,1.2956,1.2677,1.2392,1.1885,1.1569,1.1262,1.0906,1.0727,1.0641,1.0212,0.9656,0.8945,0.8756,0.8324,0.7819,0.7553,0.7219,0.6916,0.6916,0.6558,0.6073,0.6069,0.6026,0.5954,0.6148,0.628,0.642,0.642,0.642,0.642,0.642,0.6282,0.6207,0.6207,0.6133,0.6121,0.6121,0.625,0.6554,0.7121,0.7644,0.8047,0.8172,0.8376,0.8582,0.877,0.9087,0.9338,0.9454,0.9786,1.011,1.0308,1.0744,1.1122,1.1122,1.1373,1.1831,1.2475,1.2519,1.2804,1.3455,1.3492,1.3492,1.3492,1.3346,1.3119,1.29,1.2526,1.1866,1.1084,1.0313,0.9358,0.8373,0.6697,0.5425,0.4558,0.382,0.3293,0.2831,0.2087,0.1299,0.0351,-0.0794,-0.2075,-0.3341,-0.388,-0.4849,-0.6015,2.4946,2.4348,2.3841,2.3841,2.3319,2.2882,2.2441,2.2064,2.1447,2.0465,1.9974,1.9185,1.8269,1.7307,1.64,1.5808,1.5351,1.4894,1.4489,1.4525,1.4382,1.4117,1.4216,1.4097,1.3746,1.3748,1.361,1.3423,1.315,1.2871,1.2409,1.224,1.1991,1.1585,1.1144,1.0793,1.0641,1.0212,0.9653,0.9147,0.895,0.8508,0.7914,0.774,0.7484,0.7083,0.6817,0.6482,0.623,0.598,0.5842,0.5848,0.5916,0.6108,0.628,0.635,0.642,0.635,0.628,0.6065,0.5843,0.5778,0.5712,0.5705,0.5939,0.6219,0.6489,0.6804,0.7147,0.7487,0.7692,0.8042,0.8371,0.8576,0.8894,0.9145,0.9332,0.9722,1.0047,1.011,1.0555,1.087,1.087,1.1122,1.1418,1.1765,1.2059,1.2527,1.3462,1.3346,1.3273,1.3273,1.3119,1.29,1.2673,1.2249,1.165,1.081,0.9977,0.8772,0.7224,0.6043,0.5027,0.4161,0.3288,0.2755,0.2357,0.1277,0.0478,-0.021,-0.1486,-0.2551,-0.3479,-0.4336,-0.5393,-0.656,2.47,2.4186,2.3754,2.3667,2.3319,2.296,2.2441,2.2264,2.1915,2.0961,2.0474,2.0024,1.9448,1.8469,1.7588,1.6672,1.6227,1.5767,1.534,1.5366,1.5129,1.4852,1.4867,1.4754,1.4305,1.4228,1.4093,1.3994,1.363,1.3205,1.2732,1.2646,1.2285,1.1698,1.1253,1.0858,1.0641,1.0212,0.9777,0.9414,0.9127,0.872,0.8172,0.793,0.7608,0.725,0.6931,0.6678,0.6381,0.6138,0.6004,0.5944,0.6014,0.604,0.6097,0.6172,0.6222,0.6218,0.6086,0.5882,0.5655,0.5533,0.5392,0.537,0.5535,0.5893,0.6258,0.6441,0.6791,0.7093,0.7358,0.7717,0.8047,0.8247,0.8635,0.8952,0.9145,0.9664,0.9983,0.9983,1.0491,1.0807,1.0807,1.0996,1.1185,1.1493,1.1629,1.21,1.282,1.2998,1.3119,1.3119,1.2715,1.2435,1.2362,1.1637,1.1007,1.0312,0.917,0.7844,0.6474,0.5557,0.4694,0.3758,0.2954,0.2351,0.1884,0.074,-0.0272,-0.1174,-0.2163,-0.2947,-0.3727,-0.4734,-0.5891,-0.7099,2.4292,2.4024,2.3754,2.3503,2.3319,2.296,2.2441,2.2441,2.2176,2.1482,2.1195,2.0817,2.0382,1.9535,1.8742,1.7962,1.7285,1.6735,1.6463,1.6219,1.5878,1.5411,1.5447,1.5332,1.5041,1.4842,1.479,1.4688,1.422,1.3706,1.3274,1.3003,1.2472,1.1747,1.1284,1.0972,1.0661,1.0217,0.9864,0.9584,0.9222,0.8887,0.8586,0.8085,0.7697,0.7406,0.7254,0.6939,0.6645,0.6645,0.639,0.6183,0.6323,0.6139,0.5841,0.5888,0.5899,0.5888,0.5888,0.5765,0.5538,0.5456,0.5225,0.5109,0.5123,0.5498,0.5906,0.6023,0.6392,0.6772,0.7102,0.733,0.7591,0.7922,0.8441,0.8835,0.8952,0.96,0.9989,0.9983,1.0428,1.0744,1.0744,1.0933,1.1114,1.14,1.1311,1.1382,1.1669,1.2372,1.2764,1.2757,1.2192,1.1837,1.1837,1.0861,1.0101,0.9559,0.7946,0.6806,0.6009,0.5147,0.4284,0.342,0.2678,0.2079,0.148,0.0404,-0.0876,-0.2227,-0.2766,-0.3335,-0.4075,-0.5146,-0.6335,-0.7621,2.4282,2.4024,2.3754,2.3503,2.3319,2.296,2.2441,2.2441,2.2176,2.1482,2.1195,2.0907,2.0654,1.9951,1.9414,1.915,1.8016,1.7182,1.6735,1.6698,1.6559,1.6203,1.6044,1.592,1.5631,1.5412,1.507,1.4688,1.4598,1.4274,1.3741,1.3454,1.3003,1.2521,1.1865,1.1292,1.0894,1.0455,0.9946,0.9598,0.9461,0.9095,0.8615,0.8443,0.8156,0.7672,0.7462,0.7262,0.7046,0.6885,0.6701,0.6496,0.657,0.631,0.6008,0.6062,0.5989,0.5888,0.5686,0.5571,0.5445,0.5409,0.5246,0.5081,0.5102,0.5301,0.5552,0.5783,0.615,0.6586,0.6911,0.7265,0.7591,0.7922,0.8441,0.8835,0.8952,0.9472,0.9862,0.9989,1.0238,1.0428,1.0428,1.0428,1.0461,1.0335,1.0542,1.0698,1.0829,1.1168,1.1427,1.1574,1.1292,1.1121,1.1121,1.0436,0.9499,0.8385,0.7424,0.6544,0.5675,0.4844,0.4074,0.322,0.2628,0.1779,0.0874,-0.0,-0.1076,-0.2223,-0.2639,-0.3307,-0.4242,-0.5369,-0.654,-0.775,2.4024,2.3851,2.365,2.3673,2.3526,2.3328,2.3062,2.2848,2.2457,2.1925,2.1302,2.0997,2.0826,2.0209,1.9671,1.9587,1.8592,1.783,1.756,1.7355,1.7176,1.6892,1.6826,1.6614,1.6231,1.6166,1.5778,1.5074,1.4971,1.4618,1.4118,1.3829,1.3414,1.2792,1.2264,1.1742,1.1158,1.0676,1.0304,0.9859,0.9689,0.9365,0.9,0.8824,0.8497,0.8151,0.7902,0.768,0.7458,0.7375,0.7103,0.6893,0.6893,0.663,0.6332,0.6241,0.5982,0.5716,0.5575,0.5432,0.5352,0.5279,0.5204,0.5081,0.5081,0.5321,0.5553,0.5724,0.6083,0.6459,0.6846,0.7073,0.74,0.7922,0.8376,0.877,0.8952,0.9472,0.9848,1.0095,1.0238,1.0419,1.0548,1.0444,1.0302,1.0114,1.0061,1.0009,0.9943,1.0019,1.0343,1.1011,1.0691,1.0492,1.0492,0.9693,0.8838,0.7857,0.7138,0.6367,0.5503,0.4656,0.3862,0.3101,0.2452,0.156,0.0528,-0.0134,-0.1143,-0.2356,-0.2688,-0.3481,-0.4482,-0.56,-0.6771,-0.7912,2.3754,2.364,2.3624,2.382,2.3838,2.3822,2.3718,2.3331,2.2884,2.2419,2.1509,2.0997,2.0997,2.0374,1.9845,1.9587,1.9084,1.8629,1.8489,1.8054,1.7702,1.7406,1.7433,1.7322,1.6842,1.6891,1.6494,1.5658,1.5411,1.4973,1.4455,1.4136,1.3622,1.2942,1.2609,1.208,1.1536,1.105,1.0637,1.0343,0.9911,0.9717,0.9584,0.924,0.89,0.8603,0.8455,0.8196,0.7877,0.7848,0.758,0.7293,0.7269,0.7003,0.666,0.6477,0.6064,0.5686,0.5511,0.5446,0.5328,0.5199,0.5116,0.5125,0.5125,0.5369,0.5655,0.5805,0.6042,0.6361,0.6785,0.6881,0.7138,0.7857,0.8252,0.8641,0.8952,0.9444,0.9888,1.0176,1.0371,1.0484,1.071,1.0491,1.0267,1.0068,0.9675,0.9396,0.9274,0.9081,0.9479,1.0604,1.0129,0.982,0.982,0.8941,0.8187,0.7666,0.7003,0.6246,0.5375,0.4601,0.3783,0.2958,0.2279,0.1411,0.0452,-0.0199,-0.121,-0.2491,-0.2891,-0.361,-0.4596,-0.5779,-0.6873,-0.801,2.359,2.3791,2.3969,2.3779,2.4082,2.4161,2.3756,2.3331,2.2884,2.2419,2.1509,2.0997,2.0997,2.0374,1.9845,1.9587,1.9572,1.9247,1.8497,1.8463,1.8323,1.8044,1.7869,1.7747,1.7747,1.7299,1.69,1.6647,1.6091,1.5458,1.4924,1.4503,1.4094,1.3669,1.3076,1.2554,1.2176,1.1707,1.1318,1.0845,1.0672,1.0288,0.9946,0.9653,0.9275,0.8874,0.8674,0.8467,0.829,0.7893,0.7744,0.7691,0.7533,0.7314,0.7114,0.6962,0.6585,0.6113,0.5696,0.546,0.5422,0.5332,0.5209,0.5098,0.5098,0.5413,0.5672,0.5698,0.6077,0.6449,0.6811,0.6881,0.7138,0.7857,0.8252,0.8641,0.8952,0.9533,0.9959,1.0201,1.0405,1.0491,1.039,1.0159,0.9868,0.9522,0.9219,0.9081,0.9017,0.9017,0.9116,0.9261,0.9226,0.9079,0.8955,0.8522,0.8047,0.7666,0.7003,0.6246,0.5371,0.4624,0.3824,0.2954,0.2228,0.1511,0.0839,-0.0465,-0.148,-0.2288,-0.2958,-0.3634,-0.4465,-0.5758,-0.683,-0.787,2.3801,2.392,2.4026,2.4394,2.4639,2.4656,2.4412,2.3805,2.3213,2.2667,2.1652,2.1077,2.1298,2.0784,2.0416,2.0431,2.0314,2.0053,1.9518,1.9263,1.9059,1.8865,1.8691,1.8549,1.8432,1.8009,1.7619,1.7265,1.6814,1.6275,1.5477,1.496,1.4534,1.4106,1.3611,1.3104,1.2587,1.2186,1.182,1.1343,1.1167,1.076,1.0391,1.0214,0.9818,0.9289,0.9203,0.8828,0.8488,0.8317,0.8057,0.7866,0.7687,0.7634,0.7442,0.719,0.6708,0.6078,0.5717,0.5538,0.5464,0.5449,0.5308,0.5254,0.538,0.5575,0.5837,0.5963,0.6225,0.6486,0.6815,0.6881,0.7138,0.7857,0.8177,0.8544,0.9128,0.9524,0.9982,1.0396,1.0466,1.0527,1.0593,1.0108,0.9742,0.9468,0.9107,0.8829,0.877,0.8705,0.8705,0.8705,0.8829,0.8835,0.8641,0.8371,0.8047,0.7666,0.7073,0.6383,0.5564,0.4787,0.3895,0.3,0.2282,0.159,0.082,-0.026,-0.1194,-0.2085,-0.2824,-0.3491,-0.4306,-0.559,-0.665,-0.7611,2.4037,2.4104,2.4297,2.4951,2.5156,2.5044,2.4884,2.4126,2.3439,2.3079,2.1913,2.129,2.1689,2.1284,2.1028,2.1117,2.0937,2.0792,2.0403,2.0075,1.9787,1.9603,1.9421,1.9213,1.9071,1.875,1.8317,1.7888,1.7497,1.6921,1.6163,1.5541,1.4973,1.4485,1.4142,1.3628,1.307,1.2769,1.2344,1.1944,1.176,1.1349,1.0885,1.0795,1.0389,0.9851,0.9675,0.9283,0.8768,0.8636,0.8359,0.8127,0.7874,0.7821,0.7784,0.745,0.6878,0.6244,0.5944,0.5807,0.5741,0.5589,0.5617,0.5603,0.5627,0.5818,0.602,0.6148,0.6284,0.6486,0.6815,0.6881,0.7138,0.7857,0.8107,0.8445,0.922,0.9585,0.9937,1.0521,1.0484,1.0528,1.0645,1.0073,0.9642,0.9432,0.8981,0.8646,0.8517,0.8517,0.8576,0.8641,0.8705,0.8641,0.8517,0.8306,0.8042,0.7792,0.7269,0.6647,0.5888,0.5013,0.4134,0.317,0.2429,0.1688,0.0866,0.0064,-0.0851,-0.1816,-0.2621,-0.3357,-0.4105,-0.528,-0.6337,-0.7392,2.4365,2.4697,2.499,2.5059,2.5208,2.5197,2.4932,2.4021,2.3344,2.3446,2.2326,2.1706,2.2088,2.1657,2.1292,2.1142,2.1366,2.1362,2.0751,2.1059,2.0796,1.9976,1.9778,1.9657,1.968,1.9175,1.8855,1.8833,1.8025,1.7442,1.7074,1.6222,1.5562,1.5047,1.4509,1.4106,1.3806,1.3511,1.3177,1.2675,1.2465,1.204,1.1563,1.1104,1.0793,1.0522,1.0069,0.9757,0.9465,0.8768,0.8615,0.8484,0.8135,0.7996,0.7959,0.7793,0.7446,0.703,0.6637,0.6404,0.6321,0.6164,0.6127,0.6086,0.5926,0.6017,0.6214,0.621,0.6284,0.6486,0.6815,0.6881,0.7138,0.7857,0.8107,0.8445,0.9019,0.9531,0.985,1.0113,1.0347,1.0421,1.0288,0.9785,0.9432,0.9206,0.8775,0.8511,0.8517,0.8705,0.8835,0.8952,0.8705,0.8517,0.8517,0.8306,0.8166,0.8172,0.7652,0.709,0.6392,0.5561,0.4587,0.3523,0.2605,0.1845,0.1173,0.0127,-0.0851,-0.1681,-0.2418,-0.3155,-0.3892,-0.4834,-0.596,-0.7225,2.4766,2.4951,2.5156,2.5237,2.5227,2.5137,2.4735,2.4054,2.3651,2.3519,2.2577,2.2105,2.2496,2.2056,2.1867,2.2008,2.1953,2.182,2.1619,2.1448,2.0955,2.0327,2.0238,2.0094,1.9983,1.9583,1.9272,1.9182,1.8643,1.8067,1.7463,1.6921,1.6419,1.5838,1.5158,1.4643,1.4338,1.3899,1.3584,1.3211,1.2912,1.2569,1.2072,1.1807,1.1389,1.0807,1.05,1.0131,0.9766,0.9383,0.9061,0.8767,0.8493,0.8266,0.815,0.7967,0.7793,0.7564,0.7418,0.6965,0.6492,0.6332,0.6358,0.6342,0.6352,0.6476,0.6513,0.6543,0.6523,0.6621,0.6836,0.6881,0.7077,0.7731,0.7987,0.826,0.8891,0.9347,0.9738,1.0124,1.0222,1.0293,1.0218,0.9635,0.9281,0.9206,0.8775,0.8576,0.8705,0.8829,0.8958,0.9017,0.8894,0.8829,0.8829,0.8759,0.8565,0.8376,0.7982,0.7423,0.6698,0.5878,0.5004,0.4097,0.3147,0.2178,0.1268,0.0578,-0.0197,-0.1143,-0.2014,-0.2818,-0.356,-0.4558,-0.5682,-0.6877,2.4919,2.5082,2.5083,2.5187,2.5137,2.4932,2.4529,2.4096,2.3786,2.3712,2.2892,2.2504,2.2903,2.2455,2.227,2.2627,2.2434,2.2232,2.2131,2.1623,2.1121,2.0624,2.0522,2.0411,2.0197,1.9887,1.9576,1.948,1.9071,1.8554,1.8025,1.751,1.7048,1.6537,1.5844,1.532,1.4898,1.4448,1.4049,1.3751,1.3471,1.3041,1.2601,1.2427,1.1905,1.1311,1.0977,1.0611,1.0153,0.986,0.9438,0.905,0.8772,0.8504,0.8264,0.8138,0.7975,0.7841,0.7841,0.7423,0.6942,0.6741,0.6676,0.666,0.6754,0.6817,0.6781,0.6802,0.6843,0.6944,0.7085,0.7078,0.7238,0.7697,0.7902,0.8194,0.8762,0.9075,0.9508,0.9974,1.0007,1.006,1.0137,0.9558,0.9206,0.9206,0.8842,0.8705,0.8958,0.9017,0.9145,0.928,0.928,0.928,0.9344,0.9081,0.8894,0.8641,0.8317,0.7857,0.7199,0.6415,0.5559,0.468,0.3648,0.2589,0.1547,0.1032,0.0262,-0.0672,-0.1544,-0.2351,-0.3159,-0.4159,-0.5202,-0.6305,2.4932,2.4932,2.4932,2.4932,2.4637,2.4529,2.4529,2.3901,2.3694,2.4097,2.3305,2.2912,2.3302,2.2946,2.2644,2.2644,2.2644,2.2443,2.2123,2.1623,2.1224,2.0917,2.0624,2.0522,2.0522,1.999,1.968,1.968,1.9175,1.8869,1.8869,1.8032,1.7469,1.7141,1.655,1.601,1.5481,1.5208,1.4801,1.4289,1.4037,1.3545,1.305,1.2856,1.2528,1.2041,1.1467,1.1135,1.0915,1.0162,0.9728,0.9508,0.9059,0.8611,0.8292,0.8292,0.8158,0.8016,0.8016,0.8016,0.7886,0.7362,0.7228,0.7183,0.7073,0.7027,0.7027,0.7027,0.7166,0.7375,0.7451,0.7507,0.7578,0.7972,0.7996,0.8134,0.856,0.8799,0.9039,0.9518,0.9577,0.9669,0.9895,0.9486,0.9206,0.9206,0.8975,0.8958,0.9274,0.9274,0.9472,0.9804,0.9804,0.9862,0.9983,0.9338,0.9017,0.9017,0.8641,0.8317,0.7987,0.7134,0.6185,0.5135,0.4176,0.3153,0.2257,0.1353,0.0458,-0.047,-0.1076,-0.1882,-0.2753,-0.3491,-0.4579,-0.5724,2.4932,2.4932,2.4833,2.4627,2.4529,2.443,2.435,2.415,2.4015,2.4134,2.3647,2.3223,2.3338,2.2946,2.2644,2.2644,2.2644,2.2443,2.2123,2.1725,2.142,2.1224,2.0925,2.0822,2.0822,2.0411,2.0197,1.9983,1.968,1.9279,1.8869,1.8338,1.7984,1.7762,1.6955,1.6516,1.6394,1.5695,1.5164,1.4789,1.4323,1.3895,1.3346,1.3147,1.2716,1.225,1.1713,1.1422,1.1145,1.0556,1.0205,0.9893,0.9337,0.8798,0.8483,0.8483,0.8353,0.8207,0.8207,0.8113,0.7947,0.7671,0.7602,0.7553,0.7366,0.7326,0.7364,0.7388,0.7432,0.7462,0.7686,0.7685,0.7739,0.7869,0.8063,0.8194,0.8164,0.8626,0.8974,0.9281,0.947,0.9669,0.9895,0.9789,0.9614,0.9443,0.9241,0.921,0.9454,0.96,0.9734,0.9926,0.9926,0.9989,0.9983,0.9792,0.9594,0.9332,0.9145,0.8759,0.8107,0.7521,0.6706,0.5806,0.4888,0.3969,0.3049,0.199,0.1201,0.0538,-0.0672,-0.1546,-0.2151,-0.3023,-0.403,-0.5084,2.4637,2.4637,2.4538,2.444,2.4341,2.4341,2.4251,2.4152,2.4152,2.4152,2.3746,2.3447,2.3447,2.2946,2.2644,2.2644,2.2644,2.2443,2.2123,2.1827,2.1623,2.1318,2.1155,2.1068,2.0925,2.0617,2.0403,2.0078,1.9879,1.948,1.9078,1.875,1.8436,1.8108,1.7519,1.7127,1.6905,1.6298,1.5771,1.5413,1.4902,1.4406,1.3785,1.3487,1.3133,1.2646,1.2123,1.1783,1.1466,1.1056,1.0459,0.9983,0.9418,0.8926,0.8653,0.8584,0.8487,0.8398,0.8398,0.8316,0.8191,0.8016,0.7914,0.7813,0.7634,0.7667,0.7696,0.7668,0.7776,0.7886,0.7988,0.8047,0.8027,0.8047,0.8167,0.8285,0.8144,0.8569,0.8947,0.9174,0.9427,0.9742,0.997,0.9933,0.9796,0.9593,0.9548,0.958,0.96,0.9792,0.9926,1.011,1.0174,1.0238,1.0301,1.0428,1.0174,0.9716,0.946,0.9139,0.8624,0.8042,0.7256,0.6404,0.5606,0.468,0.3754,0.2755,0.195,0.121,0.0067,-0.0874,-0.1616,-0.2517,-0.3436,-0.4367,2.4053,2.4152,2.4152,2.4152,2.4152,2.4152,2.4152,2.4152,2.4152,2.4152,2.3746,2.3447,2.3447,2.2946,2.2644,2.2644,2.2644,2.2443,2.2123,2.1928,2.1623,2.1326,2.1362,2.1298,2.0972,2.0695,2.0496,2.0274,1.997,1.965,1.942,1.9121,1.8786,1.8429,1.8122,1.7701,1.7265,1.701,1.6465,1.5896,1.5636,1.5068,1.4342,1.4021,1.3571,1.3083,1.2575,1.2273,1.195,1.1466,1.0688,0.9828,0.9375,0.9116,0.8792,0.8633,0.858,0.8568,0.8568,0.8568,0.8528,0.8357,0.8187,0.8012,0.7905,0.8007,0.8023,0.794,0.8192,0.8403,0.8403,0.8403,0.842,0.8406,0.8367,0.8381,0.8361,0.8696,0.898,0.9211,0.9437,0.9816,1.0196,1.0075,0.9899,0.9852,0.9922,0.9934,0.9955,1.004,1.0149,1.034,1.0568,1.0681,1.0807,1.0996,1.0744,1.0047,0.9716,0.9524,0.9274,0.8624,0.7842,0.6924,0.6264,0.5411,0.4353,0.3558,0.2688,0.1681,0.1008,0.0067,-0.1012,-0.187,-0.2703,-0.3576,2.3546,2.3546,2.3646,2.3845,2.3854,2.3954,2.4152,2.4152,2.4152,2.4152,2.3746,2.3447,2.3447,2.2946,2.2644,2.2644,2.2644,2.2544,2.2544,2.2232,2.192,2.1623,2.1778,2.1627,2.1338,2.1486,2.1522,2.1308,2.0987,2.0529,1.9963,1.9447,1.9105,1.8757,1.8233,1.7911,1.7806,1.7325,1.6742,1.6213,1.5956,1.536,1.4589,1.4084,1.3672,1.3303,1.2628,1.2273,1.1873,1.1439,1.0803,1.0342,1.0004,0.9503,0.9083,0.8865,0.867,0.8568,0.8568,0.8568,0.8556,0.8519,0.8649,0.8618,0.8374,0.818,0.8141,0.8422,0.844,0.8475,0.8627,0.8666,0.8585,0.8429,0.8684,0.8781,0.8609,0.8927,0.9222,0.947,0.969,0.9957,1.0196,1.0296,1.039,1.0704,1.0571,1.056,1.0911,1.0824,1.083,1.1026,1.0994,1.1003,1.1059,1.1059,1.087,1.0498,1.0428,1.004,0.9454,0.9204,0.849,0.7512,0.6924,0.6075,0.5093,0.422,0.342,0.2757,0.1816,0.0941,0.0202,-0.0693,-0.1565,-0.2415,2.3138,2.3247,2.3447,2.3546,2.3655,2.3646,2.3954,2.4053,2.4053,2.4152,2.3854,2.3546,2.3447,2.3046,2.2745,2.2644,2.2644,2.2644,2.2644,2.2333,2.2105,2.1989,2.2038,2.2102,2.1941,2.2283,2.219,2.1642,2.131,2.0901,2.0412,1.9835,1.9355,1.9084,1.8499,1.8122,1.8016,1.7595,1.7075,1.6514,1.6317,1.5836,1.5071,1.4526,1.4021,1.359,1.2969,1.2459,1.198,1.1492,1.103,1.0637,1.0345,0.9978,0.9612,0.9342,0.9186,0.9042,0.9042,0.8979,0.8911,0.8911,0.8999,0.9009,0.8552,0.8578,0.8697,0.8675,0.8705,0.8672,0.8722,0.8703,0.867,0.8721,0.8832,0.9015,0.898,0.9241,0.9432,0.9567,0.9895,1.0153,1.0426,1.0689,1.0931,1.1013,1.1018,1.1159,1.1306,1.1357,1.1397,1.1604,1.1715,1.1833,1.1833,1.1811,1.1667,1.1404,1.0939,1.0485,1.004,0.9664,0.9081,0.8296,0.7712,0.6929,0.6013,0.5147,0.435,0.3623,0.2688,0.1897,0.1099,0.0283,-0.0804,-0.2044,2.2627,2.2937,2.3147,2.3247,2.3247,2.3447,2.3646,2.3746,2.3854,2.4053,2.3954,2.3646,2.3456,2.3147,2.2846,2.2644,2.2644,2.2644,2.2644,2.2333,2.2197,2.2278,2.2331,2.2473,2.2482,2.2831,2.2617,2.1822,2.1487,2.1137,2.0858,2.0204,1.9706,1.932,1.8675,1.8325,1.8016,1.7687,1.7265,1.673,1.673,1.628,1.5559,1.5001,1.4413,1.393,1.3336,1.2657,1.198,1.1688,1.1292,1.0872,1.0614,1.0341,1.0178,1.0023,0.9837,0.9677,0.9677,0.954,0.931,0.931,0.9371,0.9218,0.888,0.9079,0.9219,0.8886,0.8918,0.8968,0.8789,0.8727,0.878,0.8946,0.9015,0.9117,0.9348,0.9495,0.9637,0.971,1.0027,1.0443,1.0812,1.1186,1.1316,1.1166,1.1507,1.1695,1.1666,1.1813,1.1991,1.2197,1.2495,1.2676,1.2676,1.2666,1.2588,1.245,1.1539,1.0982,1.0688,1.018,0.9664,0.9081,0.8436,0.7782,0.6994,0.6141,0.5348,0.4489,0.3777,0.2947,0.1964,0.1159,-0.0075,-0.1567,2.1827,2.2131,2.2325,2.2526,2.2837,2.3147,2.3447,2.3646,2.3845,2.3854,2.3854,2.3646,2.3456,2.2946,2.2644,2.2644,2.2644,2.2644,2.2644,2.2333,2.2197,2.2278,2.2331,2.2473,2.2482,2.2831,2.2966,2.2759,2.2542,2.205,2.1418,2.0873,2.0241,1.9641,1.878,1.8422,1.8318,1.7793,1.7265,1.673,1.673,1.6393,1.5813,1.5269,1.4833,1.4516,1.3763,1.286,1.198,1.1688,1.1389,1.1091,1.0867,1.0646,1.041,1.0183,0.9943,0.989,0.989,0.9744,0.9589,0.9589,0.9553,0.951,0.9483,0.9348,0.9297,0.9489,0.9194,0.9015,0.8987,0.8826,0.878,0.8946,0.9145,0.9352,0.9502,0.9723,0.9948,1.0099,1.0496,1.0812,1.1037,1.126,1.1465,1.1575,1.1951,1.2298,1.241,1.2664,1.2873,1.2873,1.2953,1.3013,1.3013,1.3035,1.3012,1.3004,1.253,1.1902,1.0996,1.0688,1.0168,0.9646,0.9075,0.8501,0.7787,0.706,0.6334,0.562,0.5015,0.4309,0.3438,0.214,0.1148,0.0313,2.1224,2.1623,2.1928,2.2224,2.2434,2.2636,2.3147,2.3247,2.3456,2.3546,2.3546,2.3447,2.3247,2.2846,2.2644,2.2644,2.2644,2.2644,2.2644,2.2333,2.2289,2.2575,2.2437,2.2562,2.2768,2.2934,2.3014,2.3014,2.2683,2.2379,2.1879,2.1023,2.0491,2.0003,1.8851,1.8422,1.8318,1.7793,1.7265,1.673,1.673,1.6418,1.5879,1.5447,1.5112,1.4607,1.3584,1.2756,1.1975,1.1878,1.1585,1.1198,1.1096,1.0937,1.0868,1.0761,1.0623,1.0472,1.0472,1.032,1.0136,1.0025,1.0018,0.9921,0.9892,0.9798,0.97,0.9587,0.9497,0.9299,0.9067,0.9023,0.9072,0.919,0.9322,0.9549,0.9771,0.9846,0.9992,1.0293,1.0588,1.0887,1.126,1.1484,1.1632,1.1855,1.2224,1.2526,1.2753,1.3064,1.3351,1.343,1.3706,1.384,1.3909,1.386,1.3902,1.397,1.3537,1.2798,1.176,1.1333,1.0933,1.0485,0.9977,0.9466,0.8941,0.8096,0.7513,0.702,0.6287,0.5243,0.4169,0.3042,0.2096,0.1254]},{"header":{"parameterUnit":"m.s-1","parameterCategory":1,"la1":30.6,"la2":28.766,"lo1":-90.7593,"lo2":-88.6598,"dy":0.0162,"dx":0.0183,"nx":116,"ny":114,"refTime":"2023-06-17T12:00:00:Z","depth":0,"parameterNumber":3,"parameterNumberName":"V-component_of_WINDS"},"data":[0.0,0.0,0.0,0.0,0.0,0.0,0.0,0.0,0.0,0.0,0.0,0.0,0.0,0.0,0.0,0.0,0.0,0.0,0.0,0.0,0.0,0.0,0.0,0.0,0.0,0.0,0.0,0.0,0.0,0.0,0.0,0.0,0.0,0.0,0.0,0.0,0.0,0.0,0.0,0.0,0.0,0.0,0.0,0.0,0.0,0.0,0.0,0.0,0.0,0.0,0.0,0.0,0.0,0.0,0.0,0.0,0.0,0.0,0.0,0.0,0.0,0.0,0.0,0.0,0.0,0.0,0.0,0.0,0.0,0.0,0.0,0.0,0.0,0.0,0.0,0.0,0.0,0.0,0.0,0.0,0.0,0.0,0.0,0.0,0.0,0.0,0.0,0.0,0.0,0.0,0.0,0.0,0.0,0.0,0.0,0.0,0.0,0.0,0.0,0.0,0.0,0.0,0.0,0.0,0.0,0.0,0.0,0.0,0.0,0.0,0.0,0.0,0.0,0.0,0.0,0.0,0.0,0.0,0.0,0.0,0.0,0.0,0.0,0.0,0.0,0.0,0.0,0.0,0.0,0.0,0.0,0.0,0.0,0.0,0.0,0.0,0.0,0.0,0.0,0.0,0.0,0.0,0.0,0.0,0.0,0.0,0.0,0.0,0.0,0.0,0.0,0.0,0.0,0.0,0.0,0.0,0.0,0.0,0.0,0.0,0.0,0.0,0.0,0.0,0.0,0.0,0.0,0.0,0.0,0.0,0.0,0.0,0.0,0.0,0.0,0.0,0.0,0.0,0.0,0.0,0.0,0.0,0.0,0.0,0.0,0.0,0.0,0.0,0.0,0.0,0.0,0.0,0.0,0.0,0.0,0.0,0.0,0.0,0.0,0.0,0.0,0.0,0.0,0.0,0.0,0.0,0.0,0.0,0.0,0.0,0.0,0.0,0.0,0.0,0.0,0.0,0.0,0.0,0.0,0.0,0.0,0.0,0.0,0.0,0.0,0.0,0.0,0.0,0.0,0.0,0.0,0.0,0.0,0.0,0.0,0.0,0.0,0.0,0.0,0.0,0.0,0.0,0.0,0.0,0.0,0.0,0.0,0.0,0.0,0.0,0.0,0.0,0.0,0.0,0.0,0.0,0.0,0.0,0.0,0.0,0.0,0.0,0.0,0.0,0.0,0.0,0.0,0.0,0.0,0.0,0.0,0.0,0.0,0.0,0.0,0.0,0.0,0.0,0.0,0.0,0.0,0.0,0.0,0.0,0.0,0.0,0.0,0.0,0.0,0.0,0.0,0.0,0.0,0.0,0.0,0.0,0.0,0.0,0.0,0.0,0.0,0.0,0.0,0.0,0.0,0.0,0.0,0.0,0.0,0.0,0.0,0.0,0.0,0.0,0.0,0.0,0.0,0.0,0.0,0.0,0.0,0.0,0.0,0.0,0.0,0.0,0.0,0.0,0.0,0.0,0.0,0.0,0.0,0.0,0.0,0.0,0.0,0.0,0.0,0.0,0.0,0.0,0.0,0.0,0.0,0.0,0.0,0.0,0.0,0.0,0.0,0.0,0.0,0.0,0.0,0.0,0.0,0.0,0.0,0.0,0.0,0.0,0.0,0.0,0.0,0.0,0.0,0.0,0.0,0.0,0.0,0.0,0.0,0.0,0.0,0.0,0.0,0.0,0.0,0.0,0.0,0.0,0.0,0.0,0.0,0.0,0.0,0.0,0.0,0.0,0.0,0.0,0.0,0.0,0.0,0.0,0.0,0.0,0.0,0.0,0.0,0.0,0.0,0.0,0.0,0.0,0.0,0.0,0.0,0.0,0.0,0.0,0.0,0.0,0.0,0.0,0.0,0.0,0.0,0.0,0.0,0.0,0.0,0.0,0.0,0.0,0.0,0.0,0.0,0.0,0.0,0.0,0.0,0.0,0.0,0.0,0.0,0.0,0.0,0.0,0.0,0.0,0.0,0.0,0.0,0.0,0.0,0.0,0.0,0.0,0.0,0.0,0.0,0.0,0.0,0.0,0.0,0.0,0.0,0.0,0.0,0.0,0.0,0.0,0.0,0.0,0.0,0.0,0.0,0.0,0.0,0.0,0.0,0.0,0.0,0.0,0.0,0.0,0.0,0.0,0.0,0.0,0.0,0.0,0.0,0.0,0.0,0.0,0.0,0.0,0.0,0.0,0.0,0.0,0.0,0.0,0.0,0.0,0.0,0.0,0.0,0.0,0.0,0.0,0.0,0.0,0.0,0.0,0.0,0.0,0.0,0.0,0.0,0.0,0.0,0.0,0.0,0.0,0.0,0.0,0.0,0.0,0.0,0.0,0.0,0.0,0.0,0.0,0.0,0.0,0.0,0.0,0.0,0.0,0.0,0.0,0.0,0.0,0.0,0.0,0.0,0.0,0.0,0.0,0.0,0.0,0.0,0.0,0.0,0.0,0.0,0.0,0.0,0.0,0.0,0.0,0.0,0.0,0.0,0.0,0.0,0.0,0.0,0.0,0.0,0.0,0.0,0.0,0.0,0.0,0.0,0.0,0.0,0.0,0.0,0.0,0.0,0.0,0.0,0.0,0.0,0.0,0.0,0.0,0.0,0.0,0.0,0.0,0.0,0.0,0.0,0.0,0.0,0.0,0.0,0.0,0.0,0.0,0.0,0.0,0.0,0.0,0.0,0.0,0.0,0.0,0.0,0.0,0.0,0.0,0.0,0.0,0.0,0.0,0.0,0.0,0.0,0.0,0.0,0.0,0.0,0.0,0.0,0.0,0.0,0.0,0.0,0.0,0.0,0.0,0.0,0.0,0.0,0.0,0.0,0.0,0.0,0.0,0.0,0.0,0.0,0.0,0.0,0.0,0.0,0.0,0.0,0.0,0.0,0.0,0.0,0.0,0.0,0.0,0.0,0.0,0.0,0.0,0.0,0.0,0.0,0.0,0.0,0.0,0.0,0.0,0.0,0.0,0.0,0.0,0.0,0.0,0.0,0.0,0.0,0.0,0.0,0.0,0.0,0.0,0.0,0.0,0.0,0.0,0.0,0.0,0.0,0.0,0.0,0.0,0.0,0.0,0.0,0.0,0.0,0.0,0.0,0.0,0.0,0.0,0.0,0.0,0.0,0.0,0.0,0.0,0.0,0.0,0.0,0.0,0.0,0.0,0.0,0.0,0.0,0.0,0.0,0.0,0.0,0.0,0.0,0.0,0.0,0.0,0.0,0.0,0.0,0.0,0.0,0.0,0.0,0.0,0.0,0.0,0.0,0.0,0.0,0.0,0.0,0.0,0.0,0.0,0.0,0.0,0.0,0.0,0.0,0.0,0.0,0.0,0.0,0.0,0.0,0.0,0.0,0.0,0.0,0.0,0.0,0.0,0.0,0.0,0.0,0.0,0.0,0.0,0.0,0.0,0.0,0.0,0.0,0.0,0.0,0.0,0.0,0.0,0.0,0.0,0.0,0.0,0.0,0.0,0.0,0.0,0.0,0.0,0.0,0.0,0.0,0.0,0.0,0.0,0.0,0.0,0.0,0.0,0.0,0.0,0.0,0.0,0.0,0.0,0.0,0.0,0.0,0.0,0.0,0.0,0.0,0.0,0.0,0.0,0.0,0.0,0.0,0.0,0.0,0.0,0.0,0.0,0.0,0.0,0.0,0.0,0.0,0.0,0.0,0.0,0.0,0.0,0.0,0.0,0.0,0.0,0.0,0.0,0.0,0.0,0.0,0.0,0.0,0.0,0.0,0.0,0.0,0.0,0.0,0.0,0.0,0.0,0.0,0.0,0.0,0.0,0.0,0.0,0.0,0.0,0.0,0.0,0.0,0.0,0.0,0.0,0.0,0.0,0.0,0.0,0.0,0.0,0.0,0.0,0.0,0.0,0.0,0.0,0.0,0.0,0.0,0.0,0.0,0.0,0.0,0.0,0.0,0.0,0.0,0.0,0.0,0.0,0.0,0.0,0.0,0.0,0.0,0.0,0.0,0.0,0.0,0.0,0.0,0.0,0.0,0.0,0.0,0.0,0.0,0.0,0.0,0.0,0.0,0.0,0.0,0.0,0.0,0.0,0.0,0.0,0.0,0.0,0.0,0.0,0.0,0.0,0.0,0.0,0.0,0.0,0.0,0.0,0.0,0.0,0.0,0.0,0.0,0.0,0.0,0.0,0.0,0.0,0.0,0.0,0.0,0.0,0.0,0.0,0.0,0.0,0.0,0.0,0.0,0.0,0.0,0.0,0.0,0.0,0.0,0.0,0.0,0.0,0.0,0.0,0.0,0.0,0.0,0.0,0.0,0.0,0.0,0.0,0.0,0.0,0.0,0.0,0.0,0.0,0.0,0.0,0.0,0.0,0.0,0.0,0.0,0.0,0.0,0.0,0.0,0.0,0.0,0.0,0.0,0.0,0.0,0.0,0.0,0.0,0.0,0.0,0.0,0.0,0.0,0.0,0.0,0.0,0.0,0.0,0.0,0.0,0.0,0.0,0.0,0.0,0.0,0.0,0.0,0.0,0.0,0.0,0.0,0.0,0.0,0.0,0.0,0.0,0.0,0.0,0.0,0.0,0.0,0.0,0.0,0.0,0.0,0.0,0.0,0.0,0.0,0.0,0.0,0.0,0.0,0.0,0.0,0.0,0.0,0.0,0.0,0.0,0.0,0.0,0.0,0.0,0.0,0.0,0.0,0.0,0.0,0.0,0.0,0.0,0.0,0.0,0.0,0.0,0.0,0.0,0.0,0.0,0.0,0.0,0.0,0.0,0.0,0.0,0.0,0.0,0.0,0.0,0.0,0.0,0.0,0.0,0.0,0.0,0.0,0.0,0.0,0.0,0.0,0.0,0.0,0.0,0.0,0.0,0.0,0.0,0.0,0.0,0.0,0.0,0.0,0.0,0.0,0.0,0.0,0.0,0.0,0.0,0.0,0.0,0.0,0.0,0.0,0.0,0.0,0.0,0.0,0.0,0.0,0.0,0.0,0.0,0.0,0.0,0.0,0.0,0.0,0.0,0.0,0.0,0.0,0.0,0.0,0.0,0.0,0.0,0.0,0.0,0.0,0.0,0.0,0.0,0.0,0.0,0.0,0.0,0.0,0.0,0.0,0.0,0.0,0.0,0.0,0.0,0.0,0.0,0.0,0.0,0.0,0.0,0.0,0.0,0.0,0.0,0.0,0.0,0.0,0.0,0.0,0.0,0.0,0.0,0.0,0.0,0.0,0.0,0.0,0.0,0.0,0.0,0.0,0.0,0.0,0.0,0.0,0.0,0.0,0.0,0.0,0.0,0.0,0.0,0.0,0.0,0.0,0.0,0.0,0.0,0.0,0.0,0.0,0.0,0.0,0.0,0.0,0.0,0.0,0.0,0.0,0.0,0.0,0.0,0.0,0.0,0.0,0.0,0.0,0.0,0.0,0.0,0.0,0.0,0.0,0.0,0.0,0.0,0.0,0.0,0.0,0.0,0.0,0.0,0.0,0.0,0.0,0.0,0.0,0.0,0.0,0.0,0.0,0.0,0.0,0.0,0.0,0.0,0.0,0.0,0.0,0.0,0.0,0.0,0.0,0.0,0.0,0.0,0.0,0.0,0.0,0.0,0.0,0.0,0.0,0.0,0.0,0.0,0.0,0.0,0.0,0.0,0.0,0.0,0.0,0.0,0.0,0.0,0.0,0.0,0.0,0.0,0.0,0.0,0.0,0.0,0.0,0.0,0.0,0.0,0.0,0.0,0.0,0.0,0.0,0.0,0.0,0.0,0.0,0.0,0.0,0.0,0.0,0.0,0.0,0.0,0.0,0.0,0.0,0.0,0.0,0.0,0.0,0.0,0.0,0.0,0.0,0.0,0.0,0.0,0.0,0.0,0.0,0.0,0.0,0.0,0.0,0.0,0.0,0.0,0.0,0.0,0.0,0.0,0.0,0.0,0.0,0.0,0.0,0.0,0.0,0.0,0.0,0.0,0.0,0.0,0.0,0.0,0.0,0.0,0.0,0.0,0.0,0.0,0.0,0.0,0.0,0.0,0.0,0.0,0.0,0.0,0.0,0.0,0.0,0.0,0.0,0.0,0.0,0.0,0.0,0.0,0.0,0.0,0.0,0.0,0.0,0.0,0.0,0.0,0.0,0.0,-3.1801,-3.0697,0.0,0.0,0.0,0.0,0.0,0.0,0.0,0.0,0.0,0.0,0.0,0.0,0.0,0.0,0.0,0.0,0.0,0.0,0.0,0.0,0.0,0.0,0.0,0.0,0.0,0.0,0.0,0.0,0.0,0.0,0.0,0.0,0.0,0.0,0.0,0.0,0.0,0.0,0.0,0.0,0.0,0.0,0.0,0.0,0.0,0.0,0.0,0.0,0.0,0.0,0.0,0.0,0.0,0.0,0.0,0.0,0.0,0.0,0.0,0.0,0.0,0.0,0.0,0.0,0.0,0.0,0.0,0.0,0.0,0.0,0.0,0.0,0.0,0.0,0.0,0.0,0.0,0.0,0.0,0.0,0.0,0.0,0.0,0.0,0.0,0.0,0.0,0.0,0.0,0.0,0.0,0.0,0.0,0.0,0.0,0.0,0.0,0.0,0.0,0.0,0.0,0.0,0.0,0.0,0.0,0.0,0.0,0.0,0.0,0.0,0.0,0.0,0.0,0.0,-3.3117,-3.186,0.0,0.0,0.0,0.0,0.0,0.0,0.0,0.0,0.0,0.0,0.0,0.0,0.0,0.0,0.0,0.0,0.0,0.0,0.0,0.0,0.0,0.0,0.0,0.0,0.0,0.0,0.0,0.0,0.0,0.0,0.0,0.0,0.0,0.0,0.0,0.0,0.0,0.0,0.0,0.0,0.0,0.0,0.0,0.0,0.0,0.0,0.0,0.0,0.0,0.0,0.0,0.0,0.0,0.0,0.0,0.0,0.0,0.0,0.0,0.0,0.0,0.0,0.0,0.0,0.0,0.0,0.0,0.0,0.0,0.0,0.0,0.0,0.0,0.0,0.0,0.0,0.0,0.0,0.0,0.0,0.0,0.0,0.0,0.0,0.0,0.0,0.0,0.0,0.0,0.0,0.0,0.0,0.0,0.0,0.0,0.0,0.0,0.0,0.0,0.0,0.0,0.0,0.0,0.0,0.0,0.0,0.0,0.0,-3.6528,-3.6872,-3.6872,-3.6767,-3.6662,-3.6474,-3.451,-3.3308,-3.2716,-3.2264,0.0,0.0,0.0,0.0,0.0,0.0,0.0,0.0,0.0,0.0,0.0,0.0,0.0,0.0,0.0,0.0,0.0,0.0,0.0,0.0,0.0,0.0,0.0,0.0,0.0,0.0,0.0,0.0,0.0,0.0,0.0,0.0,0.0,0.0,0.0,0.0,0.0,0.0,-1.3663,-1.3875,-1.397,-1.4019,-1.3564,0.0,0.0,0.0,0.0,0.0,0.0,0.0,0.0,0.0,0.0,0.0,0.0,0.0,0.0,0.0,0.0,0.0,0.0,0.0,0.0,0.0,0.0,0.0,0.0,0.0,0.0,0.0,0.0,0.0,0.0,0.0,0.0,0.0,0.0,0.0,0.0,0.0,0.0,0.0,0.0,0.0,0.0,0.0,-2.4898,-2.5909,0.0,0.0,0.0,0.0,0.0,0.0,0.0,0.0,0.0,0.0,0.0,0.0,0.0,-3.5266,-3.5266,-3.6118,-3.6544,-3.6544,-3.7281,-3.7625,-3.7625,-3.7642,-3.7625,-3.749,-3.5812,0.0,-3.4393,-3.3614,0.0,0.0,0.0,0.0,0.0,0.0,0.0,0.0,0.0,0.0,0.0,0.0,0.0,0.0,0.0,0.0,0.0,0.0,0.0,0.0,0.0,0.0,0.0,0.0,0.0,0.0,0.0,0.0,0.0,0.0,0.0,0.0,0.0,0.0,0.0,0.0,-1.3855,-1.4065,-1.4266,-1.4346,-1.4482,-1.4609,-1.4274,-1.3855,-1.3506,-1.3098,0.0,0.0,0.0,0.0,0.0,0.0,0.0,0.0,0.0,0.0,0.0,0.0,0.0,0.0,0.0,0.0,0.0,0.0,0.0,0.0,0.0,0.0,0.0,0.0,0.0,0.0,0.0,0.0,0.0,0.0,0.0,0.0,0.0,0.0,0.0,0.0,0.0,0.0,0.0,-2.4959,-2.6035,-2.7408,-2.7465,-2.7822,0.0,0.0,0.0,0.0,0.0,0.0,0.0,0.0,0.0,-3.3893,-3.5136,-3.5828,-3.5828,-3.7119,-3.775,-3.7766,-3.8496,-3.8897,-3.8897,-3.8897,-3.8595,-3.8044,-3.6849,-3.5955,-3.5275,-3.4204,-3.3518,-3.3195,0.0,0.0,0.0,0.0,-3.1734,-3.1604,0.0,0.0,0.0,0.0,0.0,0.0,0.0,0.0,0.0,0.0,0.0,0.0,0.0,0.0,0.0,-1.0969,0.0,0.0,0.0,0.0,0.0,0.0,0.0,0.0,0.0,0.0,0.0,0.0,-1.4137,-1.4353,-1.4713,-1.4784,-1.4832,-1.4775,-1.4895,-1.4482,-1.3745,-1.376,-1.3797,0.0,0.0,0.0,0.0,0.0,0.0,0.0,0.0,0.0,0.0,0.0,0.0,0.0,0.0,0.0,0.0,0.0,0.0,0.0,0.0,0.0,0.0,0.0,0.0,0.0,0.0,0.0,0.0,0.0,0.0,0.0,0.0,0.0,0.0,0.0,0.0,0.0,0.0,-2.6272,-2.7151,-2.8494,-2.8652,-2.8904,0.0,0.0,0.0,0.0,0.0,0.0,-3.308,-3.3404,-3.3892,-3.4578,-3.5712,-3.6339,-3.6388,-3.802,-3.8874,-3.8891,-3.9426,-3.9677,-3.9661,-3.9476,-3.904,-3.8337,-3.7336,-3.6539,-3.5844,-3.4593,-3.405,-3.4,-3.3797,-3.3658,-3.3555,-3.3346,-3.3118,-3.2902,0.0,0.0,0.0,0.0,0.0,0.0,0.0,0.0,0.0,0.0,0.0,0.0,0.0,0.0,-1.0739,-1.0969,-1.1009,-1.1256,0.0,0.0,0.0,0.0,0.0,0.0,0.0,0.0,0.0,-1.4057,-1.4425,-1.4713,-1.4864,-1.5229,-1.538,-1.5371,-1.5644,-1.5325,-1.453,-1.4505,-1.4544,-1.4496,0.0,0.0,0.0,0.0,0.0,0.0,0.0,0.0,0.0,0.0,0.0,0.0,0.0,0.0,0.0,0.0,0.0,0.0,0.0,0.0,0.0,0.0,0.0,0.0,0.0,0.0,0.0,0.0,0.0,0.0,0.0,0.0,0.0,0.0,0.0,0.0,0.0,0.0,0.0,-2.877,-2.9648,0.0,0.0,0.0,0.0,-3.1486,-3.2466,-3.308,-3.3209,-3.4119,-3.4706,-3.4899,-3.6421,-3.7269,-3.7434,-3.8891,-3.961,-3.9627,-3.9661,-3.9677,-3.9661,-3.8957,-3.8639,-3.8522,-3.7034,-3.6398,-3.625,-3.5004,-3.4399,-3.43,-3.425,-3.4101,-3.3848,-3.3694,-3.3591,-3.345,0.0,0.0,0.0,0.0,0.0,0.0,0.0,0.0,0.0,0.0,0.0,0.0,0.0,-1.0301,-1.0283,-1.0509,-1.0686,-1.0949,-1.1289,0.0,0.0,0.0,0.0,0.0,0.0,0.0,-1.4065,-1.4281,-1.4649,-1.4822,-1.4813,-1.5083,-1.5532,-1.5938,-1.5816,-1.5609,-1.5359,-1.5388,-1.5048,-1.4569,-1.4441,-1.4171,0.0,0.0,0.0,0.0,0.0,0.0,0.0,0.0,0.0,0.0,0.0,0.0,0.0,0.0,0.0,0.0,0.0,0.0,0.0,0.0,0.0,0.0,0.0,0.0,0.0,0.0,0.0,0.0,0.0,0.0,0.0,0.0,0.0,0.0,0.0,0.0,0.0,-3.0304,-3.0437,0.0,-3.1502,-3.1769,-3.2022,-3.227,-3.3176,-3.3827,-3.4023,-3.4559,-3.4899,-3.5041,-3.6198,-3.7143,-3.7759,-3.8837,-3.9664,-4.0221,-4.0221,-3.9983,-3.9525,-3.9253,-3.856,-3.7611,-3.6975,-3.6375,-3.5828,-3.5312,-3.4913,-3.4691,-3.4594,-3.4448,-3.425,-3.4151,-3.405,-3.4,0.0,0.0,0.0,0.0,0.0,0.0,0.0,0.0,0.0,0.0,0.0,-0.9927,-1.0148,-1.011,-1.011,-1.0308,-1.0477,-1.0692,-1.0989,0.0,0.0,0.0,0.0,0.0,0.0,-1.3992,-1.4148,-1.4324,-1.4687,-1.4718,-1.4638,-1.4959,-1.5329,-1.5726,-1.5748,-1.586,-1.5982,-1.6096,-1.5737,-1.4982,-1.5007,-1.4808,-1.4601,0.0,0.0,0.0,0.0,0.0,0.0,0.0,0.0,0.0,0.0,0.0,0.0,0.0,0.0,0.0,0.0,0.0,0.0,0.0,0.0,0.0,0.0,0.0,0.0,0.0,0.0,0.0,0.0,0.0,0.0,0.0,0.0,0.0,0.0,-2.8847,-2.9652,-3.119,-3.1319,-3.1576,-3.2379,-3.2649,-3.2854,-3.3157,-3.3825,-3.4349,-3.4546,-3.4804,-3.5041,-3.5152,-3.6135,-3.6928,-3.7577,-3.8435,-3.9143,-3.9717,-3.9717,-3.946,-3.8982,-3.8726,-3.8077,-3.7103,-3.674,-3.6259,-3.5711,-3.565,-3.5424,-3.5165,-3.4994,-3.4804,-3.4691,-3.4594,-3.4497,-3.4366,0.0,0.0,0.0,0.0,0.0,0.0,0.0,0.0,0.0,0.0,-0.9585,-0.9692,-0.9958,-0.9983,-1.0047,-1.0238,-1.0301,-1.0483,-1.0962,-1.0989,0.0,0.0,0.0,0.0,-1.376,-1.3962,-1.408,-1.4093,-1.4462,-1.4554,-1.4387,-1.4698,-1.4885,-1.4894,-1.5429,-1.5878,-1.6318,-1.6689,-1.6473,-1.5859,-1.5822,-1.5556,-1.5199,0.0,0.0,0.0,0.0,0.0,0.0,0.0,0.0,0.0,0.0,0.0,0.0,0.0,0.0,0.0,0.0,0.0,0.0,0.0,0.0,0.0,0.0,0.0,0.0,0.0,0.0,0.0,0.0,0.0,0.0,0.0,0.0,0.0,-2.8539,-2.9448,-3.0365,-3.1305,-3.2284,-3.2958,-3.3245,-3.3507,-3.3764,-3.4068,-3.4333,-3.4546,-3.4691,-3.4947,-3.5152,-3.5291,-3.6177,-3.6734,-3.6905,-3.7775,-3.8196,-3.8213,-3.8213,-3.8196,-3.8145,-3.7445,-3.7103,-3.7035,-3.6344,-3.6019,-3.6019,-3.6019,-3.5949,-3.5773,-3.5429,-3.5245,-3.5088,-3.5088,-3.493,-3.4559,0.0,0.0,0.0,0.0,0.0,0.0,0.0,0.0,0.0,0.0,-0.9693,-0.9781,-0.9856,-0.974,-0.9734,-1.0047,-1.011,-1.0276,-1.0675,0.0,0.0,0.0,0.0,0.0,-1.3072,-1.3279,-1.3499,-1.3727,-1.4071,-1.423,-1.4192,-1.451,-1.4764,-1.4881,-1.4836,-1.5196,-1.5909,-1.6646,-1.6794,-1.6556,-1.6035,-1.5859,-1.5964,0.0,0.0,0.0,0.0,0.0,0.0,0.0,0.0,0.0,0.0,0.0,0.0,0.0,0.0,0.0,0.0,0.0,0.0,0.0,0.0,0.0,0.0,0.0,0.0,0.0,0.0,0.0,0.0,0.0,0.0,0.0,-2.7304,-2.8299,-2.947,-2.9999,-3.0628,-3.157,-3.2113,-3.2293,-3.1924,-3.2572,-3.3126,-3.3274,-3.4056,-3.4594,-3.4851,-3.5088,-3.5291,-3.5446,-3.5842,-3.6378,-3.7058,-3.7398,-3.7909,-3.8656,-3.8656,-3.8363,-3.7897,-3.769,-3.7309,-3.6772,-3.6506,-3.6318,-3.6216,-3.6165,-3.6079,-3.5949,-3.5728,-3.5532,-3.5333,-3.5333,-3.4877,-3.4205,0.0,0.0,0.0,0.0,0.0,0.0,0.0,0.0,0.0,0.0,-0.9642,-0.9676,-0.9676,-0.9439,-0.9542,-0.9977,-0.9945,-1.0052,-1.0555,0.0,0.0,0.0,0.0,-1.2255,-1.2736,-1.2938,-1.3204,-1.3378,-1.3705,-1.3902,-1.3853,-1.4171,-1.4487,-1.4662,-1.4608,-1.4798,-1.5205,-1.5669,-1.628,-1.6853,-1.6441,-1.6403,-1.658,-1.6537,-1.6488,-1.6508,-1.6672,-1.6888,-1.7154,-1.7512,0.0,0.0,0.0,0.0,0.0,0.0,0.0,0.0,0.0,0.0,0.0,0.0,0.0,0.0,0.0,0.0,0.0,0.0,0.0,0.0,0.0,0.0,0.0,0.0,-2.7746,-2.8519,-2.9623,-2.9863,-3.0381,-3.1408,-3.1706,-3.17,-3.1598,-3.2369,-3.2967,-3.3161,-3.4039,-3.4691,-3.4947,-3.5182,-3.5383,-3.552,-3.5773,-3.6154,-3.673,-3.6904,-3.7258,-3.7836,-3.7879,-3.7696,-3.7346,-3.7346,-3.7119,-3.6702,-3.6602,-3.6544,-3.6444,-3.6437,-3.6335,-3.6251,0.0,0.0,0.0,0.0,-3.4334,-3.3792,0.0,0.0,0.0,0.0,0.0,0.0,0.0,0.0,0.0,0.0,0.0,-0.9484,-0.9484,-0.9262,-0.9395,-0.9964,-0.9831,-0.9978,0.0,0.0,0.0,-1.1211,-1.1664,-1.208,-1.2423,-1.2825,-1.301,-1.3028,-1.333,-1.3534,-1.3511,-1.3821,-1.4139,-1.4327,-1.4606,-1.4625,-1.4532,-1.4567,-1.5495,-1.6997,-1.7039,-1.6978,-1.6994,-1.7766,-1.7669,-1.7197,-1.7608,-1.7787,-1.789,-1.8238,0.0,0.0,0.0,0.0,0.0,0.0,0.0,0.0,0.0,0.0,0.0,0.0,0.0,0.0,0.0,0.0,0.0,0.0,0.0,0.0,0.0,0.0,0.0,0.0,-2.825,-2.866,-2.9261,-2.9354,-2.9785,-3.0919,-3.1097,-3.1261,-3.1533,-3.2401,-3.2999,-3.3285,-3.4182,-3.4851,-3.5105,-3.5245,0.0,0.0,0.0,-3.6062,-3.6208,-3.6419,-3.6502,-3.6544,-3.6643,-3.6742,-3.6725,-3.6725,-3.6725,-3.6725,-3.6742,-3.6702,-3.6702,-3.6702,-3.665,-3.6522,-3.6113,-3.548,-3.4702,-3.3775,-3.342,-3.3294,0.0,0.0,0.0,0.0,0.0,0.0,0.0,0.0,0.0,-0.9484,-0.9484,-0.9484,-0.9484,-0.9436,-0.9545,-0.9983,-0.9939,-1.0123,0.0,0.0,-1.0769,-1.0896,-1.1142,-1.1369,-1.1553,-1.2067,-1.2351,-1.2469,-1.2902,-1.323,-1.3511,-1.3821,-1.4139,-1.4327,-1.4606,-1.4771,-1.4883,-1.4917,-1.5991,-1.7765,-1.7784,-1.742,-1.6917,-1.7323,-1.7606,-1.798,-1.84,-1.8825,-1.9247,-1.9472,-1.9695,-1.988,-1.9752,-1.9954,0.0,0.0,0.0,0.0,0.0,0.0,0.0,0.0,0.0,0.0,0.0,0.0,0.0,0.0,0.0,0.0,0.0,0.0,0.0,-2.8192,-2.8556,-2.8826,-2.9124,-2.914,-2.9454,-3.0243,-3.0609,-3.0619,-3.0251,-3.1521,-3.2425,-3.2669,-3.4044,-3.4994,-3.5245,-3.5458,-3.5639,-3.5773,-3.6036,-3.6208,-3.6259,-3.6419,-3.6585,-3.6748,-3.6788,0.0,-3.6948,-3.6948,-3.6948,-3.6948,-3.6829,-3.6788,-3.6788,-3.6725,-3.6319,-3.5687,-3.5509,-3.4904,-3.4066,-3.3174,-3.2838,-3.269,0.0,0.0,0.0,0.0,0.0,0.0,0.0,0.0,0.0,0.0,-0.9479,-0.9498,-0.9426,-0.9352,-0.9517,-0.997,-1.0174,0.0,0.0,-1.0624,-1.0624,-1.0681,-1.0933,-1.1122,-1.1185,-1.1809,-1.212,-1.2182,-1.2736,-1.3155,-1.339,-1.3821,-1.4139,-1.4327,-1.4597,-1.4868,-1.5023,-1.5159,-1.6258,-1.7971,-1.8026,-1.7686,-1.7304,-1.7722,-1.808,-1.8462,-1.8881,-1.9369,-1.9794,-2.0177,-2.0333,-2.0459,-2.0552,-2.0863,-2.1148,0.0,0.0,0.0,0.0,0.0,0.0,0.0,0.0,0.0,0.0,0.0,0.0,0.0,0.0,-2.6039,-2.6768,0.0,-2.8076,-2.8559,-2.8811,-2.9014,-2.9167,-2.9321,-2.9539,-2.9844,-3.0106,-3.0186,-2.9902,-3.141,-3.2426,-3.259,-3.4101,-3.5105,-3.54,-3.5549,-3.5711,-3.5888,-3.6105,-3.6318,-3.6402,-3.6568,-3.6708,-3.6788,-3.6869,-3.6948,-3.6987,-3.6987,-3.6987,-3.6987,-3.6948,-3.6908,-3.6873,-3.6409,-3.5797,-3.5063,-3.4585,-3.4071,-3.3485,-3.2686,-3.2372,-3.23,0.0,0.0,0.0,0.0,0.0,0.0,0.0,0.0,0.0,0.0,-0.9533,-0.9507,-0.9303,-0.9211,-0.9419,0.0,0.0,0.0,0.0,-1.0624,-1.0624,-1.0624,-1.087,-1.1059,-1.1122,-1.1685,-1.2003,-1.2127,-1.2683,-1.3042,-1.3268,-1.37,-1.401,-1.4267,-1.4602,-1.4819,-1.4894,-1.5286,-1.6391,-1.8031,-1.7978,-1.7872,-1.7735,-1.8148,-1.851,-1.8822,-1.9175,-1.9678,-2.0177,-2.0489,-2.0644,-2.0809,-2.1128,-2.1502,-2.1811,-2.1649,-2.1975,0.0,0.0,0.0,0.0,0.0,0.0,0.0,0.0,-2.4321,-2.4581,-2.5098,-2.6002,-2.6864,-2.7328,-2.8027,-2.8621,-2.8873,-2.9075,-2.9213,-2.935,-2.9576,-2.9726,-2.9786,-2.9798,-2.9962,-3.0256,-3.1654,-3.2611,-3.294,-3.4293,-3.5245,-3.5537,-3.5639,-3.58,-3.6019,-3.6216,-3.6402,-3.6544,-3.6708,-3.6811,-3.6829,-3.6948,-3.7027,-3.7009,-3.7009,-3.7009,-3.7009,-3.7027,-3.69,-3.6707,-3.5917,-3.5144,-3.4389,-3.3617,-3.3194,-3.2979,-3.2352,-3.2108,-3.2108,0.0,0.0,0.0,0.0,0.0,0.0,0.0,0.0,0.0,0.0,0.0,0.0,0.0,0.0,0.0,0.0,0.0,0.0,-1.0624,-1.0624,-1.0624,-1.0624,-1.0744,-1.0933,-1.1122,-1.1498,-1.1809,-1.2127,-1.2498,-1.2805,-1.3042,-1.339,-1.3692,-1.3941,-1.4355,-1.4523,-1.4594,-1.5194,-1.6412,-1.8031,-1.8016,-1.8008,-1.794,-1.7998,-1.8453,-1.8989,-1.9401,-2.0062,-2.0829,-2.0829,-2.0974,-2.1205,-2.1436,-2.1655,-2.1863,-2.2188,-2.2627,-2.2889,-2.2766,-2.2763,-2.2995,-2.3629,-2.3923,-2.4155,0.0,-2.5411,-2.6005,-2.6541,-2.728,-2.7917,-2.8192,-2.8669,-2.9029,-2.9075,-2.9275,-2.9518,-2.9653,-2.9738,-2.981,-2.993,-2.9973,-3.0304,-3.1238,-3.2039,-3.2871,-3.3806,-3.4731,-3.5383,-3.5594,-3.58,-3.6019,-3.6165,-3.6377,-3.6544,-3.6661,-3.6748,-3.6869,-3.6987,-3.697,-3.7048,-3.7108,-3.7108,-3.7108,-3.7108,-3.7009,-3.6584,-3.5899,-3.5127,-3.4354,-3.3546,-3.2809,-3.2529,-3.2476,-3.2267,-3.2144,-3.2108,0.0,0.0,0.0,0.0,0.0,0.0,0.0,0.0,0.0,0.0,0.0,0.0,0.0,0.0,0.0,0.0,0.0,0.0,-1.0624,-1.0624,-1.0624,-1.0624,-1.0744,-1.087,-1.1122,-1.1435,-1.1747,-1.2003,-1.2375,-1.2674,-1.2781,-1.3268,-1.3579,-1.3663,-1.4268,-1.4514,-1.4637,-1.6206,-1.7311,-1.7976,-1.8027,-1.8008,-1.8037,-1.8281,-1.8679,-1.9243,-1.9482,-2.0151,0.0,0.0,-2.1282,-2.1436,-2.1731,-2.1959,-2.2176,-2.2478,-2.2927,-2.3279,-2.3062,-2.3282,-2.3527,-2.3455,-2.3769,-2.4305,-2.4935,-2.5619,-2.6272,-2.6945,-2.756,-2.8122,-2.851,-2.8842,-2.9183,-2.9412,-2.9547,-2.9697,-2.9858,-2.9886,-3.0163,-3.0778,-3.0871,-3.1046,-3.1446,-3.2618,-3.3594,-3.4063,-3.4918,-3.552,-3.5728,-3.6314,-3.6524,-3.6251,-3.6936,-3.7078,-3.6766,-3.6869,-3.697,-3.7048,-3.7048,-3.7126,-3.7203,-3.7203,-3.7203,-3.7203,-3.7182,-3.6741,-3.5909,-3.5188,-3.4411,-3.36,-3.2841,-3.2523,-3.2489,-3.2371,-3.2319,-3.2197,0.0,0.0,0.0,0.0,0.0,0.0,0.0,0.0,0.0,0.0,0.0,0.0,0.0,0.0,0.0,0.0,0.0,0.0,0.0,-1.0498,-1.0498,-1.0491,-1.0555,-1.0744,-1.0989,-1.131,-1.156,-1.1817,-1.2174,-1.239,-1.2593,-1.3141,-1.3405,-1.3529,-1.4018,-1.4543,-1.5318,-1.7197,-1.8055,-1.8154,-1.8213,-1.8271,-1.8398,-1.8701,-1.9082,-1.9463,-1.9673,-2.0317,0.0,0.0,-2.1512,-2.1655,-2.1949,-2.2252,-2.2478,-2.2628,-2.3051,-2.3417,-2.3245,-2.3496,-2.3729,-2.338,-2.3718,-2.4363,-2.5048,-2.5715,-2.6418,-2.7152,-2.771,-2.8268,-2.8732,-2.9029,-2.9384,-2.9894,-2.9855,-2.996,-3.0526,-3.044,-3.0718,-3.166,-3.1984,-3.2144,-3.2205,-3.3283,-3.4118,-3.4471,-3.5374,-3.5932,-3.6168,-3.6956,-3.7288,-3.6999,-3.7498,-3.7579,-3.7143,-3.7053,-3.7048,-3.7108,-3.7108,-3.7185,-3.7334,-3.7334,-3.7334,-3.7334,-3.7297,-3.673,-3.5774,-3.5226,-3.4394,-3.342,-3.2836,-3.2606,-3.2606,-3.2507,-3.2457,-3.2334,0.0,0.0,0.0,0.0,0.0,0.0,0.0,0.0,0.0,0.0,0.0,0.0,0.0,0.0,0.0,0.0,0.0,0.0,0.0,-1.0308,-1.0301,-1.0231,-1.0231,-1.0351,-1.0591,-1.0926,-1.1247,-1.1622,-1.164,-1.1969,-1.2613,-1.2901,-1.3172,-1.3475,-1.3534,-1.4765,-1.6863,-1.7677,-1.8201,-1.854,-1.8762,-1.9059,-1.9248,-1.9268,-1.9531,-1.9893,-2.0108,0.0,0.0,-2.1436,-2.1655,-2.1807,-2.2025,-2.2252,-2.2478,-2.2628,-2.2893,-2.3128,-2.3152,-2.3233,-2.335,-2.3754,-2.406,-2.4465,-2.5048,-2.5865,-2.6654,-2.7363,-2.7959,-2.8541,-2.8982,-2.9321,-2.9726,-3.0521,-3.0251,-3.0405,-3.1938,-3.1606,-3.156,-3.2385,-3.3201,-3.3769,-3.3922,-3.3956,-3.4334,-3.5207,-3.6177,-3.6831,-3.7041,-3.7905,-3.8481,-3.8737,-3.8113,-3.784,-3.7947,-3.7316,-3.7048,-3.7108,-3.7108,-3.7223,-3.7392,-3.7392,-3.7392,-3.7392,-3.7334,-3.6447,-3.5031,-3.4995,-3.4057,-3.2623,-3.2606,-3.2606,-3.2606,-3.2606,-3.2606,-3.25,0.0,0.0,0.0,0.0,0.0,0.0,0.0,0.0,0.0,0.0,0.0,0.0,0.0,0.0,0.0,0.0,-0.9989,0.0,0.0,-1.0147,-1.0231,-1.0193,-1.0354,-1.0497,-1.0607,-1.073,-1.1019,-1.1612,-1.1584,-1.1956,-1.2615,-1.3581,-1.4405,-1.506,-1.6647,-1.7451,-1.7736,-1.8318,-1.8764,-1.9025,-1.8976,-1.9107,-1.9316,-1.96,-1.9785,-1.9951,0.0,0.0,0.0,-2.1578,-2.1731,-2.1832,-2.1808,-2.1861,-2.2017,-2.221,-2.2635,-2.2948,-2.2904,-2.3216,-2.3567,-2.3697,-2.4086,-2.4637,-2.5384,-2.6096,-2.6826,-2.756,-2.8155,-2.8748,-2.9167,-2.9824,-3.0392,-3.0771,-3.1075,-3.1554,-3.221,-3.2171,-3.236,-3.3251,-3.364,-3.4217,-3.5338,-3.5532,-3.5743,-3.6135,-3.7077,-3.7733,-3.7837,-3.8711,-3.9129,-3.8938,-3.9181,-3.8928,-3.8088,-3.7923,-3.7655,-3.7241,-3.7354,-3.7466,-3.754,-3.754,-3.754,-3.754,-3.7521,-3.6577,-3.5118,-3.5118,-3.4193,-3.2802,-3.2802,-3.2802,-3.2802,-3.2802,-3.2802,-3.2592,0.0,0.0,0.0,0.0,0.0,0.0,0.0,0.0,0.0,0.0,0.0,0.0,0.0,0.0,0.0,0.0,0.0,-0.9963,0.0,0.0,-1.0073,-0.9927,-1.008,-1.0361,-1.0562,-1.0989,-1.1424,-1.188,-1.2151,-1.263,-1.3324,-1.4234,-1.5069,-1.6026,-1.7731,-1.8294,-1.8137,-1.8573,-1.8965,-1.9303,-1.9254,-1.9461,-1.9775,-2.0039,-2.0146,0.0,0.0,0.0,-2.1282,-2.1655,-2.1694,-2.1582,-2.1639,-2.1728,-2.1778,-2.1796,-2.2196,-2.2616,-2.2438,-2.2931,-2.3467,-2.3599,-2.4131,-2.4821,-2.5605,-2.6297,-2.6982,-2.7775,-2.8365,-2.8905,-2.9639,-3.0268,-3.0935,-3.156,-3.1866,-3.2284,-3.3025,-3.2908,-3.3198,-3.4468,-3.4631,-3.5191,-3.6534,-3.6999,-3.7194,-3.6989,-3.795,-3.8611,-3.864,-3.9593,-4.0014,-3.9782,-4.0053,-3.9634,-3.855,-3.8368,-3.7998,-3.7334,-3.7521,-3.7577,-3.7577,-3.7577,-3.7577,-3.7577,-3.7577,-3.6684,-3.5204,-3.5204,-3.4294,-3.2916,-3.2916,-3.2916,-3.2916,-3.2916,-3.2737,-3.2277,0.0,0.0,0.0,0.0,0.0,0.0,0.0,0.0,0.0,0.0,0.0,0.0,0.0,0.0,0.0,0.0,0.0,0.0,0.0,0.0,0.0,-0.953,-0.9552,-0.9915,-1.0635,-1.1703,-1.2308,-1.2301,-1.3097,-1.3852,-1.4566,-1.4641,-1.5259,-1.63,-1.6711,-1.7382,-1.8124,-1.8415,-1.8835,-1.9364,-1.9507,-1.9976,-2.0566,-2.0566,0.0,0.0,0.0,0.0,-2.1282,-2.1655,-2.1487,-2.1146,-2.1564,-2.1734,-2.1683,-2.1442,-2.1695,-2.2092,-2.193,-2.242,-2.303,-2.3509,-2.4203,-2.5005,-2.5729,-2.6457,-2.7174,-2.8024,-2.8462,-2.9108,-3.0353,-3.0667,-3.1273,-3.2854,-3.2546,-3.2674,-3.4268,-3.394,-3.4134,-3.5778,-3.6155,-3.6618,-3.7467,-3.832,-3.8504,-3.7864,-3.8843,-3.9443,-3.9491,-4.0509,-4.1123,-4.1209,-4.0665,-4.0036,-3.9375,-3.8649,-3.798,-3.7429,-3.754,-3.7577,-3.7577,-3.7577,-3.7577,-3.7577,-3.7577,-3.6684,-3.5204,-3.5204,-3.4294,-3.2916,-3.2916,-3.2916,-3.2916,-3.2916,-3.2384,-3.1581,0.0,0.0,0.0,0.0,0.0,0.0,0.0,0.0,0.0,0.0,0.0,0.0,0.0,0.0,0.0,0.0,0.0,0.0,0.0,0.0,0.0,0.0,0.0,0.0,0.0,0.0,0.0,0.0,0.0,-1.3323,-1.3787,-1.4903,-1.5479,-1.5617,-1.7055,-1.781,-1.7932,-1.8605,-1.9238,-1.979,0.0,-2.0159,-2.0566,0.0,0.0,0.0,0.0,0.0,-2.1436,-2.1731,-2.1428,-2.1066,-2.1043,-2.1017,-2.1016,-2.1206,-2.1493,-2.1851,-2.2209,-2.2653,-2.3198,-2.3839,-2.4536,-2.5286,-2.5893,-2.6698,-2.7423,-2.8088,-2.8605,-2.9343,-3.04,-3.1194,-3.1965,-3.2935,-3.3356,-3.3745,-3.4301,-3.4759,-3.5218,-3.5811,-3.6555,-3.7336,-3.8238,-3.8622,-3.9024,-3.9595,-3.9995,-4.0243,-4.0357,-4.0849,-4.1123,-4.1209,-4.1143,-4.0823,-4.0182,-3.8977,-3.8096,-3.754,-3.7577,-3.7577,-3.7577,-3.7577,-3.7577,-3.7577,-3.7577,-3.6684,-3.5204,-3.5204,-3.4294,-3.2916,-3.2916,-3.2916,-3.2916,-3.2916,-3.2384,-3.1581,0.0,0.0,0.0,0.0,0.0,0.0,0.0,0.0,0.0,0.0,0.0,0.0,0.0,0.0,0.0,0.0,0.0,0.0,0.0,0.0,0.0,0.0,0.0,0.0,0.0,0.0,0.0,0.0,0.0,0.0,0.0,-1.4708,-1.5316,-1.5511,-1.6891,-1.7629,-1.7899,-1.8594,0.0,0.0,0.0,0.0,0.0,0.0,0.0,0.0,0.0,-2.1436,-2.1745,-2.1501,-2.1239,-2.0903,-2.0606,-2.061,-2.0797,-2.1106,-2.1486,-2.1874,-2.2297,-2.2787,-2.3378,-2.4002,-2.4708,-2.5384,-2.6096,-2.6855,-2.7554,-2.8152,-2.8997,-2.9895,-3.0847,-3.1854,-3.2708,-3.342,-3.3841,-3.4264,-3.474,-3.5232,-3.5891,-3.6684,-3.7419,-3.8338,-3.946,-3.9766,-4.0257,-4.1257,-4.0794,-4.0583,-4.0793,-4.1012,-4.1198,-4.1272,-4.1408,-4.1034,-4.0123,-3.8969,-3.8117,-3.7577,-3.7577,-3.7577,-3.7577,-3.7577,-3.7577,-3.7559,-3.722,-3.6363,-3.5186,-3.4865,-3.399,-3.2916,-3.2916,-3.2916,-3.2916,-3.2916,-3.2152,-3.1118,0.0,0.0,0.0,0.0,0.0,0.0,0.0,0.0,0.0,0.0,0.0,0.0,0.0,0.0,0.0,0.0,0.0,0.0,0.0,0.0,0.0,0.0,0.0,0.0,0.0,0.0,0.0,0.0,0.0,0.0,0.0,0.0,0.0,0.0,0.0,0.0,0.0,0.0,0.0,0.0,0.0,0.0,0.0,0.0,0.0,0.0,-2.1205,-2.1655,-2.1964,-2.1267,-2.1101,-2.0989,-2.0357,-2.0453,-2.0862,-2.1169,-2.1612,-2.1987,-2.2359,-2.2909,-2.3569,-2.4176,-2.4821,-2.5495,-2.6351,-2.7011,-2.7655,-2.8299,-2.9405,-3.0529,-3.1454,-3.2434,-3.3307,-3.3987,-3.4182,-3.4507,-3.5293,-3.5707,-3.6399,-3.7837,-3.8517,-3.9393,-4.0682,-4.1131,-4.1766,-4.262,-4.151,-4.0888,-4.1073,-4.114,-4.1255,-4.1426,-4.156,-4.0989,-3.9734,-3.8938,-3.8277,-3.7737,-3.763,-3.7577,-3.7577,-3.7577,-3.7577,-3.7541,-3.6738,-3.5935,-3.515,-3.4401,-3.3633,-3.2916,-3.2916,-3.2916,-3.2898,-3.2791,-3.1778,-3.0493,0.0,0.0,0.0,0.0,0.0,0.0,0.0,0.0,0.0,0.0,-0.9213,-0.9162,0.0,0.0,0.0,0.0,0.0,0.0,0.0,0.0,0.0,0.0,0.0,0.0,0.0,-1.1564,-1.1868,-1.1787,-1.2378,0.0,0.0,0.0,0.0,0.0,0.0,0.0,0.0,0.0,0.0,0.0,0.0,0.0,0.0,0.0,0.0,0.0,-2.1731,-2.2025,-2.2039,-2.1603,-2.142,-2.1326,-2.0775,-2.085,-2.1169,-2.1498,-2.1874,-2.2247,-2.2665,-2.321,-2.3734,-2.4292,-2.5034,-2.577,-2.651,-2.7218,-2.789,-2.851,-2.958,-3.0656,-3.1598,-3.2482,-3.3307,-3.3987,-3.4603,-3.5091,-3.5375,-3.6591,-3.7547,-3.7953,-3.9415,-4.0514,-4.0782,-4.1692,-4.2397,-4.2706,-4.2603,-4.2393,-4.1998,-4.1482,-4.13,-4.156,-4.1604,-4.1209,-4.0422,-3.9711,-3.9053,-3.8427,-3.7861,-3.7577,-3.7577,-3.7577,-3.7577,-3.7541,-3.6738,-3.5935,-3.515,-3.4401,-3.3633,-3.2916,-3.2916,-3.2916,-3.2813,-3.2135,-3.1314,-3.0422,0.0,0.0,0.0,0.0,0.0,0.0,0.0,-0.9022,-0.8913,-0.8941,-0.8809,-0.8898,-0.9286,-0.9445,0.0,0.0,0.0,0.0,0.0,0.0,0.0,0.0,0.0,0.0,0.0,-1.1564,-1.1787,-1.1706,0.0,-1.2673,-1.2907,-1.4043,-1.4743,-1.5173,-1.6547,-1.7291,-1.7627,0.0,0.0,-1.9469,-1.9784,-2.0177,0.0,0.0,0.0,0.0,0.0,-2.2252,-2.2339,-2.1745,-2.1688,-2.1798,-2.1156,-2.1106,-2.1296,-2.1812,-2.2123,-2.2432,-2.2909,-2.339,-2.3923,-2.4492,-2.5216,-2.5988,-2.6654,-2.7393,-2.8164,-2.9104,-3.0148,-3.1198,-3.2176,-3.3031,-3.3728,-3.4052,-3.47,-3.5367,-3.5896,-3.7049,-3.8105,-3.9007,-4.0097,-4.11,-4.1854,-4.2675,-4.3316,-4.3868,-4.334,-4.277,-4.235,-4.1736,-4.1453,-4.1604,-4.1604,-4.1279,-4.0634,-4.0288,-3.9633,-3.8602,-3.8267,-3.795,-3.7577,-3.7577,-3.7577,-3.7523,-3.631,-3.556,-3.5114,-3.3955,-3.3241,-3.2916,-3.2916,-3.2916,-3.2809,-3.1992,-3.1189,-3.0404,0.0,0.0,0.0,0.0,0.0,0.0,0.0,-0.8874,-0.8657,-0.8534,-0.8612,-0.888,-0.9335,-0.945,-0.9285,0.0,0.0,0.0,0.0,0.0,0.0,0.0,0.0,0.0,0.0,0.0,0.0,-1.1706,-1.2305,0.0,0.0,0.0,0.0,0.0,-1.6337,-1.7083,-1.7446,-1.8336,-1.8931,0.0,0.0,-2.0177,0.0,0.0,0.0,0.0,0.0,-2.2478,-2.2637,-2.1887,-2.1965,-2.2264,-2.1544,-2.136,-2.1549,-2.2061,-2.2371,-2.2665,-2.3078,-2.3569,-2.4099,-2.4721,-2.5397,-2.615,-2.6864,-2.7545,-2.8403,-2.9637,-3.0701,-3.1741,-3.2756,-3.3598,-3.4101,-3.4101,-3.4845,-3.5659,-3.6453,-3.7392,-3.8532,-3.9979,-4.0646,-4.1536,-4.2858,-4.3589,-4.4255,-4.4944,-4.3769,-4.2765,-4.2183,-4.1803,-4.1604,-4.1604,-4.1604,-4.135,-4.082,-4.0644,-3.9994,-3.8773,-3.8635,-3.8193,-3.7558,-3.7558,-3.7558,-3.7469,-3.5847,-3.5153,-3.5028,-3.3512,-3.2884,-3.2884,-3.2884,-3.2916,-3.2791,-3.1796,-3.1046,-3.0368,0.0,0.0,0.0,0.0,0.0,0.0,0.0,-0.875,-0.8544,-0.8468,-0.8847,-0.9301,-0.983,-0.9112,-0.8925,0.0,0.0,0.0,0.0,0.0,0.0,0.0,0.0,0.0,0.0,0.0,0.0,-1.1706,-1.2305,0.0,0.0,0.0,0.0,0.0,0.0,-1.7029,-1.7246,-1.8302,0.0,0.0,0.0,0.0,0.0,0.0,0.0,0.0,0.0,-2.2777,-2.2848,-2.224,-2.2309,-2.2478,-2.1824,-2.1886,-2.2135,-2.2185,-2.2604,-2.3078,-2.333,-2.3793,-2.4421,-2.4991,-2.5619,-2.6326,-2.7181,-2.779,-2.8565,-2.9894,-3.0911,-3.1903,-3.2902,-3.3647,-3.4101,-3.4101,-3.5283,-3.6328,-3.6623,-3.7855,-3.9112,-4.0227,-4.1205,-4.2143,-4.2908,-4.4139,-4.491,-4.4978,-4.4026,-4.2814,-4.14,-4.1488,-4.1604,-4.1604,-4.1604,-4.1569,-4.1499,-4.0926,-4.0193,-3.9405,-3.8744,-3.804,-3.7334,-3.7334,-3.7334,-3.7246,-3.5687,-3.5013,-3.4889,-3.343,-3.2805,-3.2805,-3.2884,-3.2916,-3.2719,-3.1171,-3.0564,-3.0297,0.0,0.0,0.0,0.0,0.0,0.0,-0.9045,-0.87,-0.8581,-0.8873,-0.8898,-0.9049,-0.9492,-0.9445,-0.951,0.0,0.0,0.0,0.0,0.0,0.0,0.0,0.0,0.0,0.0,0.0,-1.1781,-1.1855,-1.2378,0.0,0.0,0.0,0.0,0.0,0.0,-1.6471,-1.6927,-1.7935,0.0,0.0,0.0,0.0,0.0,0.0,0.0,0.0,0.0,0.0,-2.2661,-2.2161,-2.2136,-2.2275,-2.2036,-2.2259,-2.2494,-2.2494,-2.2787,-2.3198,-2.3582,-2.4028,-2.458,-2.5189,-2.5811,-2.651,-2.7291,-2.8263,-2.9397,-3.0671,-3.1694,-3.2659,-3.3517,-3.3922,-3.4246,-3.4683,-3.5711,-3.6645,-3.7281,-3.8614,-3.9962,-4.0912,-4.1922,-4.2842,-4.3578,-4.4478,-4.4727,-4.3976,-4.3259,-4.2358,-4.1261,-4.1453,-4.1604,-4.1604,-4.1604,-4.1604,-4.1604,-4.135,-4.0619,-3.9488,-3.9194,-3.8422,-3.7297,-3.7297,-3.7297,-3.7208,-3.5668,-3.4995,-3.4872,-3.3312,-3.269,-3.269,-3.2705,-3.2787,-3.2642,-3.1026,-3.0469,-3.0279,0.0,0.0,0.0,0.0,0.0,-0.8818,-0.8846,-0.8759,-0.8875,-0.9335,-0.9181,-0.9045,-0.9261,-0.9753,-1.0046,-1.0035,-0.9965,0.0,0.0,0.0,0.0,0.0,0.0,0.0,0.0,0.0,-1.1781,-1.2003,-1.2452,-1.2753,0.0,0.0,-1.4122,-1.449,0.0,0.0,0.0,0.0,0.0,0.0,0.0,0.0,0.0,0.0,0.0,0.0,0.0,0.0,0.0,0.0,0.0,-2.2333,-2.2279,-2.2494,-2.28,-2.28,-2.303,-2.3318,-2.3819,-2.4274,-2.4751,-2.5412,-2.6068,-2.6759,-2.7479,-2.8694,-2.9998,-3.1164,-3.2207,-3.3143,-3.3971,-3.4151,-3.4378,-3.5159,-3.5994,-3.6885,-3.7728,-3.9166,-4.0446,-4.1399,-4.2355,-4.3333,-4.4071,-4.4461,-4.423,-4.3268,-4.2684,-4.2044,-4.1244,-4.1453,-4.1604,-4.1604,-4.1604,-4.1604,-4.1604,-4.1604,-4.0875,-3.9447,-3.9447,-3.8659,-3.722,-3.722,-3.722,-3.715,-3.5825,-3.5118,-3.4818,-3.3458,-3.2802,-3.2573,-3.2606,-3.2639,-3.2545,-3.0965,-3.0409,-3.0238,0.0,0.0,0.0,0.0,0.0,0.0,-0.8511,-0.8904,-0.9351,-0.9816,-0.9878,-0.97,-0.9352,-0.9972,-1.0377,-1.0377,-1.0067,0.0,0.0,0.0,0.0,0.0,0.0,0.0,0.0,0.0,-1.1781,-1.2003,-1.2599,-1.29,-1.29,-1.3695,-1.4137,-1.4145,0.0,0.0,0.0,0.0,0.0,0.0,0.0,0.0,0.0,0.0,0.0,0.0,0.0,0.0,0.0,0.0,0.0,0.0,0.0,-2.2714,-2.3078,-2.3078,-2.3318,-2.3688,-2.3995,-2.4447,-2.4948,-2.5729,-2.6312,-2.693,-2.781,-2.8922,-3.0096,-3.1164,-3.2207,-3.3143,-3.3971,-3.4201,-3.4544,-3.5277,-3.6149,-3.699,-3.7903,-3.9221,-4.0519,-4.1583,-4.2484,-4.3333,-4.4226,-4.4041,-4.3682,-4.3233,-4.2684,-4.2044,-4.1244,-4.1453,-4.1604,-4.1604,-4.1604,-4.1604,-4.1604,-4.1604,-4.0832,-3.9305,-3.9305,-3.8497,-3.7009,-3.7009,-3.7009,-3.6974,-3.6145,-3.539,-3.4672,-3.397,-3.323,-3.2507,-3.2573,-3.2606,-3.2411,-3.0853,-3.0348,-3.0196,0.0,0.0,0.0,0.0,0.0,0.0,0.0,-0.8899,-0.9281,-0.9583,-0.9642,-0.962,-0.9679,-0.9978,-1.021,-1.0299,-1.0223,0.0,0.0,0.0,0.0,0.0,0.0,0.0,0.0,0.0,0.0,-1.2378,-1.2746,-1.3046,-1.3346,-1.384,-1.4201,-1.4497,-1.5113,-1.5665,0.0,0.0,0.0,0.0,0.0,0.0,-2.0576,0.0,0.0,0.0,0.0,0.0,0.0,0.0,0.0,0.0,0.0,0.0,0.0,-2.3688,-2.3865,-2.3982,-2.4305,-2.4808,-2.537,-2.6028,-2.6669,-2.7291,-2.7974,-2.949,-3.0923,-3.1421,-3.2674,-3.3792,-3.4052,-3.4607,-3.5277,-3.601,-3.6954,-3.7834,-3.8595,-4.0001,-4.1177,-4.1649,-4.2975,-4.3912,-4.4028,-4.342,-4.2877,-4.2423,-4.1825,-4.1412,-4.1226,-4.1363,-4.1515,-4.1604,-4.1604,-4.1604,-4.1604,-4.1604,-4.1095,-4.0095,-3.9568,-3.876,-3.7725,-3.7216,-3.6987,-3.6935,-3.6162,-3.539,-3.4635,-3.3899,-3.3125,-3.2422,-3.2457,-3.2507,-3.24,-3.1376,-3.0716,-3.0176,0.0,0.0,0.0,0.0,0.0,0.0,0.0,-0.9026,-0.939,-0.9488,-0.9611,-0.9727,-1.0051,-1.0194,-1.037,-1.0627,-1.0712,0.0,0.0,0.0,0.0,0.0,0.0,0.0,0.0,0.0,0.0,0.0,0.0,-1.3119,-1.3499,-1.392,-1.4274,-1.4641,-1.4991,-1.5559,0.0,0.0,0.0,0.0,0.0,0.0,-2.0383,0.0,0.0,0.0,0.0,0.0,0.0,0.0,0.0,0.0,0.0,0.0,0.0,0.0,-2.439,-2.4563,-2.4708,-2.5147,-2.5742,-2.639,-2.7019,-2.766,-2.8268,-2.989,-3.1356,-3.163,-3.2966,-3.4182,-3.4507,-3.5082,-3.582,-3.6869,-3.7636,-3.8401,-3.9374,-4.068,-4.1793,-4.2601,-4.3485,-4.3982,-4.3919,-4.298,-4.2243,-4.2026,-4.1462,-4.1123,-4.1209,-4.1318,-4.1471,-4.1604,-4.1604,-4.1604,-4.1604,-4.1604,-4.1218,-4.0463,-3.9691,-3.8883,-3.8076,-3.7321,-3.6987,-3.6952,-3.6461,-3.5653,0.0,-3.4161,-3.3354,-3.2406,-3.2406,-3.2422,-3.2351,-3.156,-3.1009,-3.0561,0.0,0.0,0.0,0.0,0.0,0.0,0.0,-0.9341,-0.9526,-0.9623,-0.9776,-1.0008,-1.0245,-1.0487,-1.0806,-1.1266,0.0,0.0,0.0,0.0,0.0,0.0,0.0,0.0,0.0,0.0,0.0,-1.2599,-1.2826,-1.3119,-1.3564,0.0,-1.4289,-1.4681,-1.5103,-1.5593,0.0,0.0,0.0,0.0,0.0,0.0,0.0,0.0,0.0,0.0,0.0,0.0,0.0,0.0,0.0,0.0,0.0,0.0,0.0,0.0,0.0,0.0,0.0,-2.5619,-2.6096,-2.6797,-2.7393,-2.7974,-2.859,-3.0116,0.0,-3.1774,-3.3048,-3.4378,-3.5245,-3.5576,-3.6186,-3.7771,-3.8157,-3.8775,-4.0183,-4.1161,-4.2367,-4.4001,-4.383,-4.3588,-4.3714,-4.2535,-4.1827,-4.1923,-4.138,-4.1123,-4.1209,-4.1318,-4.1471,-4.1604,-4.1604,-4.1604,-4.1604,-4.1604,-4.1253,-4.0551,-3.9708,-3.8918,-3.8164,-3.7356,-3.6987,-3.6987,-3.6987,-3.611,-3.4688,-3.4688,-3.3792,-3.2406,-3.2406,-3.2406,-3.23,-3.1563,-3.128,-3.1188,0.0,0.0,0.0,0.0,0.0,0.0,0.0,0.0,0.0,0.0,-0.9851,-0.9943,-1.0003,-1.0543,-1.0983,0.0,0.0,0.0,0.0,0.0,0.0,0.0,0.0,0.0,0.0,0.0,0.0,-1.282,-1.3046,-1.3411,-1.3992,-1.4209,0.0,0.0,-1.5771,0.0,0.0,0.0,0.0,0.0,0.0,0.0,0.0,0.0,0.0,0.0,-2.1449,-2.1788,0.0,0.0,0.0,0.0,0.0,0.0,0.0,0.0,-2.5025,-2.566,-2.6082,0.0,-2.6669,-2.7306,-2.7894,-2.8431,0.0,-3.0307,-3.1726,-3.1774,-3.3097,-3.4478,-3.5245,-3.6053,-3.688,-3.7854,-3.857,-3.9338,-4.0249,-4.1233,-4.2239,-4.3312,-4.3031,-4.2618,-4.2211,-4.1918,-4.1604,-4.1181,-4.1039,-4.1012,-4.1209,-4.1209,-4.1363,-4.1604,-4.1604,-4.1604,-4.1604,-4.1604,-4.1516,-4.1323,-3.9954,-3.9217,-3.8971,-3.7602,-3.6987,-3.6987,-3.6987,-3.611,-3.4688,-3.4688,-3.3792,-3.2406,-3.2406,-3.2406,-3.2371,-3.2177,-3.1721,-3.121,0.0,0.0,0.0,0.0,0.0,0.0,0.0,0.0,0.0,0.0,0.0,0.0,0.0,0.0,0.0,0.0,0.0,0.0,0.0,0.0,0.0,0.0,0.0,0.0,0.0,0.0,0.0,0.0,0.0,-1.363,0.0,0.0,0.0,0.0,0.0,0.0,0.0,0.0,0.0,0.0,-1.9142,0.0,0.0,0.0,0.0,0.0,-2.1305,-2.1589,0.0,-2.1916,-2.2143,-2.2523,0.0,0.0,0.0,0.0,-2.5047,-2.5792,-2.6286,-2.6674,-2.7049,-2.761,-2.8204,-2.8763,-2.9423,-3.0751,-3.1918,-3.2336,-3.3421,-3.4676,-3.5838,-3.6516,-3.7296,-3.8421,-3.897,-3.9591,-4.0484,-4.1381,-4.2202,-4.2824,-4.2428,-4.1955,-4.1697,-4.1503,-4.1271,-4.0905,-4.0888,-4.1012,-4.1209,-4.1209,-4.13,-4.1604,-4.1604,-4.1604,-4.1604,-4.1604,-4.1604,-4.1587,-4.0042,-3.9305,-3.9252,-3.769,-3.6987,-3.6987,-3.6987,-3.611,-3.4688,-3.4688,-3.3792,-3.2406,-3.2406,-3.2406,-3.2406,-3.2406,-3.2125,-3.1756,0.0,0.0,0.0,0.0,0.0,0.0,0.0,0.0,0.0,0.0,0.0,0.0,0.0,0.0,0.0,0.0,0.0,0.0,0.0,0.0,0.0,0.0,0.0,0.0,0.0,0.0,0.0,0.0,0.0,0.0,0.0,0.0,-1.5585,0.0,0.0,0.0,0.0,0.0,0.0,0.0,-1.9407,0.0,0.0,0.0,0.0,0.0,0.0,0.0,0.0,-2.1977,-2.2313,-2.2616,-2.306,0.0,0.0,0.0,0.0,0.0,-2.6312,-2.6842,-2.7339,-2.7944,-2.8523,-2.9234,-3.0227,-3.1261,-3.2239,-3.3047,-3.3925,-3.502,-3.66,-3.6981,-3.756,-3.9056,-3.9425,-3.9814,-4.0699,-4.148,-4.2028,-4.2292,-4.1801,-4.1492,-4.1641,-4.1202,-4.0888,-4.0888,-4.0935,-4.1012,-4.1209,-4.1209,-4.1346,-4.1604,-4.1604,-4.1604,-4.1604,-4.1604,-4.1604,-4.1587,-4.0042,-3.9305,-3.9252,-3.769,-3.6987,-3.6987,-3.6987,-3.611,-3.4688,-3.4688,-3.3792,-3.2406,-3.2406,-3.2406,-3.2406,-3.2406,-3.2406,-3.2406,0.0,0.0,0.0,0.0,0.0,0.0,0.0,0.0,0.0,0.0,0.0,0.0,0.0,0.0,0.0,0.0,0.0,0.0,0.0,0.0,0.0,0.0,0.0,0.0,0.0,0.0,0.0,0.0,0.0,0.0,-1.4505,-1.5145,-1.6146,-1.7518,0.0,0.0,0.0,0.0,0.0,0.0,-1.9539,0.0,0.0,0.0,0.0,0.0,0.0,0.0,0.0,-2.127,-2.1448,-2.1827,-2.2275,0.0,0.0,0.0,0.0,0.0,-2.6612,-2.7,-2.7326,-2.8275,-2.9328,-3.0227,-3.0495,-3.1837,-3.3031,-3.3192,-3.448,-3.5827,-3.6734,-3.7513,-3.8311,-3.9139,-3.991,-4.0521,-4.0925,-4.1184,-4.1425,-4.1563,-4.1117,-4.082,-4.0868,-4.0909,-4.0888,-4.0888,-4.1,-4.1123,-4.1209,-4.1318,-4.1426,-4.1604,-4.1604,-4.1604,-4.1604,-4.1604,-4.1604,-4.1587,-4.0042,-3.9305,-3.9252,-3.769,-3.6987,-3.6987,-3.6987,-3.611,-3.4688,-3.4688,-3.3792,-3.2406,-3.2406,-3.2406,-3.2406,-3.2406,-3.2406,-3.2406,0.0,0.0,0.0,0.0,0.0,0.0,0.0,0.0,0.0,0.0,0.0,0.0,0.0,0.0,0.0,0.0,0.0,0.0,0.0,0.0,0.0,0.0,-1.2805,-1.2733,-1.2895,0.0,0.0,0.0,0.0,-1.4289,-1.4649,-1.5774,-1.6962,-1.8329,0.0,-1.885,-1.8839,0.0,0.0,-1.9142,0.0,0.0,0.0,0.0,0.0,0.0,0.0,0.0,0.0,0.0,-2.1397,-2.1541,-2.1936,0.0,0.0,0.0,0.0,0.0,-2.6428,-2.7103,-2.7767,-2.867,-2.9659,-3.056,-3.1227,-3.2334,-3.3485,-3.4415,-3.5218,-3.6141,-3.738,-3.798,-3.8583,-3.9404,-3.9926,-4.0301,-4.0492,-4.0646,-4.0815,-4.0998,-4.0854,-4.0745,-4.0793,-4.0871,-4.0888,-4.0888,-4.1029,-4.1123,-4.1209,-4.1318,-4.1471,-4.1604,-4.1604,-4.1604,-4.1604,-4.1604,-4.1604,-4.1587,-4.0042,-3.9305,-3.9252,-3.769,-3.6987,-3.6987,-3.6987,-3.611,-3.4688,-3.4688,-3.3792,-3.2406,-3.2406,-3.2406,-3.2406,-3.2406,-3.2406,-3.2406,0.0,0.0,0.0,0.0,0.0,0.0,0.0,0.0,0.0,0.0,0.0,0.0,0.0,0.0,0.0,0.0,0.0,0.0,0.0,0.0,-1.2844,-1.3178,-1.304,-1.2988,-1.2988,0.0,-1.3564,-1.371,-1.4209,-1.4656,-1.5114,-1.6395,-1.7613,-1.87,0.0,-1.917,-1.8912,-1.9433,-1.9565,-1.9417,0.0,0.0,0.0,0.0,0.0,0.0,0.0,0.0,0.0,0.0,0.0,0.0,0.0,0.0,0.0,-2.2975,-2.3876,-2.4971,-2.6305,-2.718,-2.8018,-2.9198,-3.0131,-3.0973,-3.1787,-3.2787,-3.3925,-3.5482,-3.5976,-3.6605,-3.8015,-3.8484,-3.8922,-3.9629,-3.9833,-3.9986,-4.0138,-4.0288,-4.0453,-4.0697,-4.0745,-4.0793,-4.0888,-4.0716,-4.0659,-4.0659,-4.0643,-4.0718,-4.0993,-4.1101,-4.134,-4.1604,-4.1604,-4.1604,-4.1604,-4.1604,-4.1516,-4.1323,-3.9954,-3.9217,-3.8989,-3.7602,-3.6987,-3.6987,-3.6987,-3.611,-3.4688,-3.4688,-3.3792,-3.2406,-3.2406,-3.2406,-3.2406,-3.2406,-3.2406,-3.2388,0.0,0.0,0.0,0.0,0.0,0.0,0.0,0.0,0.0,0.0,0.0,0.0,0.0,0.0,0.0,0.0,0.0,0.0,0.0,0.0,-1.3287,-1.3321,-1.3596,-1.3816,-1.3816,-1.3586,-1.3783,-1.4361,-1.4497,-1.5267,-1.6447,-1.6951,-1.7698,-1.87,-1.9329,-1.9333,-1.8985,-1.9713,-1.9833,-1.9671,-2.0313,0.0,0.0,0.0,0.0,0.0,0.0,0.0,0.0,0.0,0.0,0.0,0.0,0.0,-2.2137,-2.3235,-2.3639,-2.4217,-2.6525,-2.7195,-2.7806,-3.0041,-3.1162,-3.1757,-3.1947,-3.3273,-3.4693,-3.563,-3.6522,-3.7436,-3.8235,-3.9039,-3.9662,-3.9833,-3.9986,-4.0138,-4.0255,-4.0502,-4.0697,-4.0697,-4.0793,-4.0888,-4.0888,-4.0215,-3.9848,-3.9939,-3.9433,-3.9495,-4.0298,-4.0464,-4.0884,-4.1587,-4.1604,-4.1604,-4.1604,-4.1604,-4.1253,-4.0551,-3.9708,-3.8918,-3.8164,-3.7356,-3.6987,-3.6987,-3.6987,-3.611,-3.4688,-3.4688,-3.3792,-3.2406,-3.2406,-3.2406,-3.2406,-3.2406,-3.2406,-3.2388,0.0,0.0,0.0,0.0,0.0,0.0,0.0,0.0,0.0,0.0,0.0,0.0,0.0,0.0,0.0,0.0,0.0,0.0,0.0,0.0,-1.35,-1.3601,-1.3888,-1.4101,-1.4321,-1.4133,-1.4209,-1.4497,-1.4927,-1.5613,-1.6402,-1.7107,-1.7756,-1.8366,-1.9219,-1.9324,-1.8968,-1.9586,-1.985,-1.9802,-2.0388,-2.1071,0.0,0.0,0.0,0.0,0.0,0.0,0.0,0.0,-2.1264,-2.0789,0.0,-2.1491,-2.1852,-2.2944,-2.3538,-2.4397,-2.6691,-2.7432,-2.804,-3.0254,-3.1475,-3.2297,-3.2767,-3.4136,-3.558,-3.6522,-3.7403,-3.8236,-3.9193,-3.9648,-3.9986,-4.0155,-4.0238,-4.0387,-4.0551,-4.0648,-4.0745,-4.084,-4.044,-4.0146,-4.0146,-3.9565,-3.916,-3.9222,-3.9121,-3.9215,-3.9538,-4.0157,-4.0604,-4.0902,-4.1358,-4.1604,-4.1604,-4.1148,-4.0516,-3.9743,-3.9463,-3.8883,-3.8076,-3.7321,-3.6987,-3.6987,-3.6987,-3.611,-3.4688,-3.4688,-3.3792,-3.2406,-3.2406,-3.2406,-3.2406,-3.2406,-3.2422,-3.2473,0.0,0.0,0.0,0.0,0.0,0.0,0.0,0.0,0.0,0.0,0.0,0.0,0.0,0.0,0.0,0.0,0.0,0.0,0.0,0.0,-1.3928,-1.4137,-1.4346,-1.4561,-1.4856,-1.4856,-1.4848,-1.4784,-1.5363,-1.5905,-1.6482,-1.7211,-1.7787,0.0,-1.9069,-1.9253,-1.9004,-1.9599,-1.9952,-2.0194,-2.07,-2.1295,0.0,0.0,0.0,0.0,0.0,0.0,0.0,0.0,-2.1228,-2.0518,0.0,0.0,-2.1878,-2.2872,-2.3715,-2.4778,-2.6977,-2.7705,-2.8354,-3.077,-3.1945,-3.2751,-3.3672,-3.4724,-3.5877,-3.7136,-3.8003,-3.8824,-3.9598,-3.9596,-3.9525,-3.9623,-3.9768,-3.9864,-4.004,-4.007,-4.0117,-4.0256,-3.9755,-3.9427,-3.9427,-3.8859,-3.8486,-3.853,-3.8457,-3.8489,-3.8758,-3.9631,-4.0217,-4.0463,-4.1218,-4.1604,-4.1604,-4.0849,-4.0095,-3.9305,-3.9059,-3.8515,-3.7742,-3.7216,-3.6987,-3.6987,-3.6987,-3.611,-3.4688,-3.4688,-3.3792,-3.2406,-3.2406,-3.2406,-3.2388,-3.2422,-3.2439,-3.2507,0.0,0.0,0.0,0.0,0.0,0.0,0.0,0.0,0.0,0.0,0.0,0.0,0.0,0.0,0.0,0.0,0.0,0.0,0.0,-1.4293,-1.4697,-1.4895,-1.5125,-1.5275,-1.5497,-1.57,-1.5621,-1.5204,-1.5576,-1.6199,-1.6909,-1.7351,0.0,0.0,-1.8902,-1.9167,-1.9113,-1.9875,-2.0344,-2.07,-2.14,-2.1764,-2.1839,0.0,0.0,0.0,0.0,0.0,0.0,0.0,-2.0978,-2.0258,0.0,0.0,0.0,-2.3234,-2.4086,-2.5183,-2.7382,-2.801,-2.8715,-3.1647,-3.2533,-3.3077,-3.4568,-3.4899,-3.5426,-3.7134,-3.8235,-3.9018,-3.931,-3.8726,-3.8213,-3.8213,-3.8322,-3.8476,-3.8584,-3.8718,-3.8833,-3.8886,-3.8886,-3.8868,-3.8868,-3.8208,-3.7857,-3.7976,-3.7266,-3.7184,-3.8058,-3.8866,-3.9656,-4.0446,-4.12,-4.1587,-4.1587,-4.0849,-4.0077,-3.9287,-3.848,-3.7707,-3.6987,-3.6987,-3.6987,-3.6987,-3.6987,-3.611,-3.4688,-3.467,-3.3775,-3.2406,-3.2406,-3.2406,-3.2388,-3.2473,-3.2507,-3.2541,0.0,0.0,0.0,0.0,0.0,0.0,0.0,0.0,0.0,0.0,0.0,0.0,0.0,0.0,0.0,0.0,0.0,0.0,0.0,-1.5349,-1.5566,-1.5634,-1.6095,-1.6455,-1.6455,-1.6742,-1.6612,-1.5991,-1.6263,-1.6605,-1.7143,-1.7642,0.0,-1.8259,0.0,-1.941,-1.9473,-2.0083,-2.0575,-2.0974,-2.1313,-2.1668,-2.2056,0.0,0.0,0.0,0.0,0.0,0.0,0.0,0.0,0.0,-2.1415,0.0,-2.2587,-2.399,-2.4925,-2.5893,-2.7568,-2.8467,-2.9519,-3.2012,-3.2741,-3.3301,-3.5014,-3.5706,-3.6343,-3.7604,-3.8167,-3.8444,-3.8665,-3.8585,-3.8522,-3.856,-3.8649,-3.8772,-3.8816,-3.886,-3.8903,-3.8886,-3.8417,-3.8146,-3.8146,-3.7492,-3.712,-3.7138,-3.7031,-3.7036,-3.7303,-3.8041,-3.8831,-3.9638,-4.0411,-4.0814,-4.0814,-4.0042,-3.9252,-3.8462,-3.769,-3.7198,-3.6987,-3.6987,-3.6987,-3.6987,-3.6987,-3.611,-3.4618,-3.3529,-3.2809,-3.2406,-3.2406,-3.2422,-3.2473,-3.2507,-3.2608,-3.274,0.0,0.0,0.0,0.0,0.0,0.0,0.0,0.0,0.0,0.0,0.0,0.0,0.0,0.0,0.0,0.0,0.0,0.0,0.0,0.0,-1.6713,-1.6722,-1.7321,-1.7677,-1.7745,-1.7901,-1.7842,-1.7482,-1.7217,-1.7226,-1.7657,0.0,-1.836,-1.8617,0.0,-1.961,-1.9716,-2.0281,-2.0722,-2.0993,-2.1281,-2.1604,-2.1878,0.0,0.0,0.0,0.0,0.0,0.0,0.0,0.0,0.0,-2.2417,0.0,-2.3618,-2.4589,-2.5645,-2.6718,-2.7871,-2.9006,-3.0328,-3.2364,-3.3178,-3.396,-3.5511,-3.6316,-3.6949,-3.7638,-3.7815,-3.795,-3.8146,-3.8009,-3.7845,-3.7897,-3.7982,-3.8042,-3.8066,-3.8066,-3.8066,-3.815,-3.7749,-3.7469,-3.7469,-3.7131,-3.6869,-3.6869,-3.693,-3.6987,-3.6987,-3.769,-3.8322,-3.8813,-3.9603,-4.0007,-4.0007,-3.9234,-3.8585,-3.8093,-3.7338,-3.6987,-3.6987,-3.6987,-3.6987,-3.6992,-3.6338,-3.5548,-3.4565,-3.3038,-3.2422,-3.2457,-3.2457,-3.2473,-3.2557,-3.2608,-3.2707,-3.2838,0.0,0.0,0.0,0.0,0.0,0.0,0.0,0.0,0.0,0.0,0.0,0.0,0.0,0.0,0.0,0.0,0.0,0.0,0.0,0.0,-1.8068,-1.815,-1.8764,-1.909,-1.9233,-1.9233,-1.9278,-1.9433,-1.8345,-1.8027,0.0,0.0,-1.8762,-1.9138,0.0,-1.9788,-1.989,-2.054,-2.0795,-2.0893,-2.1418,-2.1581,-2.1563,-2.2035,0.0,0.0,0.0,0.0,0.0,0.0,0.0,0.0,-2.3509,-2.4274,-2.504,-2.5172,-2.6267,-2.7603,-2.841,-2.9642,-3.1099,-3.2713,-3.3886,-3.4933,-3.6061,-3.6724,-3.7151,-3.737,-3.7396,-3.7439,-3.7669,-3.7195,-3.6725,-3.6725,-3.6725,-3.6766,-3.6829,-3.6869,-3.6908,-3.7009,-3.7027,-3.7009,-3.7009,-3.7009,-3.7027,-3.6987,-3.6987,-3.6987,-3.6987,-3.7637,-3.8041,-3.8111,-3.8813,-3.9199,-3.9199,-3.848,-3.8076,-3.7988,-3.7303,-3.6987,-3.6987,-3.6987,-3.6987,-3.69,-3.5355,-3.4688,-3.4565,-3.302,-3.2457,-3.2507,-3.2507,-3.2557,-3.2639,-3.2773,-3.287,-3.2916,0.0,0.0,0.0,0.0,0.0,0.0,0.0,0.0,0.0,0.0,0.0,0.0,0.0,0.0,0.0,0.0,0.0,0.0,0.0,0.0,-1.9043,-1.9522,-2.0325,-2.0876,-2.1037,-2.1037,-2.0843,-2.043,-1.9555,-1.9055,0.0,0.0,0.0,-1.9216,0.0,-1.998,-2.0462,-2.0867,-2.1319,-2.1737,-2.1772,-2.194,-2.22,-2.2311,-2.2516,0.0,0.0,0.0,0.0,0.0,0.0,0.0,-2.4197,-2.472,-2.5309,-2.6524,-2.7614,-2.8557,-2.9309,-3.0145,-3.1264,-3.2934,-3.4627,-3.5967,-3.6224,-3.6606,-3.6869,-3.6846,-3.6911,-3.6992,-3.7154,-3.7093,-3.7048,-3.7143,-3.7143,-3.7182,-3.7182,-3.7182,-3.722,-3.722,-3.722,-3.7164,-3.7069,-3.7069,-3.7048,-3.7009,-3.6987,-3.6987,-3.6987,-3.7128,-3.7496,-3.8093,-3.8269,-3.8374,-3.8374,-3.8199,-3.7812,-3.7216,-3.7058,-3.6987,-3.6987,-3.6987,-3.6987,-3.69,-3.5355,-3.4688,-3.4565,-3.3072,-3.2507,-3.2507,-3.2557,-3.2657,-3.2773,-3.2852,-3.2916,-3.3011,0.0,0.0,0.0,0.0,0.0,0.0,0.0,0.0,0.0,0.0,0.0,0.0,0.0,0.0,0.0,0.0,0.0,0.0,0.0,0.0,0.0,-2.1391,-2.2075,-2.2347,-2.2186,-2.2186,-2.1856,-2.1247,-2.1033,-2.0435,0.0,0.0,0.0,-2.0099,0.0,-2.0665,-2.0932,-2.1368,-2.1641,-2.1847,-2.193,-2.2187,-2.2448,-2.2655,-2.2904,-2.326,-2.3681,0.0,0.0,0.0,0.0,0.0,0.0,0.0,-2.5911,-2.715,-2.8055,-2.8883,-2.966,-3.0673,-3.2013,-3.3792,-3.5273,-3.6343,-3.6591,-3.6474,-3.6348,-3.6404,-3.6404,-3.632,-3.6048,-3.609,-3.6181,-3.6236,-3.6236,-3.636,-3.6714,-3.673,-3.6872,-3.7261,-3.7297,-3.7259,-3.7203,-3.7203,-3.7164,-3.7048,-3.7048,-3.7048,-3.7009,-3.6987,-3.7163,-3.7549,-3.7567,-3.7567,-3.7567,-3.7567,-3.7374,-3.6987,-3.6987,-3.6987,-3.6987,-3.6987,-3.6777,-3.6355,-3.5217,-3.455,-3.4128,-3.3017,-3.259,-3.2641,-3.2722,-3.282,-3.2902,-3.2979,-3.3073,-3.3214,0.0,0.0,0.0,0.0,0.0,0.0,0.0,0.0,0.0,0.0,0.0,0.0,0.0,0.0,0.0,0.0,0.0,0.0,0.0,0.0,0.0,0.0,-2.3566,-2.3602,-2.3044,-2.3031,-2.2756,-2.2166,-2.2379,0.0,0.0,0.0,0.0,-2.1091,0.0,0.0,0.0,-2.1891,-2.2005,-2.1841,-2.2217,-2.2495,-2.2694,-2.3068,-2.3407,-2.3668,-2.4036,-2.4369,-2.4751,-2.5217,0.0,0.0,0.0,0.0,-2.6549,-2.7542,-2.8303,-2.8958,-2.993,-3.1241,-3.2815,-3.4565,-3.56,-3.6277,-3.6698,-3.6324,-3.5817,-3.5738,-3.5791,-3.5666,-3.5066,-3.5066,-3.5171,-3.5171,-3.5171,-3.5385,-3.599,-3.6025,-3.6237,-3.6893,-3.7051,-3.714,-3.714,-3.7264,-3.7259,-3.7147,-3.7147,-3.7126,-3.7009,-3.7009,-3.7009,-3.6987,-3.6987,-3.6987,-3.6987,-3.6987,-3.6987,-3.6987,-3.6987,-3.6987,-3.6987,-3.7009,-3.6587,-3.5776,-3.5097,-3.4393,-3.367,-3.2908,-3.2722,-3.2805,-3.2884,-3.2948,-3.3011,-3.3135,-3.3256,-3.3411,0.0,0.0,0.0,0.0,0.0,0.0,0.0,0.0,0.0,0.0,0.0,0.0,0.0,0.0,0.0,0.0,0.0,0.0,-2.3404,0.0,0.0,-2.3433,-2.4006,-2.4202,-2.403,-2.4016,-2.3758,-2.3271,-2.332,0.0,0.0,0.0,0.0,-2.1341,0.0,0.0,-2.2019,-2.2301,-2.2552,-2.2754,-2.3038,-2.3201,-2.3319,-2.361,-2.3824,-2.4078,-2.441,-2.471,-2.5005,-2.541,-2.5712,0.0,0.0,0.0,-2.6841,-2.8381,-2.8909,-2.9391,-3.0895,-3.1978,-3.299,-3.3968,-3.4943,-3.5658,-3.5892,-3.6013,-3.5721,-3.4531,-3.4832,-3.5277,-3.5187,-3.5323,-3.5442,-3.5442,-3.5442,-3.5477,-3.5585,-3.5554,-3.5522,-3.5629,-3.6167,-3.6488,-3.6434,-3.7001,-3.7354,-3.7297,-3.7259,-3.7203,-3.7108,-3.7108,-3.7069,-3.7009,-3.6987,-3.6987,-3.6987,-3.6987,-3.6987,-3.6987,-3.6987,-3.6987,-3.7009,-3.7069,-3.6664,-3.5925,-3.5151,-3.4411,-3.3722,-3.306,-3.2838,-3.2884,-3.2948,-3.3042,-3.3117,-3.3304,-3.3364,-3.3422,0.0,0.0,0.0,0.0,0.0,0.0,0.0,0.0,0.0,0.0,0.0,0.0,0.0,0.0,0.0,-2.4973,-2.4855,-2.4681,-2.4449,-2.4795,-2.492,-2.4744,-2.5182,-2.5237,-2.485,-2.4835,-2.4552,-2.3983,0.0,0.0,0.0,-2.3672,-2.3184,0.0,0.0,0.0,-2.286,-2.3098,-2.3319,-2.3493,-2.3681,-2.3824,-2.3952,-2.4094,-2.4234,-2.4359,-2.471,-2.4966,-2.5201,-2.5546,-2.5844,-2.6096,-2.631,0.0,0.0,0.0,-2.9121,-2.9517,-3.111,-3.2183,-3.2969,-3.3488,-3.4245,-3.5011,-3.5291,-3.5065,-3.4677,-3.4204,-3.4071,-3.4031,-3.4031,-3.4146,-3.4276,-3.4276,-3.4276,-3.442,-3.4835,-3.4842,-3.4957,-3.5406,-3.5697,-3.6005,-3.6381,-3.6667,-3.6986,-3.7319,-3.7354,-3.7317,-3.7203,-3.7203,-3.7164,-3.7048,-3.7048,-3.7048,-3.6987,-3.6987,-3.6987,-3.6987,-3.6987,-3.7009,-3.7031,-3.6647,-3.6068,-3.531,-3.5066,-3.4304,-3.3237,-3.3012,-3.2934,-3.2979,-3.3135,-3.3244,-3.3304,-3.3433,-3.3549,-3.3643,0.0,0.0,0.0,0.0,0.0,0.0,0.0,0.0,0.0,0.0,0.0,0.0,0.0,0.0,0.0,0.0,-2.5872,-2.5693,-2.54,-2.5747,-2.5895,-2.5791,-2.6052,-2.5958,-2.5425,-2.545,-2.5199,-2.4831,0.0,0.0,-2.4796,-2.4888,-2.439,0.0,-2.3682,-2.3779,-2.3794,-2.3979,-2.4063,-2.4105,-2.4245,-2.4302,-2.44,-2.4482,-2.458,-2.4677,-2.5131,-2.5472,-2.5738,-2.6151,-2.6365,-2.654,-2.6683,-2.6741,0.0,0.0,0.0,-2.9863,-3.1256,-3.2142,-3.2738,-3.3115,-3.3696,-3.4298,-3.4606,-3.4234,-3.3825,-3.391,-3.3486,-3.3117,-3.3165,-3.3244,-3.3322,-3.3322,-3.3322,-3.3521,-3.4081,-3.4078,-3.4281,-3.4875,-3.5029,-3.5426,-3.6179,-3.6344,-3.672,-3.7432,-3.7466,-3.7429,-3.7334,-3.7334,-3.7241,-3.7091,-3.7108,-3.7069,-3.6987,-3.6987,-3.6987,-3.6987,-3.7009,-3.7048,-3.7073,-3.637,-3.5648,-3.4871,-3.4818,-3.4068,-3.287,-3.2965,-3.3042,-3.3122,-3.3304,-3.3422,-3.3481,-3.3605,-3.3726,-3.3807,0.0,0.0,0.0,0.0,0.0,0.0,0.0,0.0,0.0,0.0,0.0,0.0,-2.6923,-2.6923,-2.6891,-2.6741,-2.6741,-2.6624,-2.642,-2.6383,-2.6277,-2.6082,-2.6043,0.0,-2.5795,-2.5779,-2.5815,0.0,0.0,0.0,-2.5077,-2.5008,-2.4595,-2.3868,-2.4612,-2.4863,-2.4735,-2.4799,-2.4719,-2.4589,-2.4686,-2.4686,-2.4589,-2.4589,-2.4751,-2.51,-2.587,-2.635,-2.6779,-2.7588,-2.7646,-2.7344,-2.7401,-2.7196,-2.7079,0.0,0.0,0.0,-3.1576,-3.1873,-3.2173,-3.2976,-3.3312,-3.351,-3.3811,-3.3845,-3.3699,-3.3257,-3.3122,-3.3165,-3.3364,-3.3393,-3.3393,-3.3393,-3.3393,-3.3411,-3.3465,-3.3376,-3.3382,-3.3418,-3.3975,-3.4648,-3.5457,-3.6125,-3.6844,-3.7596,-3.7613,-3.754,-3.7392,-3.7392,-3.7299,-3.7108,-3.7108,-3.7069,-3.6987,-3.6987,-3.6987,-3.6987,-3.7069,-3.7108,-3.7073,-3.6519,-3.5847,-3.5048,-3.4301,-3.3586,-3.2979,-3.2997,-3.3152,-3.3364,-3.3393,-3.3481,-3.3605,-3.3753,-3.3788,-3.386,0.0,0.0,0.0,0.0,0.0,0.0,0.0,0.0,0.0,0.0,0.0,0.0,0.0,-2.7491,-2.7491,-2.7382,-2.7382,-2.7352,-2.7255,-2.7129,-2.7002,-2.692,-2.6824,-2.6757,-2.6707,-2.6707,-2.647,0.0,0.0,-2.5686,-2.5033,-2.5002,-2.4836,-2.452,-2.4279,-2.4107,-2.4064,-2.4457,-2.4553,-2.4417,-2.4854,-2.495,-2.4958,-2.5334,-2.5629,-2.5886,-2.6791,-2.7252,-2.7564,-2.8079,-2.8268,-2.8239,-2.8297,-2.8044,-2.7828,-2.875,-2.9816,-3.0851,-3.1593,-3.1893,-3.2089,-3.2421,-3.2669,-3.2844,-3.2997,-3.3082,-3.3143,-3.3127,-3.3086,-3.3165,-3.3364,-3.3393,-3.3393,-3.3393,-3.3393,-3.3393,-3.3393,-3.3382,-3.3352,-3.3352,-3.3545,-3.3952,-3.4709,-3.4986,-3.5588,-3.6844,-3.6916,-3.7059,-3.7522,-3.754,-3.7466,-3.7299,-3.7241,-3.7126,-3.6987,-3.6987,-3.6781,-3.6344,-3.6365,-3.6213,-3.5793,-3.5084,-3.469,-3.4488,-3.3684,-3.3216,-3.3011,-3.3183,-3.3304,-3.3393,-3.3549,-3.3661,-3.3753,-3.3815,-3.3947,-3.4074,0.0,0.0,0.0,0.0,0.0,0.0,0.0,0.0,0.0,-2.7847,0.0,0.0,0.0,0.0,-2.7855,-2.7571,-2.7564,-2.7457,-2.7154,-2.6961,-2.701,-2.7245,-2.7133,-2.7195,-2.7474,-2.7444,-2.7061,0.0,0.0,0.0,0.0,-2.4798,-2.4604,-2.4306,-2.3697,-2.3566,-2.3852,-2.4488,-2.4623,-2.4454,-2.5013,-2.5368,-2.5544,-2.5925,-2.6356,-2.6782,-2.7653,-2.8118,-2.8379,-2.8923,-2.9076,-2.9068,-2.9198,-2.8931,-2.8716,-2.9644,-3.0282,-3.0851,-3.1593,-3.1946,-3.2108,-3.2108,-3.2284,-3.2523,-3.2573,-3.269,-3.287,-3.3055,-3.3086,-3.3165,-3.3364,-3.3393,-3.3393,-3.3393,-3.3393,-3.3393,-3.3393,-3.3393,-3.3393,-3.3393,-3.3352,-3.3629,-3.4388,-3.4384,-3.4842,-3.6088,-3.6179,-3.6343,-3.6845,-3.6827,-3.6756,-3.6647,-3.6537,-3.6425,-3.6312,-3.6312,-3.6086,-3.5629,-3.5683,-3.5473,-3.5083,-3.4351,-3.4062,-3.4175,-3.3432,-3.3135,-3.3152,-3.3334,-3.3452,-3.3538,-3.3671,-3.378,-3.386,-3.3947,-3.4099,-3.4221,0.0,0.0,0.0,0.0,0.0,0.0,0.0,0.0,-2.8109,-2.8201,0.0,0.0,0.0,0.0,0.0,-2.7295,-2.726,-2.6917,-2.6081,-2.5955,-2.6229,-2.6956,-2.6863,-2.7157,-2.7921,-2.7883,-2.7465,0.0,0.0,0.0,0.0,0.0,-2.3897,-2.3193,-2.2944,-2.3356,-2.432,-2.4929,-2.4941,-2.4655,-2.5308,-2.5889,-2.6302,-2.6318,-2.6864,-2.7727,-2.8563,-2.8974,-2.928,-3.0195,-3.0152,-2.9805,-3.0015,-2.9805,-2.9592,-3.0472,-3.0696,-3.0851,0.0,0.0,0.0,-3.2108,-3.2284,-3.2523,-3.2606,-3.269,-3.287,-3.3055,-3.3086,-3.3165,-3.3364,-3.3393,-3.3393,-3.3393,-3.3393,-3.3393,-3.3393,-3.3393,-3.3393,-3.3393,-3.3393,-3.3719,-3.4498,-3.4442,-3.4686,-3.5479,-3.5439,-3.5375,-3.5411,-3.5256,-3.5187,-3.5101,-3.496,-3.4907,-3.4907,-3.4907,-3.4889,-3.4872,-3.5013,-3.5065,-3.5012,-3.4416,-3.4175,-3.4139,-3.3617,-3.3393,-3.3411,-3.3411,-3.352,-3.3698,-3.378,-3.386,-3.3921,-3.4124,-3.4197,-3.4245,0.0,0.0,0.0,0.0,0.0,0.0,-2.8246,-2.8318,-2.8353,0.0,0.0,0.0,-2.8594,-2.8167,-2.783,-2.7706,-2.7178,-2.6756,-2.6515,-2.6432,-2.6476,-2.6631,-2.6563,-2.6579,-2.6754,-2.6754,-2.6333,-2.5476,0.0,0.0,0.0,0.0,0.0,0.0,-2.3119,-2.3362,-2.3978,-2.4303,-2.4315,-2.4094,-2.5188,-2.5944,-2.6503,-2.7017,-2.7743,-2.8579,-2.9557,-2.9987,-3.0203,-3.069,-3.0841,-3.0746,-3.0469,-3.0309,-3.0244,-3.0592,-3.0696,-3.0851,-3.1593,0.0,0.0,0.0,0.0,0.0,-3.2606,-3.2737,-3.2916,-3.3055,-3.3086,-3.3165,-3.3364,-3.3393,-3.3393,-3.3393,-3.3393,-3.3393,-3.3393,-3.3393,-3.3393,-3.3393,-3.3393,-3.3502,-3.3719,-3.3689,-3.3985,-3.47,-3.4645,-3.4849,-3.5375,-3.5256,-3.5187,-3.5101,-3.5048,-3.5013,-3.4907,-3.4907,-3.4677,-3.4162,-3.4196,-3.4013,-3.3577,-3.3409,-3.3414,-3.3538,-3.3442,-3.3452,-3.3549,-3.3605,-3.3671,-3.378,-3.386,-3.3972,-3.4124,-3.4173,-3.4316,-3.4517,0.0,0.0,0.0,0.0,0.0,-2.8246,-2.8484,-2.8536,-2.8637,0.0,0.0,0.0,-2.892,-2.8381,-2.7877,-2.7584,-2.6861,-2.6246,-2.5893,-2.5838,-2.5931,-2.6207,-2.6127,-2.6211,-2.6493,-2.6447,-2.6002,-2.5178,0.0,0.0,0.0,0.0,0.0,0.0,0.0,-2.4156,-2.4339,-2.4659,-2.4629,-2.4479,-2.5677,-2.6536,-2.7194,-2.7899,-2.8712,-2.9531,-3.0178,-3.0493,-3.0658,-3.0975,-3.1213,-3.1338,-3.1045,-3.0982,-3.1072,-3.1145,-3.1145,-3.1248,-3.1735,-3.1965,-3.2108,-3.2144,0.0,0.0,-3.2606,-3.2737,-3.2948,-3.3055,-3.3086,-3.3165,-3.3364,-3.3393,-3.3393,-3.3393,-3.3393,-3.3393,-3.3393,-3.3393,-3.3393,-3.3393,-3.3393,-3.3393,-3.3393,-3.3393,-3.3563,-3.3936,-3.388,-3.3952,-3.4339,-3.4291,-3.4207,-3.4191,-3.4191,-3.414,-3.4054,-3.4054,-3.3875,-3.3496,-3.3496,-3.333,-3.3011,-3.3091,-3.3183,-3.3352,-3.3452,-3.3549,-3.3698,-3.3753,-3.3807,-3.3842,-3.3972,-3.4099,-3.4221,-3.4316,-3.4495,-3.4666,0.0,0.0,-2.8071,-2.8209,-2.8345,-2.851,-2.8718,-2.881,-2.8905,0.0,-2.9156,-2.9203,-2.9355,-2.8708,-2.7973,-2.7201,-2.6362,-2.5563,-2.4779,-2.4734,-2.5023,-2.5654,-2.5591,-2.5838,-2.6544,-2.6426,-2.6035,-2.5297,0.0,0.0,0.0,0.0,0.0,0.0,0.0,0.0,-2.5131,-2.5448,-2.5496,-2.5445,-2.65,-2.7355,-2.8092,-2.8796,-2.9641,-3.0459,-3.0526,-3.0699,-3.0885,-3.1173,-3.1445,-3.1654,-3.1654,-3.1746,-3.1819,-3.1819,-3.1819,-3.1856,-3.1912,-3.202,-3.2108,-3.2179,-3.2404,0.0,-3.2606,-3.2737,-3.2948,-3.3055,-3.3014,-3.3057,-3.3345,-3.3339,-3.3302,-3.3393,-3.3393,-3.3393,-3.3393,-3.3393,-3.3393,-3.3393,-3.3393,-3.3393,-3.3393,-3.3393,-3.3393,-3.3393,-3.3226,-3.3024,-3.2916,-3.2916,-3.2916,-3.2916,-3.2916,-3.2916,-3.2916,-3.2916,-3.2916,-3.2916,-3.2979,-3.3028,-3.306,-3.3232,-3.3352,-3.3422,-3.3549,-3.3698,-3.3807,-3.3895,-3.3921,-3.3947,-3.4124,-3.4221,-3.4269,-3.4517,-3.4666,-3.4749,-2.8053,-2.8154,-2.8237,-2.8484,-2.8587,-2.8737,-2.8975,-2.9067,-2.916,-2.933,-2.9434,-2.957,-2.9751,-2.848,-2.7562,-2.7433,-2.6056,-2.5126,-2.4955,-2.4934,-2.4983,-2.5073,-2.5005,-2.5008,-2.5113,-2.503,-2.487,-2.4614,0.0,0.0,0.0,0.0,0.0,0.0,0.0,-2.5586,-2.5872,-2.5669,-2.5832,-2.63,-2.6842,-2.7449,-2.8092,-2.9024,-2.9914,-3.0692,-3.0935,-3.1117,-3.1257,-3.1559,-3.1746,-3.1875,-3.1965,-3.2001,-3.2037,-3.2037,-3.2037,-3.2037,-3.2073,-3.2108,-3.2179,-3.2179,-3.2404,0.0,-3.2606,-3.2737,-3.2948,-3.3055,-3.2649,-3.2445,-3.3255,-3.2868,-3.2651,-3.3284,-3.3393,-3.3393,-3.3393,-3.3393,-3.3393,-3.3393,-3.3393,-3.3393,-3.3393,-3.3393,-3.3393,-3.3393,-3.3226,-3.3073,-3.2979,-3.2916,-3.2916,-3.2916,-3.2916,-3.2916,-3.2916,-3.2916,-3.2916,-3.2979,-3.2979,-3.3091,-3.3232,-3.3352,-3.3422,-3.3509,-3.3671,-3.378,-3.3834,-3.4049,-3.4148,-3.4148,-3.4173,-3.434,-3.4539,-3.4645,-3.4769,-3.4889,-2.8237,-2.8327,-2.8458,-2.8612,-2.8761,-2.8929,-2.9175,-2.891,-2.8775,-2.8933,-2.9097,-2.9399,-2.9939,-2.8917,-2.8044,-2.7676,-2.6515,-2.5608,-2.5184,-2.5111,-2.5087,-2.505,-2.4942,-2.4874,-2.4847,-2.4749,-2.4676,-2.4594,-2.487,0.0,0.0,0.0,0.0,0.0,-2.6506,-2.658,-2.6664,-2.6754,-2.6911,-2.7142,-2.7533,-2.7932,-2.8378,-2.9669,-3.052,-3.1038,-3.1252,-3.1466,-3.1637,-3.1856,-3.2001,-3.2055,-3.2144,-3.2179,-3.2197,-3.2197,-3.2197,-3.2214,-3.2232,-3.2267,-3.2301,-3.2336,-3.2489,0.0,0.0,-3.2787,-3.284,-3.2619,-3.2272,-3.2031,-3.2187,-3.1872,-3.1854,-3.2669,-3.2795,-3.294,-3.3339,-3.3393,-3.3393,-3.3393,-3.3393,-3.3393,-3.3393,-3.3393,-3.3382,-3.3352,-3.3196,-3.3055,-3.3011,-3.2948,-3.2916,-3.2916,-3.2916,-3.2916,-3.2916,-3.2948,-3.2948,-3.2979,-3.3091,-3.3232,-3.3352,-3.3422,-3.352,-3.3661,-3.3753,-3.3868,-3.4023,-3.4173,-3.4316,-3.4386,-3.4386,-3.4495,-3.4666,-3.4751,-3.487,-3.5018,-2.83,-2.8484,-2.8637,-2.8712,-2.8881,-2.9085,-2.9283,-2.8831,-2.8559,-2.8776,-2.895,-2.9346,-3.0079,-2.9487,-2.8787,-2.8137,-2.7189,-2.6333,-2.563,-2.5369,-2.5222,-2.522,-2.5091,-2.5031,-2.5038,-2.4907,-2.4827,-2.4787,-2.5417,0.0,0.0,0.0,0.0,-2.7255,-2.7741,-2.7749,-2.7457,-2.7998,-2.8115,-2.7969,-2.8452,-2.8732,-2.8937,-3.0381,-3.114,-3.1428,-3.1579,-3.1802,-3.2038,-3.2144,-3.2214,-3.2284,-3.2284,-3.2301,-3.2352,-3.2352,-3.2352,-3.237,-3.2439,-3.2457,-3.2457,-3.2507,-3.259,-3.269,0.0,0.0,0.0,-3.2134,-3.1876,-3.1629,-3.1084,-3.0858,-3.1021,-3.1836,-3.2089,-3.2433,-3.3085,-3.3302,-3.3393,-3.3393,-3.3393,-3.3393,-3.3393,-3.3393,-3.3382,-3.331,-3.3183,-3.3055,-3.3011,-3.2948,-3.2916,-3.2916,-3.2916,-3.2916,-3.2916,-3.2979,-3.3028,-3.306,-3.3232,-3.3352,-3.3422,-3.3538,-3.3661,-3.3788,-3.3842,-3.3998,-3.4221,-3.4316,-3.4473,-3.4645,-3.4645,-3.4687,-3.4749,-3.4889,-3.5018,-3.5174,-2.8353,-2.851,-2.8637,-2.8761,-2.8952,-2.9134,-2.9291,-2.9378,-2.9551,-2.9874,-2.9985,-3.0113,-3.0336,-2.9652,-2.9145,-2.9061,-2.7595,-2.666,-2.6554,-2.5803,-2.5351,-2.5293,-2.5222,-2.5187,-2.518,-2.5051,-2.4926,-2.4813,-2.545,-2.6042,0.0,0.0,-2.7723,-2.8166,-2.86,-2.8586,-2.8283,-2.8767,-2.8931,-2.8907,-2.9675,-2.9905,-2.9854,-3.0989,-3.1542,-3.1783,-3.2109,-3.2301,-3.2422,-3.2456,-3.2489,-3.2555,-3.2555,-3.2573,-3.2573,-3.2573,-3.2573,-3.2573,-3.2573,-3.2573,-3.2573,-3.2606,-3.269,-3.2773,-3.2791,0.0,-3.2796,-3.2134,0.0,-3.1,-3.1003,0.0,0.0,-3.1003,-3.1727,-3.2234,-3.2325,-3.294,-3.3393,-3.3393,-3.3393,-3.3393,-3.3393,-3.3393,-3.3382,-3.331,-3.3183,-3.3055,-3.3011,-3.2948,-3.2916,-3.2916,-3.2916,-3.2916,-3.2979,-3.2997,-3.3091,-3.328,-3.3352,-3.3422,-3.3491,-3.3671,-3.378,-3.3815,-3.4049,-3.4197,-3.4293,-3.4495,-3.4645,-3.4768,-3.4768,-3.481,-3.4889,-3.5035,-3.5157,-3.5293,-2.8371,-2.851,-2.8662,-2.8834,-2.8998,-2.9156,-2.9332,-2.9195,-2.9158,-2.937,-2.9493,-2.9786,-3.0398,-3.016,-2.9767,-2.9294,-2.8617,-2.799,-2.7498,-2.6639,-2.6139,-2.6111,-2.5553,-2.5262,-2.5261,-2.516,-2.5292,-2.5674,-2.6312,-2.6915,0.0,0.0,-2.8268,-2.8336,-2.8765,-2.8753,-2.8537,-2.9627,-3.002,-2.9945,-3.0917,-3.1282,-3.1263,-3.1681,-3.202,-3.2301,-3.2573,-3.2672,-3.2722,-3.2722,-3.2787,-3.2852,-3.2852,-3.2866,-3.2898,-3.2898,-3.2898,-3.2898,-3.2834,-3.2852,-3.2852,-3.2852,-3.2884,-3.2934,-3.2979,-3.267,-3.2224,-3.152,0.0,0.0,0.0,0.0,0.0,0.0,-3.0586,-3.0994,-3.1492,-3.1827,-3.2343,-3.3284,-3.3393,-3.3393,-3.3393,-3.3393,-3.3382,-3.331,-3.3183,-3.3055,-3.3011,-3.2948,-3.2916,-3.2948,-3.2948,-3.2979,-3.3073,-3.3122,-3.3232,-3.3352,-3.3422,-3.352,-3.3671,-3.3753,-3.3868,-3.4049,-3.4197,-3.434,-3.4495,-3.4649,-3.4791,-3.4927,-3.5001,-3.5019,-3.5035,-3.5171,-3.53,-3.5435,-2.8246,-2.8458,-2.8637,-2.8785,-2.8952,-2.9156,-2.9392,-2.9192,-2.9049,-2.9208,-2.9347,-2.9694,-3.04,-3.05,-3.0279,-2.9708,-2.9437,-2.9022,-2.8405,-2.7535,-2.7063,-2.7064,-2.64,-2.6015,-2.6005,-2.5929,-2.6142,-2.6662,-2.7258,-2.7753,0.0,0.0,-2.8778,-2.8712,-2.9171,-2.9347,-2.9325,-3.0646,-3.1097,-3.1061,-3.1882,-3.2178,-3.2086,-3.2053,-3.2188,-3.2414,-3.2375,-3.2366,-3.2366,-3.2366,-3.2396,-3.2481,-3.2727,-3.2811,-3.2907,-3.3124,-3.3196,-3.3165,-3.3104,-3.3122,-3.3122,-3.3091,-3.2929,-3.275,-3.278,-3.2218,-3.1502,-3.0748,-3.0125,0.0,0.0,0.0,-2.8793,-2.9373,0.0,-3.0059,-3.0666,-3.0939,-3.1474,-3.2625,-3.294,-3.3158,-3.3375,-3.3393,-3.3352,-3.3244,-3.3165,-3.3055,-3.2979,-3.2916,-3.2916,-3.2979,-3.2979,-3.3042,-3.3165,-3.3262,-3.3352,-3.3422,-3.3509,-3.3615,-3.3788,-3.386,-3.3998,-3.4197,-3.4316,-3.4495,-3.4666,-3.4792,-3.4945,-3.5091,-3.5209,-3.5239,-3.5216,-3.5311,-3.543,-3.5534,-2.7968,-2.8327,-2.8612,-2.8612,-2.8834,-2.9112,-2.9453,-2.9645,-2.9839,-3.0034,-3.0174,-3.0292,-3.0386,-3.046,-3.053,-3.0559,-2.9785,-2.9282,-2.9263,-2.8431,-2.7959,-2.7971,-2.7865,-2.7817,-2.7813,-2.7697,-2.7599,-2.7551,-2.8159,-2.837,-2.8201,-2.868,-2.9162,-2.9674,-3.0154,-3.0645,-3.1177,-3.1882,-3.2144,-3.2179,-3.237,-3.2261,-3.1906,-3.1834,-3.1846,-3.1858,-3.1281,-3.1066,-3.1066,-3.1066,-3.1066,-3.121,-3.1999,-3.2234,-3.2379,-3.3176,-3.3393,-3.3393,-3.3411,-3.3411,-3.3382,-3.3292,-3.2715,-3.2108,-3.2038,-3.1466,-3.0712,-2.99,-2.9755,-2.9554,-2.8757,-2.8587,-2.8605,-2.8623,-2.9352,0.0,0.0,-3.0654,-3.1182,-3.1183,-3.1791,-3.2542,-3.3321,-3.3393,-3.3334,-3.3117,-3.3086,-3.3024,-3.2916,-3.2916,-3.2916,-3.2979,-3.2979,-3.3091,-3.3292,-3.331,-3.3382,-3.3509,-3.3549,-3.3671,-3.3807,-3.3998,-3.4124,-3.4221,-3.4473,-3.4666,-3.4809,-3.4946,-3.5108,-3.5312,-3.5369,-3.543,-3.5483,-3.5496,-3.554,-3.5612,-2.7777,-2.8415,-2.8836,-2.8522,-2.8662,-2.8934,-2.9312,-2.9551,-2.9753,-3.0007,-3.0152,-3.0286,-3.039,-3.0449,-3.052,-3.053,-3.0298,-3.0153,-3.0153,-2.9342,-2.8868,-2.8859,-2.8242,-2.7893,-2.7892,-2.7816,-2.8001,-2.8464,-2.8525,-2.876,-2.9138,-2.9071,-2.932,-2.9852,-3.0356,-3.0927,-3.1508,-3.232,-3.2639,-3.2636,-3.3006,-3.2798,-3.2236,-3.2105,-3.1808,-3.142,-3.1326,-3.1269,-3.1269,-3.1269,-3.1269,-3.1323,-3.1579,-3.167,-3.1725,-3.1999,-3.209,-3.209,-3.209,-3.209,-3.2064,-3.1983,-3.1783,-3.1556,-3.1502,-3.0866,-3.0194,-2.9888,-2.9424,-2.8971,-2.8667,-2.8587,-2.8587,-2.8587,-2.888,-2.9112,0.0,-2.9441,-2.9787,-3.0257,-3.1411,-3.2306,-3.2578,-3.3085,-3.3334,-3.3117,-3.3086,-3.3024,-3.2916,-3.2916,-3.2948,-3.3055,-3.3073,-3.3165,-3.3352,-3.3382,-3.3422,-3.3577,-3.3615,-3.3753,-3.3947,-3.4099,-3.4245,-3.4427,-3.4645,-3.481,-3.4946,-3.5091,-3.5226,-3.5369,-3.5435,-3.5521,-3.5626,-3.5635,-3.5667,-3.5747,-2.831,-2.8868,-2.917,-2.8772,-2.9115,-2.9605,-2.9986,-3.023,-3.0339,-3.033,-3.0453,-3.0519,-3.0381,-3.0425,-3.0479,-3.05,-3.054,-3.055,-3.055,-3.0037,-2.9738,-2.9738,-2.9117,-2.8797,-2.8797,-2.8706,-2.8868,-2.9336,-2.9128,-2.9228,-2.9588,-2.9304,-2.9609,-3.0418,-3.0731,-3.1384,-3.2263,-3.2857,-3.3086,-3.3081,-3.3484,-3.3031,-3.2114,-3.2104,-3.1583,-3.0888,-3.0722,-3.0659,-3.0659,-3.0654,-3.0649,-3.0686,-3.0956,-3.1029,-3.1103,-3.1421,-3.1513,-3.1495,-3.1544,-3.152,-3.1495,-3.1439,-3.1176,-3.0924,-3.083,-3.0184,-2.96,-2.9526,-2.91,-2.8712,-2.8662,-2.8637,-2.8637,-2.8612,-2.8687,-2.8761,0.0,-2.8858,-2.8992,-2.9446,-3.0839,-3.189,-3.2162,-3.2922,-3.3334,-3.3117,-3.3086,-3.3024,-3.2916,-3.2916,-3.2979,-3.3086,-3.3135,-3.3226,-3.3393,-3.3422,-3.3509,-3.3605,-3.3698,-3.3815,-3.3998,-3.4173,-3.4167,-3.4105,-3.4597,-3.4718,-3.4601,-3.5059,-3.5315,-3.5443,-3.554,-3.5637,-3.5747,-3.5737,-3.5773,-3.583,-2.9438,-2.9677,-2.9752,-2.9508,-3.0245,-3.1003,-3.1345,-3.1555,-3.1492,-3.1016,-3.1126,-3.1042,-3.0477,-3.0477,-3.0537,-3.0604,-3.0614,-3.0614,-3.0614,-3.0614,-3.0614,-3.0614,-3.0548,-3.0513,-3.0513,-3.0387,-3.0305,-3.0208,-3.0023,-2.9869,-2.972,-2.9518,-3.013,-3.1393,-3.1297,-3.2065,-3.3422,-3.3481,-3.352,-3.3549,-3.3815,-3.3006,-3.1695,-3.1842,-3.1299,-3.0331,-2.9588,-2.9314,-2.9312,-2.9326,-2.9323,-2.9431,-3.0124,-3.036,-3.0531,-3.1353,-3.1575,-3.1617,-3.1667,-3.1644,-3.1594,-3.1523,-3.0867,-3.0207,-3.0082,-2.9454,-2.8905,-2.881,-2.881,-2.8785,-2.8718,-2.8694,-2.8669,-2.8612,-2.8712,-2.8834,-2.8994,-2.8929,-2.8881,-2.881,-3.0067,-3.1256,-3.2053,-3.2904,-3.3334,-3.3117,-3.3086,-3.3024,-3.2916,-3.2948,-3.3042,-3.3086,-3.3214,-3.3322,-3.3393,-3.3481,-3.352,-3.3605,-3.3753,-3.3868,-3.4023,-3.4184,-3.3896,-3.3374,-3.4298,-3.4358,-3.3872,-3.4852,-3.5345,-3.5507,-3.5657,-3.5756,-3.5818,-3.5815,-3.5852,-3.5904,-2.921,-3.0385,-3.1706,-3.2914,-3.1781,-3.0772,-3.0976,-3.1283,-3.1528,-3.1621,-3.1807,-3.1953,-3.2012,-3.2096,-3.2217,-3.2289,-3.2275,-3.2288,-3.2288,-3.2282,-3.2289,-3.2289,-3.2211,-3.2166,-3.2105,-3.2087,-3.1997,-3.1884,-3.1784,-3.1638,-3.1446,-3.1302,-3.1685,-3.2484,-3.2378,-3.2826,-3.3698,-3.3726,-3.378,-3.3895,-3.4124,-3.3631,-3.275,-3.2243,-3.1555,-3.0712,-2.9791,-2.9453,-2.9453,-2.9451,-2.9451,-2.9488,-2.9673,-2.9729,-2.9766,-2.999,-3.0066,-3.0066,-3.0105,-3.0066,-3.0046,-2.9983,-2.9774,-2.9542,-2.9492,-2.9277,-2.9021,-2.897,-2.8905,-2.8858,-2.8785,-2.8718,-2.8694,-2.8687,-2.8737,-2.8834,-2.8994,-2.8929,-2.8881,-2.881,-2.9628,-3.0476,-3.122,-3.2578,-3.3334,-3.3117,-3.3086,-3.3024,-3.2916,-3.2948,-3.3042,-3.3086,-3.3214,-3.3322,-3.3393,-3.3481,-3.352,-3.3605,-3.3807,-3.3947,-3.4055,-3.3655,-3.3443,-3.3366,-3.3129,-3.3367,-3.3971,-3.4266,-3.4879,-3.5581,-3.5669,-3.5803,-3.5933,-3.5891,-3.5914,-3.5977,-3.0808,-3.1854,-3.3003,-3.4081,-3.3178,-3.2403,-3.2762,-3.2799,-3.279,-3.2771,-3.2692,-3.258,-3.2479,-3.2591,-3.2703,-3.2766,-3.2795,-3.2804,-3.2804,-3.2809,-3.2814,-3.2814,-3.2752,-3.2684,-3.2669,-3.2626,-3.2545,-3.2462,-3.2391,-3.226,-3.2105,-3.2019,-3.234,-3.299,-3.2919,-3.3266,-3.3972,-3.3998,-3.4099,-3.4221,-3.4363,-3.3986,0.0,-3.2482,-3.1713,-3.0922,-2.9983,-2.9626,-2.9626,-2.9608,-2.9589,-2.9589,-2.9589,-2.9589,-2.9589,-2.9589,-2.9589,-2.9589,-2.9626,-2.9608,-2.9589,-2.955,-2.9472,-2.9412,-2.9328,-2.9246,-2.916,-2.9089,-2.9021,-2.8975,-2.8905,-2.8834,-2.8791,-2.8791,-2.8834,-2.8881,-2.8994,-2.8952,-2.8905,-2.881,-2.9471,-3.0075,-3.045,-3.1926,-3.2954,-3.3178,-3.3117,-3.3055,-3.2993,-3.3042,-3.3073,-3.3165,-3.3292,-3.3352,-3.3393,-3.3509,-3.3549,-3.3605,-3.3815,-3.3998,-3.4062,-3.3515,-3.3133,-3.2901,-3.2578,-3.2616,-3.2958,-3.3826,-3.455,-3.5116,-3.5605,-3.5864,-3.5991,-3.5957,-3.597,-3.5996,-3.3034,-3.3499,-3.3909,-3.422,-3.4532,-3.4914,-3.542,-3.5051,-3.455,-3.4081,-3.3714,-3.3262,-3.2656,-3.2728,-3.2832,-3.2882,-3.295,-3.2985,-3.2985,-3.2985,-3.2985,-3.2985,-3.2934,-3.2901,-3.2882,-3.2835,-3.2765,-3.2693,-3.2638,-3.2561,-3.2424,-3.2418,-3.2729,-3.3295,-3.3272,-3.3641,-3.4245,-3.4316,-3.4427,-3.4539,-3.4602,-3.4252,-3.3598,-3.2789,-3.1977,-3.1182,-3.0315,-2.9901,-2.979,-2.9735,-2.9717,-2.9717,-2.9701,-2.9701,-2.9719,-2.9699,-2.9717,-2.9717,-2.9771,-2.9754,-2.9699,-2.9719,-2.9664,-2.9569,-2.9394,-2.9334,-2.9291,-2.9243,-2.9156,-2.9089,-2.904,-2.8952,-2.8905,-2.8905,-2.8905,-2.8929,-2.8994,-2.8994,-2.8947,-2.8828,-2.943,0.0,-2.9797,-3.1256,-3.2459,-3.3094,-3.3111,-3.3117,-3.3086,-3.3135,-3.3165,-3.331,-3.3382,-3.3393,-3.3393,-3.352,-3.3605,-3.3605,-3.3868,-3.4049,-3.4087,-3.343,-3.2837,-3.2298,-3.2231,-3.1917,-3.1629,-3.3403,-3.4311,-3.4686,-3.5554,-3.5946,-3.5995,-3.5992,-3.5986,-3.5982,-3.3445,-3.404,-3.4618,-3.5506,-3.5821,-3.6151,-3.6644,-3.5935,-3.5178,-3.4767,-3.4858,-3.4729,-3.4161,-3.4276,-3.4415,-3.4396,-3.4472,-3.4527,-3.4527,-3.4527,-3.4527,-3.4527,-3.449,-3.4472,-3.4434,-3.4396,-3.4357,-3.4295,-3.4293,-3.4233,-3.4151,-3.4105,-3.4139,-3.4248,-3.4203,-3.4255,-3.445,-3.4517,-3.4583,-3.4666,-3.4747,-3.4734,-3.4567,-3.3753,-3.2974,-3.2224,-3.135,-3.0511,-2.9808,-2.979,-2.9771,-2.9771,-2.979,-2.9773,-2.979,-2.9771,-2.9771,-2.979,-2.9808,-2.9808,-2.9771,-2.979,-2.9738,-2.9664,-2.9645,-2.9492,-2.9353,-2.9312,-2.9286,-2.9218,-2.9108,-2.8975,-2.8905,-2.8905,-2.8905,-2.8929,-2.8994,-2.8994,-2.8947,-2.8828,-2.8913,-2.9234,-2.9743,-3.1256,-3.2224,-3.23,-3.2883,-3.3214,-3.3117,-3.3214,-3.3262,-3.331,-3.3382,-3.3393,-3.3393,-3.352,-3.3605,-3.3605,-3.3868,-3.4074,-3.4141,-3.2832,-3.2236,-3.2222,-3.1032,-3.0882,-3.159,-3.276,-3.4178,-3.5639,-3.583,-3.5948,-3.5994,-3.6007,-3.5963,-3.5924,-3.5316,-3.5766,-3.6257,-3.6842,-3.6857,-3.6964,-3.7341,-3.6776,-3.6201,-3.5887,-3.5795,-3.5549,-3.4922,-3.5063,-3.5052,-3.4645,-3.4689,-3.4751,-3.4751,-3.4771,-3.498,-3.5394,-3.5453,-3.568,-3.6094,-3.6094,-3.6052,-3.5985,-3.5985,-3.5757,-3.5277,-3.5237,-3.5233,-3.5233,-3.5668,-3.5856,-3.5901,-3.5985,-3.5765,-3.5432,-3.5491,-3.5305,-3.4851,-3.4071,-3.327,-3.2485,-3.161,-3.0725,-2.9959,-2.9959,-2.9959,-2.9959,-2.9959,-2.9959,-2.9959,-2.9959,-2.9959,-2.9959,-2.9959,-2.9959,-2.9943,-2.9874,-2.9823,-2.979,-2.9719,-2.9626,-2.9531,-2.9472,-2.9372,-2.9286,-2.9156,-2.9089,-2.9044,-2.9021,-2.8998,-2.8998,-2.9017,-2.8994,-2.897,-2.8858,-2.881,-2.8907,-2.9214,-3.0269,-3.1292,-3.2087,-3.2491,-3.2859,-3.3238,-3.3292,-3.334,-3.3352,-3.3364,-3.3422,-3.3452,-3.3549,-3.3633,-3.3643,-3.3895,-3.3852,-3.3547,-3.254,-3.1938,-3.167,-3.0613,-3.0445,-3.1044,-3.2542,-3.3988,-3.5324,-3.577,-3.5974,-3.6009,-3.5966,-3.5911,-3.5857,-3.69,-3.722,-3.7582,-3.7759,-3.7614,-3.7583,-3.7931,-3.7586,-3.7117,-3.6714,-3.649,-3.6087,-3.5432,-3.5606,-3.5522,-3.487,-3.4974,-3.5061,-3.5061,-3.5127,-3.545,-3.6088,-3.6171,-3.6512,-3.7212,-3.7231,-3.7209,-3.7145,-3.7167,-3.6825,-3.616,-3.616,-3.616,-3.6179,-3.6885,-3.7209,-3.7231,-3.7279,-3.6852,-3.6138,-3.6196,-3.5742,-3.4962,-3.4331,-3.3473,-3.2537,-3.1851,-3.0956,-3.0117,-3.0117,-3.0117,-3.0102,-3.0102,-3.0102,-3.0102,-3.0102,-3.0102,-3.0102,-3.0102,-3.0102,-3.0068,-2.9972,-2.9924,-2.9872,-2.977,-2.9718,-2.9701,-2.9626,-2.9453,-2.9312,-2.9225,-2.9222,-2.9197,-2.9112,-2.9112,-2.9108,-2.904,-2.9017,-2.8975,-2.8905,-2.8834,-2.8785,-2.8712,-2.9207,-3.0206,-3.1818,-3.205,-3.2502,-3.3357,-3.3352,-3.3352,-3.3411,-3.3393,-3.3422,-3.3509,-3.3577,-3.3643,-3.3726,-3.3755,-3.35,-3.3013,-3.2227,-3.1619,-3.1189,-3.0515,-3.0412,-3.0848,-3.2388,-3.3685,-3.4769,-3.545,-3.582,-3.5962,-3.5914,-3.5853,-3.5768,-3.6727,-3.7136,-3.7533,-3.7679,-3.7946,-3.822,-3.8463,-3.8191,-3.7594,-3.6631,-3.6705,-3.659,-3.5994,-3.6158,-3.6297,-3.6223,-3.6463,-3.6584,-3.6584,-3.6659,-3.6726,-3.6801,-3.6801,-3.6838,-3.6932,-3.7004,-3.7047,-3.7004,-3.7075,-3.7084,-3.6986,-3.6986,-3.6986,-3.7009,-3.713,-3.7212,-3.7297,-3.7362,-3.6953,-3.6274,-3.6293,-3.5855,-3.5164,-3.5105,-3.4072,-3.2691,-3.2596,-3.1546,-3.0204,-3.0204,-3.0161,-3.0102,-3.0102,-3.0102,-3.0102,-3.0102,-3.0102,-3.0102,-3.0102,-3.0102,-3.0102,-3.0087,-2.9988,-2.9888,-2.9872,-2.9841,-2.9773,-2.9701,-2.9531,-2.9373,-2.9293,-2.9286,-2.9262,-2.92,-2.9178,-2.9156,-2.9089,-2.9108,-2.9044,-2.8929,-2.8834,-2.8785,-2.8712,-2.8692,-2.9391,-3.0985,-3.1781,-3.2542,-3.3357,-3.3393,-3.3393,-3.3393,-3.3393,-3.3422,-3.3509,-3.3577,-3.3671,-3.3788,-3.3253,-3.3078,-3.3131,-3.1749,-3.1162,-3.1251,-3.0576,-3.086,-3.1784,-3.2013,-3.314,-3.4711,-3.4793,-3.5272,-3.591,-3.5894,-3.5811,-3.5679,-3.7953,-3.843,-3.8858,-3.8908,-3.8836,-3.8867,-3.91,-3.878,-3.8238,-3.7574,-3.7417,-3.7174,-3.6576,-3.6736,-3.6714,-3.6305,-3.6408,-3.6527,-3.6618,-3.6679,-3.6954,-3.7471,-3.7541,-3.7809,-3.8383,-3.8427,-3.8452,-3.8452,-3.8503,-3.8271,-3.7764,-3.7788,-3.7812,-3.785,-3.8432,-3.8727,-3.875,-3.8839,-3.8472,-3.7755,-3.7281,-3.6596,-3.5867,-3.5386,-3.4483,-3.3406,-3.2928,-3.2005,-3.0962,-3.0445,-3.0218,-3.0161,-3.0161,-3.0161,-3.0161,-3.0161,-3.0161,-3.0161,-3.0161,-2.978,-2.9384,-2.9389,-2.9341,-2.9296,-2.9251,-2.9566,-2.9841,-2.9827,-2.9682,-2.955,-2.9492,-2.9451,-2.9372,-2.9289,-2.9249,-2.9246,-2.9156,-2.913,-2.9067,-2.9021,-2.8881,-2.8785,-2.8761,-2.8662,-2.9282,-3.0876,-3.1292,-3.2035,-3.3339,-3.3393,-3.3393,-3.3393,-3.3393,-3.3452,-3.3549,-3.3577,-3.3433,-3.3125,-3.2982,-3.2484,-3.1675,-3.1223,-3.0905,-3.0745,-3.056,-3.0752,-3.1229,-3.1824,-3.279,-3.3961,-3.4491,-3.5183,-3.5895,-3.584,-3.5752,-3.5618,-3.886,-3.9292,-3.9677,-3.9677,-3.9614,-3.9555,-3.9778,-3.9376,-3.8955,-3.8741,-3.839,-3.7899,-3.7194,-3.7319,-3.7275,-3.6815,-3.6879,-3.6985,-3.7145,-3.7211,-3.7535,-3.8192,-3.8488,-3.8951,-3.9629,-3.9917,-4.0074,-4.0074,-4.0128,-3.9862,-3.927,-3.912,-3.892,-3.8713,-3.9397,-3.9689,-3.9712,-3.9845,-3.948,-3.8725,-3.7928,-3.7128,-3.6342,-3.5518,-3.4706,-3.3934,-3.3359,-3.2488,-3.1513,-3.0887,-3.0477,-3.0232,-3.0199,-3.0199,-3.0204,-3.0204,-3.0204,-3.0204,-3.0204,-2.9555,-2.8911,-2.8902,-2.8712,-2.8512,-2.8455,-2.8848,-2.9295,-2.9493,-2.9639,-2.9719,-2.9645,-2.9589,-2.9512,-2.9394,-2.9353,-2.9312,-2.9246,-2.9178,-2.9112,-2.9089,-2.8929,-2.8785,-2.8785,-2.8687,-2.9282,-3.0876,-3.0985,-3.1691,-3.3302,-3.3393,-3.3393,-3.3393,-3.3422,-3.3481,-3.3605,-3.3643,-3.335,-3.2766,-3.2649,-3.1957,-3.0787,-3.0787,-3.0657,-3.0436,-3.0549,-3.0649,-3.0781,-3.1442,-3.2228,-3.31,-3.3983,-3.4811,-3.5535,-3.5721,-3.5698,-3.555,-3.8969,-3.9345,-3.9677,-3.9677,-4.0037,-4.0337,-4.0468,-4.0027,-3.9807,-4.0114,-3.9641,-3.8853,-3.77,-3.7897,-3.8083,-3.8083,-3.8314,-3.8523,-3.867,-3.8743,-3.8815,-3.8892,-3.9708,-4.0193,-4.0193,-4.1173,-4.1659,-4.1659,-4.1726,-4.1791,-4.1836,-4.1109,-4.0347,-3.9602,-3.9661,-3.9689,-3.9712,-3.9845,-3.9461,-3.8746,-3.7928,-3.7165,-3.6396,-3.5534,-3.4706,-3.3991,-3.3991,-3.2967,-3.1609,-3.159,-3.1002,-3.0279,-3.0221,-3.0194,-3.0204,-3.0204,-3.0204,-3.0204,-3.0204,-2.9555,-2.8891,-2.8891,-2.8248,-2.7611,-2.7611,-2.7622,-2.7832,-2.8559,-2.9292,-2.9771,-2.9717,-2.9701,-2.9683,-2.9607,-2.9491,-2.9392,-2.9314,-2.9246,-2.9156,-2.9108,-2.8929,-2.8785,-2.8785,-2.8687,-2.9282,-3.0876,-3.0985,-3.1691,-3.3302,-3.3393,-3.3393,-3.3393,-3.3452,-3.352,-3.3605,-3.3726,-3.3508,-3.2889,-3.2218,-3.1592,-3.0978,-3.0524,-3.0379,-3.0501,-3.0563,-3.0683,-3.0808,-3.0808,-3.1321,-3.2205,-3.3076,-3.3921,-3.4703,-3.5433,-3.5629,-3.547,-3.8969,-3.9345,-3.9677,-3.9677,-3.9986,-4.0238,-4.0485,-4.0426,-4.0336,-4.0165,-4.0062,-3.9775,-3.8956,-3.8645,-3.8636,-3.8882,-3.8477,-3.83,-3.8496,-3.9108,-3.9515,-3.959,-4.0425,-4.0942,-4.1082,-4.139,-4.1579,-4.1619,-4.1706,-4.1773,-4.1892,-4.1657,-4.114,-4.0403,-4.0527,-4.0278,-3.9712,-3.9845,-3.9823,-3.9622,-3.8765,-3.7985,-3.7234,-3.6413,-3.5589,-3.4814,-3.427,-3.3738,-3.321,-3.266,-3.1911,-3.1175,-3.1162,-3.0707,-3.0194,-3.0199,-3.0204,-3.0199,-3.0194,-2.9161,-2.809,-2.8084,-2.7459,-2.6842,-2.6791,-2.7208,-2.7828,-2.8616,-2.8935,-2.9212,-2.9744,-2.9753,-2.9682,-2.9664,-2.955,-2.9453,-2.9373,-2.9267,-2.9178,-2.9156,-2.8998,-2.8881,-2.8881,-2.8785,-2.9173,-3.0254,-3.081,-3.1801,-3.3321,-3.3452,-3.3481,-3.3481,-3.352,-3.3605,-3.3671,-3.3203,-3.2672,-3.2075,-3.1402,-3.0847,-3.0383,-3.0381,-3.0447,-3.0577,-3.0644,-3.0716,-3.0808,-3.0794,-3.1305,-3.2128,-3.2407,-3.334,-3.4552,-3.4691,-3.5037,-3.5393,-3.9148,-3.9468,-3.9729,-3.9781,-3.9986,-4.0171,-4.0485,-4.0583,-4.0573,-4.0481,-4.062,-4.0604,-4.032,-3.9833,-3.9504,-3.9517,-3.9175,-3.9025,-3.9195,-3.9771,-4.0196,-4.0258,-4.1126,-4.1664,-4.1841,-4.2218,-4.2427,-4.244,-4.2579,-4.2528,-4.2305,-4.2352,-4.1807,-4.0797,-4.0922,-4.0524,-3.9712,-3.9845,-3.9954,-3.9981,-3.9145,-3.8537,-3.8038,-3.6912,-3.6181,-3.5637,-3.4845,-3.4357,-3.4016,-3.3525,-3.2795,-3.2071,-3.2058,-3.1437,-3.0649,-3.0335,-3.0245,-3.0226,-3.0253,-2.9238,-2.8109,-2.7814,-2.7106,-2.6393,-2.6039,-2.6581,-2.738,-2.8179,-2.8559,-2.8988,-2.9788,-2.9839,-2.9771,-2.9737,-2.9626,-2.9512,-2.9453,-2.9307,-2.92,-2.92,-2.9021,-2.8905,-2.8905,-2.8834,-2.9138,-2.994,-3.0494,-3.1318,-3.2546,-3.3211,-3.352,-3.352,-3.3341,-3.3259,-3.3286,-3.2636,-3.1967,-3.1273,-3.0711,-3.033,-3.0133,-3.0355,-3.05,-3.061,-3.0678,-3.073,-3.0802,-3.0831,-3.1132,-3.1638,-3.1938,-3.2856,-3.4035,-3.4225,-3.4738,-3.5289,-3.9448,-3.959,-3.9729,-3.9901,-3.9986,-4.0171,-4.0485,-4.0485,-4.0631,-4.1047,-4.1152,-4.13,-4.156,-4.1188,-4.0654,-4.0107,-4.0233,-4.0402,-4.0492,-4.0653,-4.083,-4.0946,-4.187,-4.2411,-4.2474,-4.3412,-4.3883,-4.3897,-4.4092,-4.3804,-4.3079,-4.3203,-4.2444,-4.0966,-4.1035,-4.0594,-3.9788,-3.9864,-3.9933,-3.992,-3.9163,-3.888,-3.8728,-3.7238,-3.6602,-3.6403,-3.5656,-3.4883,-3.4184,-3.4184,-3.3657,-3.296,-3.2914,-3.2333,-3.1514,-3.065,-3.035,-3.0292,-3.0292,-2.966,-2.8828,-2.8068,-2.7198,-2.6285,-2.5466,-2.5867,-2.6638,-2.7452,-2.8251,-2.9045,-2.987,-2.9956,-2.9891,-2.9825,-2.9682,-2.9588,-2.9512,-2.9328,-2.9218,-2.92,-2.9044,-2.8929,-2.8929,-2.8858,-2.9144,-2.9892,-3.0051,-3.0442,-3.121,-3.2657,-3.3469,-3.3451,-3.2828,-3.2522,-3.2522,-3.1996,-3.1321,-3.0551,-3.0182,-3.0079,-3.0209,-3.0348,-3.0482,-3.061,-3.0606,-3.0691,-3.0804,-3.0876,-3.0866,-3.0877,-3.1617,-3.2407,-3.3188,-3.3928,-3.4601,-3.51,-3.9432,-3.959,-3.9729,-3.9901,-3.9986,-4.0171,-4.0485,-4.0485,-4.0631,-4.1047,-4.1152,-4.1255,-4.1426,-4.1595,-4.1633,-4.154,-4.0703,-4.0235,-4.0402,-4.1071,-4.1506,-4.1667,-4.2627,-4.3153,-4.3238,-4.3523,-4.3767,-4.3897,-4.3947,-4.3931,-4.3916,-4.4005,-4.3549,-4.2612,-4.207,-4.1418,-4.0656,-4.0065,-3.9892,-3.9977,-3.9789,-3.9393,-3.8861,-3.8479,-3.7562,-3.6487,-3.6272,-3.5694,-3.5021,-3.5013,-3.4472,-3.3815,-3.3801,-3.3234,-3.2417,-3.1552,-3.081,-3.0292,-3.0311,-2.9697,-2.9025,-2.8833,-2.7631,-2.645,-2.6247,-2.6347,-2.6694,-2.7504,-2.8324,-2.9108,-2.9935,-2.9972,-2.9891,-2.9825,-2.9682,-2.9588,-2.9512,-2.937,-2.9262,-2.9218,-2.9112,-2.9044,-2.9044,-2.9044,-2.9136,-2.9388,-2.9978,-3.042,-3.0581,-3.1538,-3.2047,-3.2015,-3.1888,-3.1844,-3.1844,-3.1191,-3.059,-2.9982,-3.0054,-3.0138,-3.0253,-2.9745,-2.9939,-3.0632,-3.0041,-3.0162,-3.0808,-3.082,-3.0801,-3.0818,-3.0942,-3.1467,-3.2222,-3.2964,-3.3647,-3.4251,-3.959,-3.9694,-3.995,-4.039,-4.0544,-4.0815,-4.1392,-4.122,-4.1146,-4.1453,-4.136,-4.1209,-4.1318,-4.1666,-4.1945,-4.2005,-4.1515,-4.1253,-4.1369,-4.1899,-4.2247,-4.2341,-4.3269,-4.3853,-4.3996,-4.4415,-4.4554,-4.4406,-4.442,-4.4332,-4.4104,-4.4195,-4.3874,-4.3184,-4.2769,-4.1983,-4.0928,-4.0552,-4.0204,-3.9914,-3.9975,-3.9772,-3.9375,-3.8995,-3.8327,-3.7543,-3.7177,-3.6525,-3.5854,-3.5851,-3.5308,-3.4653,-3.4653,-3.4108,-3.335,-3.287,-3.1885,-3.0842,-3.0451,-3.004,-2.9598,-2.9194,-2.8076,-2.7086,-2.7086,-2.706,-2.7292,-2.8134,-2.8618,-2.9136,-2.995,-3.0038,-2.9959,-2.9825,-2.9701,-2.9607,-2.9512,-2.937,-2.9431,-2.9739,-2.9732,-2.9835,-3.0203,-2.9908,-2.971,-2.9795,-2.9854,-2.9913,-2.9935,-3.0383,-3.0913,-3.1531,-3.127,-3.1131,-3.1131,-3.0509,-3.0076,-2.9842,-3.0022,-2.9956,-2.969,-2.9399,-2.9337,-2.9505,-2.9508,-2.9764,-3.0249,-3.0644,-3.0799,-3.0789,-3.0722,-3.1154,-3.1894,-3.2589,-3.3283,-3.3933,-3.9729,-3.9933,-4.0306,-4.105,-4.1288,-4.168,-4.2569,-4.2091,-4.1713,-4.1943,-4.1539,-4.1209,-4.1209,-4.1542,-4.1841,-4.2005,-4.2365,-4.2588,-4.2521,-4.2793,-4.3003,-4.3081,-4.3975,-4.4543,-4.4748,-4.548,-4.5626,-4.5155,-4.5075,-4.4749,-4.4159,-4.416,-4.3871,-4.3343,-4.3258,-4.2476,-4.1249,-4.124,-4.0764,-3.9993,-4.0122,-4.0089,-3.992,-3.9239,-3.8937,-3.8804,-3.8136,-3.7354,-3.6663,-3.653,-3.6048,-3.5449,-3.5334,-3.481,-3.4261,-3.4117,-3.3121,-3.184,-3.0859,-3.0494,-3.0217,-2.9486,-2.8648,-2.7992,-2.7992,-2.7946,-2.8109,-2.8855,-2.9046,-2.9298,-2.9984,-3.0102,-3.0022,-2.9842,-2.9756,-2.9645,-2.9512,-2.9502,-2.9768,-3.0413,-3.0553,-3.0886,-3.1552,-3.0905,-3.0465,-3.0531,-2.9776,-2.9353,-2.9412,-2.9472,-3.0064,-3.1238,-3.0717,-3.0448,-3.0448,-2.9944,-2.9774,-2.9912,-3.0034,-2.9702,-2.8998,-2.9052,-2.8736,-2.8146,-2.8953,-2.938,-2.9567,-3.0448,-3.0796,-3.0798,-3.0724,-3.108,-3.17,-3.2359,-3.3043,-3.369,-3.9849,-4.0389,-4.0896,-4.1187,-4.1711,-4.2274,-4.2637,-4.2091,-4.1713,-4.1943,-4.1539,-4.1209,-4.1209,-4.1542,-4.1841,-4.2005,-4.2701,-4.2977,-4.2539,-4.3234,-4.3696,-4.3833,-4.479,-4.5342,-4.5342,-4.5661,-4.581,-4.5736,-4.5127,-4.4894,-4.493,-4.4308,-4.403,-4.402,-4.3446,-4.3071,-4.2814,-4.2215,-4.1512,-4.083,-4.0896,-4.0511,-3.9892,-3.9823,-3.9391,-3.8823,-3.8728,-3.8194,-3.7393,-3.674,-3.6432,-3.6184,-3.5439,-3.5165,-3.4967,-3.4221,-3.3878,-3.339,-3.1898,-3.0968,-3.0359,-3.0237,-2.9544,-2.8909,-2.8909,-2.8852,-2.8842,-2.8976,-2.9538,-3.0018,-3.0098,-3.0102,-3.0022,-2.9842,-2.9756,-2.9645,-2.9512,-3.0006,-3.0423,-3.0487,-3.1098,-3.1584,-3.1741,-3.1036,-3.0597,-3.0665,-2.992,-2.9472,-2.9492,-2.9492,-2.9584,-2.9826,-2.9714,-2.9698,-2.9756,-2.972,-2.9771,-2.9912,-3.0034,-2.9702,-2.8979,-2.8395,-2.81,-2.8107,-2.8311,-2.8828,-2.9578,-3.0446,-3.0804,-3.0794,-3.0717,-3.0704,-3.0791,-3.145,-3.2134,-3.2779,-4.0406,-4.0811,-4.1405,-4.2252,-4.2675,-4.3139,-4.3814,-4.2945,-4.2312,-4.263,-4.1816,-4.1366,-4.1801,-4.2146,-4.2564,-4.3076,-4.3563,-4.3748,-4.3583,-4.4038,-4.436,-4.4443,-4.5405,-4.62,-4.6793,-4.6916,-4.6813,-4.6487,-4.6195,-4.5642,-4.4949,-4.4712,-4.44,-4.4067,-4.3834,-4.3539,-4.3183,-4.2852,-4.2265,-4.1606,-4.1674,-4.1236,-4.0545,-4.059,-4.0125,-3.9448,-3.9469,-3.9014,-3.8289,-3.7907,-3.7504,-3.7005,-3.6165,-3.5916,-3.5777,-3.4952,-3.4112,-3.3198,-3.2013,-3.141,-3.0987,-3.0513,-3.0102,-2.9794,-2.9752,-2.9716,-2.9685,-2.964,-2.9926,-3.019,-3.0117,-3.0102,-3.0022,-2.9842,-2.9736,-2.9795,-3.0091,-3.0439,-3.095,-3.176,-3.221,-3.2641,-3.3092,-3.2057,-3.1374,-3.1458,-3.0261,-2.9569,-2.9607,-2.9626,-2.9626,-2.9626,-2.9569,-2.9588,-2.9645,-2.9682,-2.9771,-2.9912,-3.0038,-2.9713,-2.8962,-2.823,-2.7716,-2.7395,-2.7464,-2.8002,-2.8914,-2.9764,-3.0387,-3.0789,-3.073,-3.0642,-3.0636,-3.1302,-3.1972,-3.264,-4.1218,-4.154,-4.2083,-4.3217,-4.3572,-4.4041,-4.4892,-4.3749,-4.2946,-4.3406,-4.2319,-4.1783,-4.2566,-4.2923,-4.3353,-4.4025,-4.4392,-4.459,-4.4769,-4.5088,-4.5237,-4.5083,-4.6032,-4.6964,-4.7801,-4.7907,-4.7718,-4.7213,-4.711,-4.6489,-4.5329,-4.5134,-4.4749,-4.4252,-4.4178,-4.389,-4.3427,-4.3456,-4.305,-4.2352,-4.2403,-4.1989,-4.1345,-4.1369,-4.0908,-4.0257,-4.03,-3.9811,-3.9147,-3.8956,-3.8497,-3.7828,-3.7043,-3.6795,-3.6623,-3.5815,-3.4576,-3.3286,-3.2468,-3.2116,-3.1751,-3.0905,-3.0681,-3.0605,-3.0362,-3.0286,-3.0266,-3.0221,-3.0213,-3.019,-3.0117,-3.0102,-3.0022,-2.9842,-2.9735,-2.9945,-3.0635,-3.087,-3.1517,-3.2869,-3.325,-3.3645,-3.4284,-3.2948,-3.2037,-3.21,-3.0563,-2.9664,-2.9701,-2.9701,-2.9664,-2.9645,-2.9626,-2.9645,-2.9701,-2.97,-2.9753,-2.9859,-2.9991,-2.9675,-2.8938,-2.8429,-2.7661,-2.6786,-2.7079,-2.7605,-2.8346,-2.916,-3.0007,-3.0786,-3.0728,-3.0656,-3.0664,-3.1137,-3.1856,-3.267,-4.2202,-4.2777,-4.3284,-4.3403,-4.4105,-4.4763,-4.4978,-4.3785,-4.3219,-4.4096,-4.3117,-4.2601,-4.3349,-4.3675,-4.3898,-4.4078,-4.4794,-4.5293,-4.5534,-4.6209,-4.6435,-4.5942,-4.6877,-4.7457,-4.7511,-4.7759,-4.7866,-4.7811,-4.7265,-4.6963,-4.6911,-4.5495,-4.4878,-4.4971,-4.4326,-4.4067,-4.4121,-4.4192,-4.3783,-4.3137,-4.3117,-4.269,-4.2052,-4.2176,-4.1732,-4.1056,-4.1149,-4.0642,-3.9808,-3.9147,-3.8861,-3.867,-3.7866,-3.7617,-3.7445,-3.6661,-3.5796,-3.4944,-3.4146,-3.3336,-3.2516,-3.1711,-3.1519,-3.1308,-3.0484,-3.0247,-3.0207,-3.0188,-3.0213,-3.019,-3.0117,-3.0102,-3.0022,-2.9842,-2.9735,-2.9945,-3.0694,-3.1418,-3.2219,-3.3078,-3.3844,-3.4353,-3.4454,-3.3034,-3.21,-3.2105,-3.0603,-2.9683,-2.9701,-2.9626,-2.9588,-2.9512,-2.9626,-2.9701,-2.9701,-2.97,-2.9698,-2.9717,-2.9855,-2.9532,-2.8831,-2.8943,-2.8164,-2.6761,-2.769,-2.8143,-2.8276,-2.914,-3.0007,-3.0794,-3.0725,-3.0658,-3.0593,-3.0518,-3.1392,-3.2588,-4.2895,-4.3217,-4.3572,-4.4156,-4.4589,-4.4886,-4.5086,-4.4301,-4.3786,-4.4234,-4.3603,-4.3384,-4.415,-4.448,-4.4834,-4.5374,-4.5769,-4.6005,-4.61,-4.6524,-4.6791,-4.6748,-4.7106,-4.7338,-4.7363,-4.7572,-4.7699,-4.7777,-4.7634,-4.7375,-4.7018,-4.6489,-4.6047,-4.5672,-4.4975,-4.4735,-4.4792,-4.4419,-4.4087,-4.3895,-4.3943,-4.3473,-4.2803,-4.2937,-4.2504,-4.1789,-4.1344,-4.1013,-4.068,-3.9848,-3.9642,-3.9548,-3.8708,-3.8477,-3.8343,-3.7483,-3.6661,-3.5971,-3.5662,-3.4619,-3.3398,-3.2574,-3.233,-3.2253,-3.1933,-3.1828,-3.1661,-3.1116,-3.1021,-3.082,-3.0213,-3.0102,-3.0057,-2.9895,-2.9808,-3.0037,-3.0752,-3.1555,-3.2355,-3.3116,-3.3964,-3.4473,-3.4495,-3.3058,-3.2103,-3.2105,-3.0603,-2.9664,-2.9626,-2.9569,-2.9531,-2.9492,-2.955,-2.9569,-2.9569,-2.957,-2.9626,-2.9701,-2.9789,-2.9772,-2.9603,-2.9219,-2.8747,-2.8259,-2.8165,-2.8471,-2.9035,-2.9408,-3.0058,-3.0799,-3.0735,-3.0671,-3.0653,-3.0501,-3.1424,-3.2703,-4.382,-4.3885,-4.4109,-4.4746,-4.4886,-4.4978,-4.5177,-4.4611,-4.4268,-4.4596,-4.421,-4.4167,-4.495,-4.5285,-4.5659,-4.6137,-4.6253,-4.635,-4.6398,-4.6637,-4.6888,-4.7151,-4.7196,-4.7223,-4.7294,-4.7425,-4.7554,-4.7615,-4.7801,-4.7711,-4.7265,-4.7146,-4.6838,-4.6378,-4.569,-4.5456,-4.5514,-4.4798,-4.4556,-4.4629,-4.4408,-4.4027,-4.3586,-4.3697,-4.3295,-4.2586,-4.2068,-4.1779,-4.1491,-4.0677,-4.0477,-4.0405,-3.9567,-3.9165,-3.8877,-3.8285,-3.7521,-3.6891,-3.6891,-3.608,-3.4902,-3.3508,-3.3183,-3.3106,-3.2828,-3.2775,-3.2603,-3.2,-3.1851,-3.1649,-3.0997,-3.0658,-3.044,-3.0307,-3.0012,-3.0055,-3.081,-3.139,-3.2098,-3.3141,-3.3783,-3.4236,-3.4498,-3.306,-3.2105,-3.2105,-3.0583,-2.9626,-2.9531,-2.9492,-2.9453,-2.9431,-2.9431,-2.9431,-2.9411,-2.9472,-2.955,-2.9645,-2.9738,-2.9842,-2.9988,-2.9546,-2.9282,-2.9138,-2.8675,-2.8868,-2.951,-2.9552,-3.0057,-3.0793,-3.0742,-3.073,-3.0697,-3.0558,-3.1507,-3.2818,-4.4978,-4.4978,-4.4978,-4.4978,-4.514,-4.5177,-4.5177,-4.4716,-4.4561,-4.532,-4.5008,-4.4968,-4.5734,-4.6023,-4.6172,-4.6172,-4.6172,-4.627,-4.6381,-4.6637,-4.6842,-4.698,-4.7151,-4.7196,-4.7196,-4.7381,-4.7511,-4.7511,-4.7759,-4.7902,-4.7902,-4.7284,-4.7036,-4.7095,-4.6415,-4.617,-4.6268,-4.5453,-4.5217,-4.532,-4.4519,-4.4304,-4.4411,-4.4468,-4.4054,-4.342,-4.3555,-4.3056,-4.2205,-4.1529,-4.1311,-4.1182,-4.0443,-3.9662,-3.9011,-3.9011,-3.8381,-3.7712,-3.7712,-3.7712,-3.7101,-3.4636,-3.4006,-3.3796,-3.2921,-3.2711,-3.2711,-3.2711,-3.2661,-3.2594,-3.2597,-3.1882,-3.1263,-3.1104,-3.0371,-3.0092,-3.0866,-3.0941,-3.1523,-3.3193,-3.34,-3.3719,-3.4508,-3.3081,-3.2105,-3.2105,-3.0545,-2.9531,-2.9412,-2.9412,-2.937,-2.9302,-2.9302,-2.9262,-2.92,-2.9392,-2.9492,-2.9492,-2.9645,-2.9738,-2.9808,-3.0003,-2.9735,-2.9121,-2.9254,-2.9382,-2.9504,-2.952,-3.0016,-3.0797,-3.0801,-3.0763,-3.0697,-3.0642,-3.1584,-3.2884,-4.4978,-4.4978,-4.5032,-4.5123,-4.5177,-4.523,-4.5318,-4.5181,-4.5165,-4.5389,-4.5425,-4.5577,-4.5803,-4.6023,-4.6172,-4.6172,-4.6172,-4.627,-4.6381,-4.659,-4.6731,-4.6842,-4.6998,-4.7043,-4.7043,-4.7223,-4.7294,-4.7363,-4.7511,-4.7717,-4.7902,-4.7773,-4.7782,-4.7824,-4.7224,-4.6966,-4.6946,-4.6237,-4.5653,-4.518,-4.5084,-4.4748,-4.4344,-4.4383,-4.4346,-4.4173,-4.3712,-4.3385,-4.3094,-4.2337,-4.2101,-4.2015,-4.1261,-4.0521,-3.9909,-3.9909,-3.9298,-3.861,-3.861,-3.8171,-3.7387,-3.6088,-3.5763,-3.5534,-3.4655,-3.4464,-3.4276,-3.3672,-3.3522,-3.3315,-3.2642,-3.2321,-3.1927,-3.1271,-3.0899,-3.0581,-3.0205,-3.0584,-3.1297,-3.2367,-3.3025,-3.3719,-3.4508,-3.3583,-3.2718,-3.2137,-3.0465,-2.9433,-2.9314,-2.9328,-2.9304,-2.924,-2.924,-2.9218,-2.92,-2.9265,-2.931,-2.9373,-2.9453,-2.957,-2.9735,-2.9888,-2.9942,-2.9871,-3.0015,-3.015,-3.0277,-3.0364,-3.0562,-3.0796,-3.0793,-3.0781,-3.0765,-3.0691,-3.1678,-3.3029,-4.514,-4.514,-4.5194,-4.5247,-4.53,-4.53,-4.5371,-4.5423,-4.5423,-4.5423,-4.5615,-4.577,-4.577,-4.6023,-4.6172,-4.6172,-4.6172,-4.627,-4.6381,-4.6542,-4.6637,-4.6778,-4.7237,-4.7319,-4.6998,-4.7133,-4.7205,-4.7302,-4.7407,-4.7615,-4.7819,-4.7907,-4.8028,-4.8111,-4.7809,-4.7702,-4.774,-4.7,-4.6459,-4.6064,-4.5862,-4.5345,-4.4741,-4.4811,-4.4692,-4.4467,-4.4086,-4.3976,-4.3939,-4.3137,-4.2743,-4.2395,-4.1623,-4.1112,-4.0711,-4.0387,-3.9928,-3.9508,-3.9508,-3.9126,-3.8534,-3.7712,-3.7234,-3.6757,-3.5916,-3.5689,-3.5444,-3.459,-3.4365,-3.416,-3.3595,-3.3199,-3.2802,-3.2274,-3.1578,-3.0921,-3.0393,-3.0641,-3.1203,-3.1992,-3.2874,-3.3698,-3.4486,-3.3805,-3.2807,-3.1624,-3.0514,-2.9704,-2.9328,-2.9265,-2.924,-2.9156,-2.9134,-2.9112,-2.9089,-2.9044,-2.9134,-2.9249,-2.9332,-2.9434,-2.9589,-2.9753,-2.9934,-3.0128,-3.0247,-3.0404,-3.0571,-3.0716,-3.0778,-3.0796,-3.0801,-3.0808,-3.0837,-3.1109,-3.2023,-3.3171,-4.5476,-4.5423,-4.5423,-4.5423,-4.5423,-4.5423,-4.5423,-4.5423,-4.5423,-4.5423,-4.5615,-4.577,-4.577,-4.6023,-4.6172,-4.6172,-4.6172,-4.627,-4.6381,-4.6495,-4.6637,-4.6795,-4.77,-4.7836,-4.7105,-4.7312,-4.742,-4.7473,-4.7623,-4.7735,-4.7766,-4.7928,-4.7997,-4.801,-4.8148,-4.8304,-4.842,-4.7703,-4.748,-4.7509,-4.6731,-4.6034,-4.5488,-4.5506,-4.5092,-4.4524,-4.4589,-4.4632,-4.4599,-4.3939,-4.327,-4.2572,-4.1854,-4.1551,-4.1361,-4.0616,-4.0368,-4.031,-4.031,-4.031,-4.0119,-3.9317,-3.8514,-3.7693,-3.6797,-3.6495,-3.6192,-3.545,-3.5132,-3.5001,-3.5001,-3.4338,-3.3771,-3.3714,-3.2353,-3.1279,-3.1204,-3.1092,-3.1316,-3.2123,-3.2912,-3.3677,-3.442,-3.3743,-3.2633,-3.1012,-3.0764,-3.0349,-2.9539,-2.9366,-2.9267,-2.92,-2.9035,-2.8952,-2.8905,-2.8834,-2.8929,-2.9178,-2.9249,-2.9312,-2.9412,-2.9589,-2.9786,-2.9992,-3.0117,-3.0302,-3.0492,-3.0634,-3.0722,-3.0794,-3.0804,-3.0801,-3.0901,-3.1703,-3.2525,-3.3324,-4.5718,-4.5718,-4.5667,-4.5563,-4.5581,-4.5528,-4.5423,-4.5423,-4.5423,-4.5423,-4.5615,-4.577,-4.577,-4.6023,-4.6172,-4.6172,-4.6172,-4.6221,-4.6221,-4.635,-4.6477,-4.6637,-4.7512,-4.801,-4.7925,-4.8543,-4.8912,-4.9005,-4.9144,-4.8956,-4.8493,-4.8744,-4.8502,-4.7925,-4.8126,-4.8226,-4.8265,-4.8254,-4.7942,-4.7422,-4.7344,-4.6925,-4.627,-4.5711,-4.5428,-4.5273,-4.4777,-4.4632,-4.47,-4.4632,-4.4147,-4.3494,-4.3333,-4.2425,-4.1398,-4.1265,-4.0788,-4.031,-4.031,-4.031,-4.0253,-4.0081,-3.9834,-3.928,-3.7774,-3.6897,-3.6345,-3.6121,-3.5495,-3.4964,-3.4927,-3.4756,-3.4434,-3.3809,-3.328,-3.277,-3.2128,-3.192,-3.2161,-3.3025,-3.3245,-3.3615,-3.442,-3.3676,-3.2952,-3.246,-3.1825,-3.1335,-3.1028,-3.0354,-2.9958,-2.9886,-2.921,-2.8852,-2.881,-2.881,-2.8881,-2.904,-2.9044,-2.916,-2.9314,-2.9414,-2.9608,-2.9851,-2.9992,-3.0196,-3.0436,-3.051,-3.061,-3.0736,-3.0786,-3.0806,-3.0898,-3.177,-3.258,-3.3487,-4.5905,-4.5871,-4.577,-4.5718,-4.5684,-4.5667,-4.5528,-4.5476,-4.5476,-4.5423,-4.5581,-4.5718,-4.577,-4.5972,-4.6122,-4.6172,-4.6172,-4.6172,-4.6172,-4.6301,-4.6605,-4.7156,-4.808,-4.8781,-4.9281,-5.0049,-5.0133,-4.9478,-4.96,-4.9541,-4.9279,-4.9094,-4.8823,-4.8447,-4.8192,-4.8148,-4.8187,-4.8343,-4.8218,-4.7959,-4.8068,-4.7673,-4.708,-4.6781,-4.6221,-4.5514,-4.5228,-4.4925,-4.4712,-4.484,-4.4654,-4.4307,-4.3935,-4.3219,-4.2481,-4.2141,-4.1435,-4.0787,-4.0787,-4.0501,-4.0196,-4.0196,-4.0176,-3.9814,-3.8575,-3.7909,-3.73,-3.6483,-3.5913,-3.5439,-3.4984,-3.4908,-3.4775,-3.4339,-3.3847,-3.3354,-3.2938,-3.2765,-3.2893,-3.3362,-3.3674,-3.4005,-3.4371,-3.3902,-3.3393,-3.2913,-3.2458,-3.1955,-3.1489,-3.0992,-3.0686,-3.0629,-3.0126,-2.9849,-2.9849,-2.9417,-2.9243,-2.9325,-2.9064,-2.9003,-2.916,-2.9307,-2.9472,-2.9662,-2.982,-3.0011,-3.0228,-3.0348,-3.0472,-3.0607,-3.0722,-3.1016,-3.1485,-3.2382,-3.3486,-3.4666,-4.6137,-4.6005,-4.5922,-4.5871,-4.5871,-4.577,-4.5667,-4.5615,-4.5581,-4.5476,-4.5528,-4.5667,-4.5787,-4.5922,-4.6073,-4.6172,-4.6172,-4.6172,-4.6172,-4.6301,-4.68,-4.7776,-4.872,-4.9599,-5.0495,-5.128,-5.1097,-4.9889,-5.0013,-5.0099,-5.0046,-4.9386,-4.9082,-4.9047,-4.8334,-4.805,-4.8187,-4.8267,-4.842,-4.8587,-4.8587,-4.8307,-4.7887,-4.7942,-4.7143,-4.5922,-4.5752,-4.5255,-4.4712,-4.4789,-4.487,-4.4853,-4.4212,-4.3916,-4.3653,-4.2987,-4.2189,-4.1504,-4.1504,-4.0914,-4.0326,-4.0326,-4.0191,-3.9926,-3.9242,-3.8936,-3.8401,-3.7015,-3.6444,-3.5969,-3.5249,-3.5003,-3.4889,-3.4907,-3.4243,-3.3731,-3.3708,-3.3667,-3.3607,-3.3585,-3.4124,-3.4427,-3.4293,-3.4173,-3.3821,-3.313,-3.2951,-3.2573,-3.1836,-3.1594,-3.1443,-3.1364,-3.1121,-3.0984,-3.0984,-3.0206,-2.9836,-2.9873,-2.9294,-2.8985,-2.897,-2.9152,-2.9307,-2.9472,-2.9664,-2.9822,-2.9996,-3.0182,-3.0333,-3.0492,-3.0765,-3.1326,-3.2108,-3.3202,-3.459,-3.5884,-4.6542,-4.6398,-4.6284,-4.6186,-4.6055,-4.5922,-4.577,-4.5667,-4.5563,-4.5581,-4.5581,-4.5667,-4.5787,-4.6023,-4.6172,-4.6172,-4.6172,-4.6172,-4.6172,-4.6301,-4.68,-4.7776,-4.872,-4.9599,-5.0495,-5.128,-5.1583,-5.1419,-5.1535,-5.1323,-5.0764,-5.0082,-4.9477,-4.8919,-4.8293,-4.7992,-4.8032,-4.8229,-4.842,-4.8587,-4.8587,-4.864,-4.8667,-4.8062,-4.777,-4.7479,-4.6094,-4.5219,-4.4712,-4.4789,-4.4846,-4.49,-4.4834,-4.4345,-4.3779,-4.3672,-4.3066,-4.2417,-4.2417,-4.1789,-4.1123,-4.1123,-4.057,-3.9998,-3.9884,-3.9314,-3.8724,-3.8416,-3.7221,-3.6159,-3.6045,-3.5401,-3.4889,-3.4907,-3.4734,-3.4598,-3.4557,-3.4475,-3.4411,-3.4367,-3.433,-3.4293,-3.4221,-3.4148,-3.4018,-3.3857,-3.3747,-3.356,-3.3414,-3.2566,-3.2063,-3.2063,-3.1271,-3.0844,-3.0844,-3.0707,-3.0653,-3.0635,-2.9881,-2.9274,-2.8834,-2.897,-2.9115,-2.9251,-2.9454,-2.9645,-2.9841,-2.9981,-3.0122,-3.0323,-3.1221,-3.1661,-3.2043,-3.378,-3.5059,-3.5897,-4.6842,-4.6637,-4.6495,-4.6332,-4.6253,-4.6154,-4.5922,-4.5871,-4.5787,-4.5718,-4.5718,-4.577,-4.5871,-4.6073,-4.6172,-4.6172,-4.6172,-4.6172,-4.6172,-4.6301,-4.6994,-4.8413,-4.895,-4.9795,-5.1137,-5.1512,-5.169,-5.169,-5.1858,-5.1777,-5.1545,-5.0443,-4.9775,-4.951,-4.8475,-4.7992,-4.8032,-4.8229,-4.842,-4.8587,-4.8587,-4.8714,-4.8872,-4.8621,-4.8296,-4.7778,-4.6229,-4.5228,-4.4693,-4.4719,-4.4796,-4.4914,-4.4919,-4.4697,-4.4412,-4.4398,-4.3828,-4.3202,-4.3202,-4.2576,-4.1816,-4.1361,-4.094,-4.0542,-4.0046,-3.9667,-3.9269,-3.8814,-3.8092,-3.7296,-3.6367,-3.5855,-3.5399,-3.4904,-3.4788,-3.4727,-3.4645,-3.4623,-3.4561,-3.4473,-3.4363,-3.4269,-3.4148,-3.4074,-3.4023,-3.3947,-3.3815,-3.3726,-3.3661,-3.3164,-3.2839,-3.2828,-3.229,-3.202,-3.199,-3.15,-3.1225,-3.1194,-3.0404,-2.9789,-2.929,-2.8955,-2.8858,-2.9003,-2.9181,-2.9351,-2.9474,-2.9697,-3.0132,-3.0712,-3.1249,-3.2193,-3.3354,-3.4769,-3.5544,-3.5896]}]]